Time,TemperatureF,DewpointF,PressureIn,WindDirection,WindDirectionDegrees,WindSpeedMPH,WindSpeedGustMPH,Humidity,HourlyPrecipIn,Conditions,Clouds,dailyrainin,SoftwareType,DateUTC
2013-10-10 00:00:00,63.8,62.3,29.83,North,355,14.0,22.0,95,0.00,,---,1.48,VWS V14.01,2013-10-10 04:00:00,
2013-10-10 00:01:00,63.8,62.3,29.83,NNW,348,20.0,21.0,95,0.00,,---,0.00,VWS V14.01,2013-10-10 04:01:00,
2013-10-10 00:02:00,63.7,62.2,29.83,NNW,329,10.0,21.0,95,0.00,,---,0.00,VWS V14.01,2013-10-10 04:02:00,
2013-10-10 00:03:00,63.8,62.3,29.83,NNE,28,16.0,21.0,95,0.00,,---,0.00,VWS V14.01,2013-10-10 04:03:00,
2013-10-10 00:04:00,63.8,62.3,29.83,North,360,16.0,21.0,95,0.00,,---,0.00,VWS V14.01,2013-10-10 04:04:00,
2013-10-10 00:05:00,63.8,62.3,29.83,NNW,340,19.0,21.0,95,0.00,,---,0.00,VWS V14.01,2013-10-10 04:05:00,
2013-10-10 00:06:00,63.8,62.3,29.83,NW,326,19.0,23.0,95,0.00,,---,0.00,VWS V14.01,2013-10-10 04:06:00,
2013-10-10 00:07:00,63.8,62.3,29.83,North,349,19.0,26.0,95,0.00,,---,0.00,VWS V14.01,2013-10-10 04:07:00,
2013-10-10 00:08:00,63.8,62.3,29.83,North,5,15.0,26.0,95,0.00,,---,0.00,VWS V14.01,2013-10-10 04:08:00,
2013-10-10 00:09:00,63.8,62.3,29.83,North,360,16.0,26.0,95,0.00,,---,0.00,VWS V14.01,2013-10-10 04:09:00,
2013-10-10 00:10:00,63.8,62.3,29.83,NNW,344,17.0,26.0,95,0.00,,---,0.00,VWS V14.01,2013-10-10 04:10:00,
2013-10-10 00:11:00,63.8,62.3,29.83,NNW,335,14.0,21.0,95,0.00,,---,0.00,VWS V14.01,2013-10-10 04:11:00,
2013-10-10 00:12:00,63.8,62.3,29.83,North,9,16.0,21.0,95,0.00,,---,0.00,VWS V14.01,2013-10-10 04:12:00,
2013-10-10 00:13:00,63.8,62.3,29.83,NNW,334,17.0,21.0,95,0.00,,---,0.00,VWS V14.01,2013-10-10 04:13:00,
2013-10-10 00:14:00,63.8,62.3,29.83,NNW,346,17.0,21.0,95,0.00,,---,0.00,VWS V14.01,2013-10-10 04:14:00,
2013-10-10 00:15:00,63.8,62.3,29.83,NW,322,16.0,21.0,95,0.00,,---,0.00,VWS V14.01,2013-10-10 04:15:00,
2013-10-10 00:16:00,63.7,62.2,29.83,North,349,21.0,21.0,95,0.00,,---,0.00,VWS V14.01,2013-10-10 04:16:00,
2013-10-10 00:17:00,63.7,62.2,29.83,North,355,17.0,21.0,95,0.00,,---,0.00,VWS V14.01,2013-10-10 04:17:00,
2013-10-10 00:18:00,63.7,62.2,29.83,NNW,327,13.0,21.0,95,0.00,,---,0.00,VWS V14.01,2013-10-10 04:18:00,
2013-10-10 00:19:00,63.8,62.3,29.83,NNW,340,16.0,21.0,95,0.00,,---,0.00,VWS V14.01,2013-10-10 04:19:00,
2013-10-10 00:20:00,63.8,62.3,29.83,NNW,338,14.0,21.0,95,0.00,,---,0.00,VWS V14.01,2013-10-10 04:20:00,
2013-10-10 00:21:00,63.8,62.3,29.83,North,5,19.0,20.0,95,0.00,,---,0.00,VWS V14.01,2013-10-10 04:21:00,
2013-10-10 00:22:00,63.8,62.3,29.83,NNW,347,15.0,20.0,95,0.00,,---,0.00,VWS V14.01,2013-10-10 04:22:00,
2013-10-10 00:23:00,63.8,62.3,29.83,North,11,11.0,20.0,95,0.00,,---,0.00,VWS V14.01,2013-10-10 04:23:00,
2013-10-10 00:24:00,63.8,62.3,29.83,North,360,17.0,23.0,95,0.00,,---,0.00,VWS V14.01,2013-10-10 04:24:00,
2013-10-10 00:25:00,63.8,62.3,29.83,NW,325,10.0,13.0,95,0.00,,---,0.00,VWS V14.01,2013-10-10 04:25:00,
2013-10-10 00:26:00,63.8,62.3,29.83,NNW,328,15.0,20.0,95,0.00,,---,0.00,VWS V14.01,2013-10-10 04:26:00,
2013-10-10 00:27:00,63.8,62.3,29.83,NNW,336,16.0,20.0,95,0.00,,---,0.00,VWS V14.01,2013-10-10 04:27:00,
2013-10-10 00:28:00,63.8,62.3,29.83,NNW,344,12.0,21.0,95,0.00,,---,0.00,VWS V14.01,2013-10-10 04:28:00,
2013-10-10 00:29:00,63.8,62.3,29.83,North,360,20.0,21.0,95,0.00,,---,0.00,VWS V14.01,2013-10-10 04:29:00,
2013-10-10 00:30:00,63.8,62.3,29.83,North,360,17.0,17.0,95,0.00,,---,0.00,VWS V14.01,2013-10-10 04:30:00,
2013-10-10 00:31:00,63.7,62.2,29.83,NNW,332,13.0,18.0,95,0.00,,---,0.00,VWS V14.01,2013-10-10 04:31:00,
2013-10-10 00:32:00,63.8,62.3,29.83,NNW,338,12.0,20.0,95,0.00,,---,0.00,VWS V14.01,2013-10-10 04:32:00,
2013-10-10 00:33:00,63.8,62.3,29.83,North,360,18.0,20.0,95,0.00,,---,0.00,VWS V14.01,2013-10-10 04:33:00,
2013-10-10 00:34:00,63.7,62.2,29.83,North,355,16.0,20.0,95,0.00,,---,0.00,VWS V14.01,2013-10-10 04:34:00,
2013-10-10 00:35:00,63.8,62.3,29.83,NNW,341,10.0,20.0,95,0.00,,---,0.00,VWS V14.01,2013-10-10 04:35:00,
2013-10-10 00:36:00,63.8,62.3,29.83,NNW,338,15.0,19.0,95,0.00,,---,0.00,VWS V14.01,2013-10-10 04:36:00,
2013-10-10 00:37:00,63.8,62.3,29.83,NNW,340,18.0,20.0,95,0.00,,---,0.00,VWS V14.01,2013-10-10 04:37:00,
2013-10-10 00:38:00,63.7,62.2,29.83,NNW,344,14.0,20.0,95,0.00,,---,0.00,VWS V14.01,2013-10-10 04:38:00,
2013-10-10 00:39:00,63.8,62.3,29.83,North,355,13.0,20.0,95,0.00,,---,0.00,VWS V14.01,2013-10-10 04:39:00,
2013-10-10 00:40:00,63.8,62.3,29.83,North,355,11.0,20.0,95,0.00,,---,0.00,VWS V14.01,2013-10-10 04:40:00,
2013-10-10 00:41:00,63.8,62.3,29.83,NNW,338,14.0,18.0,95,0.00,,---,0.00,VWS V14.01,2013-10-10 04:41:00,
2013-10-10 00:42:00,63.8,62.3,29.83,North,350,13.0,18.0,95,0.00,,---,0.00,VWS V14.01,2013-10-10 04:42:00,
2013-10-10 00:43:00,63.8,62.3,29.83,North,5,16.0,22.0,95,0.00,,---,0.00,VWS V14.01,2013-10-10 04:43:00,
2013-10-10 00:44:00,63.8,62.3,29.83,North,360,16.0,22.0,95,0.00,,---,0.00,VWS V14.01,2013-10-10 04:44:00,
2013-10-10 00:45:00,63.7,62.2,29.82,NNW,338,18.0,22.0,95,0.00,,---,0.00,VWS V14.01,2013-10-10 04:45:00,
2013-10-10 00:46:00,63.7,62.2,29.82,NNW,333,11.0,18.0,95,0.00,,---,0.00,VWS V14.01,2013-10-10 04:46:00,
2013-10-10 00:47:00,63.8,62.3,29.82,NW,319,11.0,19.0,95,0.00,,---,0.00,VWS V14.01,2013-10-10 04:47:00,
2013-10-10 00:48:00,63.8,62.3,29.82,NNW,347,18.0,19.0,95,0.00,,---,0.00,VWS V14.01,2013-10-10 04:48:00,
2013-10-10 00:49:00,63.8,62.3,29.82,NNW,344,11.0,23.0,95,0.00,,---,0.00,VWS V14.01,2013-10-10 04:49:00,
2013-10-10 00:50:00,63.8,62.3,29.82,NNW,331,9.0,23.0,95,0.00,,---,0.00,VWS V14.01,2013-10-10 04:50:00,
2013-10-10 00:51:00,63.8,62.3,29.82,North,355,15.0,21.0,95,0.00,,---,0.00,VWS V14.01,2013-10-10 04:51:00,
2013-10-10 00:52:00,63.8,62.3,29.82,NNE,17,13.0,21.0,95,0.00,,---,0.00,VWS V14.01,2013-10-10 04:52:00,
2013-10-10 00:53:00,63.8,62.3,29.82,NNW,346,15.0,21.0,95,0.00,,---,0.00,VWS V14.01,2013-10-10 04:53:00,
2013-10-10 00:54:00,63.8,62.3,29.82,NNW,346,15.0,21.0,95,0.00,,---,0.00,VWS V14.01,2013-10-10 04:54:00,
2013-10-10 00:55:00,63.8,62.3,29.82,NNW,346,15.0,21.0,95,0.00,,---,0.00,VWS V14.01,2013-10-10 04:55:00,
2013-10-10 00:56:00,63.8,62.3,29.82,NNW,340,17.0,17.0,95,0.00,,---,0.00,VWS V14.01,2013-10-10 04:56:00,
2013-10-10 00:57:00,63.7,62.2,29.82,NE,46,15.0,18.0,95,0.00,,---,0.00,VWS V14.01,2013-10-10 04:57:00,
2013-10-10 00:58:00,63.7,62.2,29.82,NNW,348,12.0,21.0,95,0.00,,---,0.00,VWS V14.01,2013-10-10 04:58:00,
2013-10-10 00:59:00,63.7,62.2,29.82,North,360,13.0,21.0,95,0.00,,---,0.00,VWS V14.01,2013-10-10 04:59:00,
2013-10-10 01:00:00,63.8,62.3,29.82,NNW,347,15.0,21.0,95,0.00,,---,0.00,VWS V14.01,2013-10-10 05:00:00,
2013-10-10 01:01:00,63.8,62.3,29.82,NNW,335,19.0,19.0,95,0.00,,---,0.00,VWS V14.01,2013-10-10 05:01:00,
2013-10-10 01:02:00,63.7,62.2,29.82,North,355,12.0,19.0,95,0.00,,---,0.00,VWS V14.01,2013-10-10 05:02:00,
2013-10-10 01:03:00,63.7,62.2,29.82,NNW,346,15.0,20.0,95,0.00,,---,0.00,VWS V14.01,2013-10-10 05:03:00,
2013-10-10 01:04:00,63.7,62.2,29.82,North,355,17.0,20.0,95,0.00,,---,0.00,VWS V14.01,2013-10-10 05:04:00,
2013-10-10 01:05:00,63.8,62.3,29.82,NNW,343,9.0,21.0,95,0.00,,---,0.00,VWS V14.01,2013-10-10 05:05:00,
2013-10-10 01:06:00,63.8,62.3,29.82,NNW,343,16.0,16.0,95,0.00,,---,0.00,VWS V14.01,2013-10-10 05:06:00,
2013-10-10 01:07:00,63.7,62.2,29.82,NNW,345,13.0,20.0,95,0.00,,---,0.00,VWS V14.01,2013-10-10 05:07:00,
2013-10-10 01:08:00,63.7,62.2,29.82,NNW,344,19.0,20.0,95,0.00,,---,0.00,VWS V14.01,2013-10-10 05:08:00,
2013-10-10 01:09:00,63.7,62.2,29.82,NNW,340,19.0,22.0,95,0.00,,---,0.00,VWS V14.01,2013-10-10 05:09:00,
2013-10-10 01:10:00,63.6,62.2,29.82,NNW,334,14.0,22.0,95,0.00,,---,0.00,VWS V14.01,2013-10-10 05:10:00,
2013-10-10 01:11:00,63.7,62.2,29.82,North,355,16.0,19.0,95,0.00,,---,0.00,VWS V14.01,2013-10-10 05:11:00,
2013-10-10 01:12:00,63.7,62.2,29.82,NNW,345,18.0,20.0,95,0.00,,---,0.00,VWS V14.01,2013-10-10 05:12:00,
2013-10-10 01:13:00,63.7,62.2,29.82,North,5,10.0,20.0,95,0.00,,---,0.00,VWS V14.01,2013-10-10 05:13:00,
2013-10-10 01:14:00,63.7,62.2,29.82,NNW,343,10.0,20.0,95,0.00,,---,0.00,VWS V14.01,2013-10-10 05:14:00,
2013-10-10 01:15:00,63.7,62.2,29.82,NNW,346,13.0,20.0,95,0.00,,---,0.00,VWS V14.01,2013-10-10 05:15:00,
2013-10-10 01:16:00,63.7,62.5,29.82,NNW,329,12.0,19.0,96,0.00,,---,0.00,VWS V14.01,2013-10-10 05:16:00,
2013-10-10 01:17:00,63.8,62.6,29.82,NNW,336,16.0,19.0,96,0.00,,---,0.00,VWS V14.01,2013-10-10 05:17:00,
2013-10-10 01:18:00,63.8,62.6,29.82,North,351,19.0,19.0,96,0.00,,---,0.00,VWS V14.01,2013-10-10 05:18:00,
2013-10-10 01:19:00,63.7,62.5,29.82,North,360,18.0,21.0,96,0.00,,---,0.00,VWS V14.01,2013-10-10 05:19:00,
2013-10-10 01:20:00,63.7,62.2,29.82,NNW,336,13.0,21.0,95,0.00,,---,0.00,VWS V14.01,2013-10-10 05:20:00,
2013-10-10 01:21:00,63.7,62.5,29.82,NNE,15,12.0,17.0,96,0.00,,---,0.00,VWS V14.01,2013-10-10 05:21:00,
2013-10-10 01:22:00,63.7,62.5,29.82,NNE,26,10.0,17.0,96,0.00,,---,0.00,VWS V14.01,2013-10-10 05:22:00,
2013-10-10 01:23:00,63.8,62.6,29.82,NNW,348,13.0,17.0,96,0.00,,---,0.00,VWS V14.01,2013-10-10 05:23:00,
2013-10-10 01:24:00,63.8,62.6,29.82,North,5,13.0,18.0,96,0.00,,---,0.00,VWS V14.01,2013-10-10 05:24:00,
2013-10-10 01:25:00,63.8,62.6,29.82,North,355,11.0,18.0,96,0.00,,---,0.00,VWS V14.01,2013-10-10 05:25:00,
2013-10-10 01:26:00,63.8,62.6,29.82,NW,325,12.0,12.0,96,0.00,,---,0.00,VWS V14.01,2013-10-10 05:26:00,
2013-10-10 01:27:00,63.9,62.7,29.82,North,355,9.0,17.0,96,0.00,,---,0.00,VWS V14.01,2013-10-10 05:27:00,
2013-10-10 01:28:00,63.9,62.7,29.82,North,350,13.0,17.0,96,0.00,,---,0.00,VWS V14.01,2013-10-10 05:28:00,
2013-10-10 01:29:00,63.9,62.4,29.82,North,360,12.0,18.0,95,0.00,,---,0.00,VWS V14.01,2013-10-10 05:29:00,
2013-10-10 01:30:00,63.8,62.6,29.82,NNW,346,11.0,19.0,96,0.00,,---,0.00,VWS V14.01,2013-10-10 05:30:00,
2013-10-10 01:31:00,63.8,62.6,29.82,North,5,14.0,20.0,96,0.00,,---,0.00,VWS V14.01,2013-10-10 05:31:00,
2013-10-10 01:32:00,63.8,62.6,29.82,North,350,14.0,20.0,96,0.00,,---,0.00,VWS V14.01,2013-10-10 05:32:00,
2013-10-10 01:33:00,63.8,62.6,29.82,North,350,14.0,20.0,96,0.00,,---,0.00,VWS V14.01,2013-10-10 05:33:00,
2013-10-10 01:34:00,63.8,62.6,29.82,NNW,333,16.0,20.0,96,0.00,,---,0.00,VWS V14.01,2013-10-10 05:34:00,
2013-10-10 01:35:00,63.7,62.5,29.82,North,355,15.0,21.0,96,0.00,,---,0.00,VWS V14.01,2013-10-10 05:35:00,
2013-10-10 01:36:00,63.7,62.5,29.82,NNW,333,10.0,16.0,96,0.00,,---,0.00,VWS V14.01,2013-10-10 05:36:00,
2013-10-10 01:37:00,63.7,62.5,29.82,NNW,333,10.0,16.0,96,0.00,,---,0.00,VWS V14.01,2013-10-10 05:37:00,
2013-10-10 01:38:00,63.7,62.5,29.82,NNW,333,10.0,16.0,96,0.00,,---,0.00,VWS V14.01,2013-10-10 05:38:00,
2013-10-10 01:39:00,63.7,62.5,29.82,NNW,333,10.0,16.0,96,0.00,,---,0.00,VWS V14.01,2013-10-10 05:39:00,
2013-10-10 01:40:00,63.7,62.5,29.82,NNW,333,10.0,16.0,96,0.00,,---,0.00,VWS V14.01,2013-10-10 05:40:00,
2013-10-10 01:41:00,63.7,62.5,29.82,NNW,333,10.0,10.0,96,0.00,,---,0.00,VWS V14.01,2013-10-10 05:41:00,
2013-10-10 01:42:00,63.8,62.6,29.82,North,355,14.0,15.0,96,0.00,,---,0.00,VWS V14.01,2013-10-10 05:42:00,
2013-10-10 01:43:00,63.8,62.6,29.82,NNW,347,10.0,17.0,96,0.00,,---,0.00,VWS V14.01,2013-10-10 05:43:00,
2013-10-10 01:44:00,63.8,62.6,29.82,NNW,341,16.0,21.0,96,0.00,,---,0.00,VWS V14.01,2013-10-10 05:44:00,
2013-10-10 01:45:00,63.8,62.6,29.82,NNW,344,12.0,21.0,96,0.00,,---,0.00,VWS V14.01,2013-10-10 05:45:00,
2013-10-10 01:46:00,63.8,62.6,29.82,NNW,340,11.0,19.0,96,0.00,,---,0.00,VWS V14.01,2013-10-10 05:46:00,
2013-10-10 01:47:00,63.8,62.6,29.82,North,360,10.0,19.0,96,0.00,,---,0.00,VWS V14.01,2013-10-10 05:47:00,
2013-10-10 01:48:00,63.8,62.6,29.82,North,360,13.0,19.0,96,0.00,,---,0.00,VWS V14.01,2013-10-10 05:48:00,
2013-10-10 01:49:00,63.8,62.6,29.82,North,360,11.0,19.0,96,0.00,,---,0.00,VWS V14.01,2013-10-10 05:49:00,
2013-10-10 01:50:00,63.8,62.6,29.82,NNW,347,14.0,19.0,96,0.00,,---,0.00,VWS V14.01,2013-10-10 05:50:00,
2013-10-10 01:51:00,63.8,62.6,29.82,NNW,342,12.0,14.0,96,0.00,,---,0.00,VWS V14.01,2013-10-10 05:51:00,
2013-10-10 01:52:00,63.9,62.7,29.82,NNW,337,9.0,14.0,96,0.00,,---,0.00,VWS V14.01,2013-10-10 05:52:00,
2013-10-10 01:53:00,63.9,62.7,29.82,NNW,336,16.0,19.0,96,0.00,,---,0.00,VWS V14.01,2013-10-10 05:53:00,
2013-10-10 01:54:00,63.9,62.7,29.82,NNW,342,10.0,19.0,96,0.00,,---,0.00,VWS V14.01,2013-10-10 05:54:00,
2013-10-10 01:55:00,63.9,62.7,29.82,North,355,10.0,19.0,96,0.00,,---,0.00,VWS V14.01,2013-10-10 05:55:00,
2013-10-10 01:56:00,63.9,62.7,29.82,North,350,11.0,15.0,96,0.00,,---,0.00,VWS V14.01,2013-10-10 05:56:00,
2013-10-10 01:57:00,63.8,62.6,29.82,NNW,340,14.0,16.0,96,0.00,,---,0.00,VWS V14.01,2013-10-10 05:57:00,
2013-10-10 01:58:00,63.8,62.6,29.82,NNW,338,12.0,16.0,96,0.00,,---,0.00,VWS V14.01,2013-10-10 05:58:00,
2013-10-10 01:59:00,63.8,62.6,29.82,NNW,344,10.0,16.0,96,0.00,,---,0.00,VWS V14.01,2013-10-10 05:59:00,
2013-10-10 02:00:00,63.8,62.6,29.82,NW,306,12.0,16.0,96,0.00,,---,0.00,VWS V14.01,2013-10-10 06:00:00,
2013-10-10 02:01:00,63.8,62.6,29.82,NNW,329,13.0,17.0,96,0.00,,---,0.00,VWS V14.01,2013-10-10 06:01:00,
2013-10-10 02:02:00,63.8,62.6,29.82,NNW,344,14.0,17.0,96,0.00,,---,0.00,VWS V14.01,2013-10-10 06:02:00,
2013-10-10 02:03:00,63.8,62.6,29.82,NW,313,7.0,17.0,96,0.00,,---,0.00,VWS V14.01,2013-10-10 06:03:00,
2013-10-10 02:04:00,63.8,62.6,29.82,NW,322,7.0,17.0,96,0.00,,---,0.00,VWS V14.01,2013-10-10 06:04:00,
2013-10-10 02:05:00,63.8,62.6,29.82,NW,323,10.0,17.0,96,0.00,,---,0.00,VWS V14.01,2013-10-10 06:05:00,
2013-10-10 02:06:00,63.8,62.6,29.82,North,9,13.0,16.0,96,0.00,,---,0.00,VWS V14.01,2013-10-10 06:06:00,
2013-10-10 02:07:00,63.8,62.6,29.82,North,355,10.0,16.0,96,0.00,,---,0.00,VWS V14.01,2013-10-10 06:07:00,
2013-10-10 02:08:00,63.8,62.6,29.82,NNW,339,17.0,23.0,96,0.00,,---,0.00,VWS V14.01,2013-10-10 06:08:00,
2013-10-10 02:09:00,63.7,62.5,29.82,NW,320,11.0,23.0,96,0.00,,---,0.00,VWS V14.01,2013-10-10 06:09:00,
2013-10-10 02:10:00,63.7,62.5,29.82,NW,314,6.0,23.0,96,0.00,,---,0.00,VWS V14.01,2013-10-10 06:10:00,
2013-10-10 02:11:00,63.7,62.5,29.82,NW,311,10.0,14.0,96,0.00,,---,0.00,VWS V14.01,2013-10-10 06:11:00,
2013-10-10 02:12:00,63.7,62.5,29.82,NNW,344,12.0,14.0,96,0.00,,---,0.00,VWS V14.01,2013-10-10 06:12:00,
2013-10-10 02:13:00,63.7,62.5,29.82,NW,311,10.0,15.0,96,0.00,,---,0.00,VWS V14.01,2013-10-10 06:13:00,
2013-10-10 02:14:00,63.7,62.5,29.82,NNW,329,10.0,15.0,96,0.00,,---,0.00,VWS V14.01,2013-10-10 06:14:00,
2013-10-10 02:15:00,63.7,62.5,29.82,NNW,340,15.0,15.0,96,0.00,,---,0.00,VWS V14.01,2013-10-10 06:15:00,
2013-10-10 02:16:00,63.7,62.5,29.82,NNE,13,8.0,15.0,96,0.00,,---,0.00,VWS V14.01,2013-10-10 06:16:00,
2013-10-10 02:17:00,63.7,62.5,29.82,NNW,330,15.0,15.0,96,0.00,,---,0.00,VWS V14.01,2013-10-10 06:17:00,
2013-10-10 02:18:00,63.7,62.5,29.82,North,351,10.0,15.0,96,0.00,,---,0.00,VWS V14.01,2013-10-10 06:18:00,
2013-10-10 02:19:00,63.8,62.6,29.82,NNW,346,14.0,16.0,96,0.00,,---,0.00,VWS V14.01,2013-10-10 06:19:00,
2013-10-10 02:20:00,63.7,62.5,29.82,NNW,333,19.0,19.0,96,0.00,,---,0.00,VWS V14.01,2013-10-10 06:20:00,
2013-10-10 02:21:00,63.6,62.4,29.82,North,350,18.0,19.0,96,0.00,,---,0.00,VWS V14.01,2013-10-10 06:21:00,
2013-10-10 02:22:00,63.6,62.4,29.82,NNW,327,16.0,19.0,96,0.00,,---,0.00,VWS V14.01,2013-10-10 06:22:00,
2013-10-10 02:23:00,63.6,62.4,29.82,North,360,12.0,19.0,96,0.00,,---,0.00,VWS V14.01,2013-10-10 06:23:00,
2013-10-10 02:24:00,63.6,62.4,29.82,NNW,333,11.0,19.0,96,0.00,,---,0.00,VWS V14.01,2013-10-10 06:24:00,
2013-10-10 02:25:00,63.6,62.4,29.82,North,351,17.0,19.0,96,0.00,,---,0.00,VWS V14.01,2013-10-10 06:25:00,
2013-10-10 02:26:00,63.5,62.0,29.82,NNW,338,12.0,18.0,95,0.00,,---,0.00,VWS V14.01,2013-10-10 06:26:00,
2013-10-10 02:27:00,63.5,62.0,29.82,NNW,343,13.0,18.0,95,0.00,,---,0.00,VWS V14.01,2013-10-10 06:27:00,
2013-10-10 02:28:00,63.5,62.0,29.82,NNW,332,12.0,19.0,95,0.00,,---,0.00,VWS V14.01,2013-10-10 06:28:00,
2013-10-10 02:29:00,63.5,62.0,29.82,North,355,14.0,19.0,95,0.00,,---,0.00,VWS V14.01,2013-10-10 06:29:00,
2013-10-10 02:30:00,63.4,62.2,29.81,NNW,340,12.0,19.0,96,0.00,,---,0.00,VWS V14.01,2013-10-10 06:30:00,
2013-10-10 02:31:00,63.4,62.2,29.81,NNW,327,12.0,16.0,96,0.00,,---,0.00,VWS V14.01,2013-10-10 06:31:00,
2013-10-10 02:32:00,63.5,62.3,29.81,NNW,332,6.0,16.0,96,0.00,,---,0.00,VWS V14.01,2013-10-10 06:32:00,
2013-10-10 02:33:00,63.5,62.3,29.81,NNW,346,11.0,16.0,96,0.00,,---,0.00,VWS V14.01,2013-10-10 06:33:00,
2013-10-10 02:34:00,63.6,62.4,29.81,North,355,8.0,16.0,96,0.00,,---,0.00,VWS V14.01,2013-10-10 06:34:00,
2013-10-10 02:35:00,63.6,62.4,29.81,NNW,328,14.0,19.0,96,0.00,,---,0.00,VWS V14.01,2013-10-10 06:35:00,
2013-10-10 02:36:00,63.5,62.0,29.81,NNW,334,14.0,21.0,95,0.00,,---,0.00,VWS V14.01,2013-10-10 06:36:00,
2013-10-10 02:37:00,63.4,62.0,29.81,NNW,348,17.0,21.0,95,0.00,,---,0.00,VWS V14.01,2013-10-10 06:37:00,
2013-10-10 02:38:00,63.4,62.0,29.81,NNW,348,17.0,21.0,95,0.00,,---,0.00,VWS V14.01,2013-10-10 06:38:00,
2013-10-10 02:39:00,63.4,62.0,29.81,NNW,348,17.0,21.0,95,0.00,,---,0.00,VWS V14.01,2013-10-10 06:39:00,
2013-10-10 02:40:00,63.4,62.0,29.81,NNW,333,13.0,21.0,95,0.00,,---,0.00,VWS V14.01,2013-10-10 06:40:00,
2013-10-10 02:41:00,63.5,62.3,29.81,NNW,348,15.0,18.0,96,0.00,,---,0.00,VWS V14.01,2013-10-10 06:41:00,
2013-10-10 02:42:00,63.5,62.3,29.81,NNW,335,6.0,18.0,96,0.00,,---,0.00,VWS V14.01,2013-10-10 06:42:00,
2013-10-10 02:43:00,63.5,62.3,29.81,North,351,11.0,18.0,96,0.00,,---,0.00,VWS V14.01,2013-10-10 06:43:00,
2013-10-10 02:44:00,63.6,62.4,29.81,NW,323,12.0,18.0,96,0.00,,---,0.00,VWS V14.01,2013-10-10 06:44:00,
2013-10-10 02:45:00,63.5,62.3,29.81,NNW,340,13.0,19.0,96,0.00,,---,0.00,VWS V14.01,2013-10-10 06:45:00,
2013-10-10 02:46:00,63.5,62.3,29.81,NNW,333,9.0,16.0,96,0.00,,---,0.00,VWS V14.01,2013-10-10 06:46:00,
2013-10-10 02:47:00,63.5,62.3,29.81,North,350,10.0,16.0,96,0.00,,---,0.00,VWS V14.01,2013-10-10 06:47:00,
2013-10-10 02:48:00,63.5,62.3,29.81,NNW,332,15.0,20.0,96,0.00,,---,0.00,VWS V14.01,2013-10-10 06:48:00,
2013-10-10 02:49:00,63.5,62.3,29.81,NNW,339,12.0,20.0,96,0.00,,---,0.00,VWS V14.01,2013-10-10 06:49:00,
2013-10-10 02:50:00,63.5,62.3,29.81,North,355,16.0,20.0,96,0.00,,---,0.00,VWS V14.01,2013-10-10 06:50:00,
2013-10-10 02:51:00,63.5,62.3,29.81,North,11,11.0,21.0,96,0.00,,---,0.00,VWS V14.01,2013-10-10 06:51:00,
2013-10-10 02:52:00,63.5,62.3,29.81,North,355,13.0,21.0,96,0.00,,---,0.00,VWS V14.01,2013-10-10 06:52:00,
2013-10-10 02:53:00,63.5,62.3,29.81,NNW,334,14.0,21.0,96,0.00,,---,0.00,VWS V14.01,2013-10-10 06:53:00,
2013-10-10 02:54:00,63.5,62.3,29.81,NW,316,12.0,21.0,96,0.00,,---,0.00,VWS V14.01,2013-10-10 06:54:00,
2013-10-10 02:55:00,63.4,62.2,29.81,NNW,339,8.0,21.0,96,0.00,,---,0.00,VWS V14.01,2013-10-10 06:55:00,
2013-10-10 02:56:00,63.4,62.2,29.81,NNW,342,12.0,17.0,96,0.00,,---,0.00,VWS V14.01,2013-10-10 06:56:00,
2013-10-10 02:57:00,63.5,62.3,29.81,NNW,333,12.0,17.0,96,0.00,,---,0.00,VWS V14.01,2013-10-10 06:57:00,
2013-10-10 02:58:00,63.4,62.2,29.81,NNW,338,19.0,19.0,96,0.00,,---,0.00,VWS V14.01,2013-10-10 06:58:00,
2013-10-10 02:59:00,63.4,62.2,29.81,North,355,12.0,19.0,96,0.00,,---,0.00,VWS V14.01,2013-10-10 06:59:00,
2013-10-10 03:00:00,63.4,62.2,29.81,NW,322,9.0,19.0,96,0.00,,---,0.00,VWS V14.01,2013-10-10 07:00:00,
2013-10-10 03:01:00,63.4,62.2,29.81,NNW,330,11.0,15.0,96,0.00,,---,0.00,VWS V14.01,2013-10-10 07:01:00,
2013-10-10 03:02:00,63.4,62.2,29.81,NW,326,15.0,21.0,96,0.00,,---,0.00,VWS V14.01,2013-10-10 07:02:00,
2013-10-10 03:03:00,63.4,62.2,29.81,NNW,340,11.0,21.0,96,0.00,,---,0.00,VWS V14.01,2013-10-10 07:03:00,
2013-10-10 03:04:00,63.4,62.2,29.81,NNW,340,11.0,21.0,96,0.00,,---,0.00,VWS V14.01,2013-10-10 07:04:00,
2013-10-10 03:05:00,63.4,62.2,29.81,North,355,11.0,21.0,96,0.00,,---,0.00,VWS V14.01,2013-10-10 07:05:00,
2013-10-10 03:06:00,63.4,62.2,29.81,NW,322,12.0,14.0,96,0.00,,---,0.00,VWS V14.01,2013-10-10 07:06:00,
2013-10-10 03:07:00,63.4,62.2,29.81,NNW,329,8.0,14.0,96,0.00,,---,0.00,VWS V14.01,2013-10-10 07:07:00,
2013-10-10 03:08:00,63.4,62.2,29.81,NNW,342,12.0,18.0,96,0.00,,---,0.00,VWS V14.01,2013-10-10 07:08:00,
2013-10-10 03:09:00,63.4,62.2,29.81,NNW,343,13.0,18.0,96,0.00,,---,0.00,VWS V14.01,2013-10-10 07:09:00,
2013-10-10 03:10:00,63.3,62.1,29.81,NW,323,10.0,18.0,96,0.00,,---,0.00,VWS V14.01,2013-10-10 07:10:00,
2013-10-10 03:11:00,63.3,62.1,29.81,NNW,342,12.0,16.0,96,0.00,,---,0.00,VWS V14.01,2013-10-10 07:11:00,
2013-10-10 03:12:00,63.3,62.1,29.81,NNW,337,11.0,16.0,96,0.00,,---,0.00,VWS V14.01,2013-10-10 07:12:00,
2013-10-10 03:13:00,63.3,62.1,29.81,NNW,343,13.0,16.0,96,0.00,,---,0.00,VWS V14.01,2013-10-10 07:13:00,
2013-10-10 03:14:00,63.3,62.1,29.81,North,355,11.0,18.0,96,0.00,,---,0.00,VWS V14.01,2013-10-10 07:14:00,
2013-10-10 03:15:00,63.4,62.2,29.81,NW,323,11.0,19.0,96,0.00,,---,0.00,VWS V14.01,2013-10-10 07:15:00,
2013-10-10 03:16:00,63.3,62.1,29.81,NNW,337,7.0,13.0,96,0.00,,---,0.00,VWS V14.01,2013-10-10 07:16:00,
2013-10-10 03:17:00,63.3,62.1,29.81,NW,316,10.0,13.0,96,0.00,,---,0.00,VWS V14.01,2013-10-10 07:17:00,
2013-10-10 03:18:00,63.3,62.1,29.81,North,360,13.0,18.0,96,0.00,,---,0.00,VWS V14.01,2013-10-10 07:18:00,
2013-10-10 03:19:00,63.3,62.1,29.81,NW,323,6.0,18.0,96,0.00,,---,0.00,VWS V14.01,2013-10-10 07:19:00,
2013-10-10 03:20:00,63.3,62.1,29.81,NNW,331,13.0,18.0,96,0.00,,---,0.00,VWS V14.01,2013-10-10 07:20:00,
2013-10-10 03:21:00,63.3,62.1,29.81,NNW,331,13.0,13.0,96,0.00,,---,0.00,VWS V14.01,2013-10-10 07:21:00,
2013-10-10 03:22:00,63.3,62.1,29.81,NNW,331,13.0,13.0,96,0.00,,---,0.00,VWS V14.01,2013-10-10 07:22:00,
2013-10-10 03:23:00,63.3,62.1,29.81,NNW,331,13.0,13.0,96,0.00,,---,0.00,VWS V14.01,2013-10-10 07:23:00,
2013-10-10 03:24:00,63.3,62.1,29.81,NNW,331,13.0,13.0,96,0.00,,---,0.00,VWS V14.01,2013-10-10 07:24:00,
2013-10-10 03:25:00,63.3,62.1,29.81,NNW,331,13.0,13.0,96,0.00,,---,0.00,VWS V14.01,2013-10-10 07:25:00,
2013-10-10 03:26:00,63.3,62.1,29.81,NNW,331,13.0,13.0,96,0.00,,---,0.00,VWS V14.01,2013-10-10 07:26:00,
2013-10-10 03:27:00,63.2,62.0,29.81,NNW,336,7.0,14.0,96,0.00,,---,0.00,VWS V14.01,2013-10-10 07:27:00,
2013-10-10 03:28:00,63.2,62.0,29.81,NNW,331,13.0,18.0,96,0.00,,---,0.00,VWS V14.01,2013-10-10 07:28:00,
2013-10-10 03:29:00,63.2,62.0,29.81,NW,321,9.0,18.0,96,0.00,,---,0.00,VWS V14.01,2013-10-10 07:29:00,
2013-10-10 03:30:00,63.2,62.0,29.81,NW,316,9.0,18.0,96,0.00,,---,0.00,VWS V14.01,2013-10-10 07:30:00,
2013-10-10 03:31:00,63.1,61.9,29.81,NNW,336,11.0,15.0,96,0.00,,---,0.00,VWS V14.01,2013-10-10 07:31:00,
2013-10-10 03:32:00,63.1,61.9,29.81,NNW,342,17.0,17.0,96,0.00,,---,0.00,VWS V14.01,2013-10-10 07:32:00,
2013-10-10 03:33:00,63.2,62.0,29.81,NNW,338,7.0,17.0,96,0.00,,---,0.00,VWS V14.01,2013-10-10 07:33:00,
2013-10-10 03:34:00,63.2,62.0,29.81,NW,311,9.0,17.0,96,0.00,,---,0.00,VWS V14.01,2013-10-10 07:34:00,
2013-10-10 03:35:00,63.2,62.0,29.81,NNW,336,15.0,17.0,96,0.00,,---,0.00,VWS V14.01,2013-10-10 07:35:00,
2013-10-10 03:36:00,63.2,62.0,29.81,NNW,348,11.0,15.0,96,0.00,,---,0.00,VWS V14.01,2013-10-10 07:36:00,
2013-10-10 03:37:00,63.2,62.0,29.81,NNW,347,11.0,16.0,96,0.00,,---,0.00,VWS V14.01,2013-10-10 07:37:00,
2013-10-10 03:38:00,63.1,61.9,29.81,North,355,13.0,19.0,96,0.00,,---,0.00,VWS V14.01,2013-10-10 07:38:00,
2013-10-10 03:39:00,63.1,61.9,29.81,NNW,335,10.0,19.0,96,0.00,,---,0.00,VWS V14.01,2013-10-10 07:39:00,
2013-10-10 03:40:00,63.1,61.9,29.81,NNW,335,7.0,19.0,96,0.00,,---,0.00,VWS V14.01,2013-10-10 07:40:00,
2013-10-10 03:41:00,63.1,61.9,29.81,NNW,336,13.0,14.0,96,0.00,,---,0.00,VWS V14.01,2013-10-10 07:41:00,
2013-10-10 03:42:00,63.1,61.9,29.81,NNW,339,10.0,14.0,96,0.00,,---,0.00,VWS V14.01,2013-10-10 07:42:00,
2013-10-10 03:43:00,63.1,61.9,29.81,NNW,339,11.0,14.0,96,0.00,,---,0.00,VWS V14.01,2013-10-10 07:43:00,
2013-10-10 03:44:00,63.2,62.0,29.81,North,349,14.0,14.0,96,0.00,,---,0.00,VWS V14.01,2013-10-10 07:44:00,
2013-10-10 03:45:00,63.2,62.0,29.81,NNW,333,18.0,18.0,96,0.00,,---,0.00,VWS V14.01,2013-10-10 07:45:00,
2013-10-10 03:46:00,63.1,61.9,29.81,NNW,336,10.0,18.0,96,0.00,,---,0.00,VWS V14.01,2013-10-10 07:46:00,
2013-10-10 03:47:00,63.2,62.0,29.81,NNW,332,11.0,18.0,96,0.00,,---,0.00,VWS V14.01,2013-10-10 07:47:00,
2013-10-10 03:48:00,63.1,61.9,29.81,NNW,340,14.0,18.0,96,0.00,,---,0.00,VWS V14.01,2013-10-10 07:48:00,
2013-10-10 03:49:00,63.1,61.9,29.81,NNW,332,9.0,18.0,96,0.00,,---,0.00,VWS V14.01,2013-10-10 07:49:00,
2013-10-10 03:50:00,63.1,61.9,29.81,NNW,346,9.0,18.0,96,0.00,,---,0.00,VWS V14.01,2013-10-10 07:50:00,
2013-10-10 03:51:00,63.1,61.9,29.81,NW,316,12.0,14.0,96,0.00,,---,0.00,VWS V14.01,2013-10-10 07:51:00,
2013-10-10 03:52:00,63.1,61.9,29.81,North,355,10.0,14.0,96,0.00,,---,0.00,VWS V14.01,2013-10-10 07:52:00,
2013-10-10 03:53:00,63.2,62.0,29.81,NNW,327,13.0,15.0,96,0.00,,---,0.00,VWS V14.01,2013-10-10 07:53:00,
2013-10-10 03:54:00,63.2,62.0,29.81,NNW,327,10.0,15.0,96,0.00,,---,0.00,VWS V14.01,2013-10-10 07:54:00,
2013-10-10 03:55:00,63.1,61.9,29.81,NW,309,9.0,17.0,96,0.00,,---,0.00,VWS V14.01,2013-10-10 07:55:00,
2013-10-10 03:56:00,63.1,61.9,29.81,NNW,327,12.0,16.0,96,0.00,,---,0.00,VWS V14.01,2013-10-10 07:56:00,
2013-10-10 03:57:00,63.0,61.8,29.81,NW,319,9.0,17.0,96,0.00,,---,0.00,VWS V14.01,2013-10-10 07:57:00,
2013-10-10 03:58:00,63.0,61.8,29.81,NNW,338,12.0,17.0,96,0.00,,---,0.00,VWS V14.01,2013-10-10 07:58:00,
2013-10-10 03:59:00,63.0,61.8,29.81,NNW,337,10.0,17.0,96,0.00,,---,0.00,VWS V14.01,2013-10-10 07:59:00,
2013-10-10 04:00:00,63.0,61.8,29.81,NNW,333,14.0,17.0,96,0.00,,---,0.00,VWS V14.01,2013-10-10 08:00:00,
2013-10-10 04:01:00,63.0,61.8,29.81,NNW,337,13.0,14.0,96,0.00,,---,0.00,VWS V14.01,2013-10-10 08:01:00,
2013-10-10 04:02:00,63.0,61.8,29.81,NNW,337,13.0,14.0,96,0.00,,---,0.00,VWS V14.01,2013-10-10 08:02:00,
2013-10-10 04:03:00,63.0,61.8,29.81,North,355,7.0,14.0,96,0.00,,---,0.00,VWS V14.01,2013-10-10 08:03:00,
2013-10-10 04:04:00,63.0,61.8,29.81,NNW,330,6.0,14.0,96,0.00,,---,0.00,VWS V14.01,2013-10-10 08:04:00,
2013-10-10 04:05:00,63.0,61.8,29.81,NW,323,15.0,16.0,96,0.00,,---,0.00,VWS V14.01,2013-10-10 08:05:00,
2013-10-10 04:06:00,63.0,61.8,29.81,NNW,332,13.0,16.0,96,0.00,,---,0.00,VWS V14.01,2013-10-10 08:06:00,
2013-10-10 04:07:00,62.9,61.8,29.81,NW,318,9.0,16.0,96,0.00,,---,0.00,VWS V14.01,2013-10-10 08:07:00,
2013-10-10 04:08:00,63.0,61.8,29.81,NW,305,12.0,16.0,96,0.00,,---,0.00,VWS V14.01,2013-10-10 08:08:00,
2013-10-10 04:09:00,62.9,61.8,29.81,NW,325,11.0,16.0,96,0.00,,---,0.00,VWS V14.01,2013-10-10 08:09:00,
2013-10-10 04:10:00,62.9,61.8,29.81,NW,315,15.0,16.0,96,0.00,,---,0.00,VWS V14.01,2013-10-10 08:10:00,
2013-10-10 04:11:00,62.9,61.8,29.81,NNW,328,7.0,15.0,96,0.00,,---,0.00,VWS V14.01,2013-10-10 08:11:00,
2013-10-10 04:12:00,62.9,61.8,29.81,NNW,327,11.0,16.0,96,0.00,,---,0.00,VWS V14.01,2013-10-10 08:12:00,
2013-10-10 04:13:00,62.8,61.7,29.81,NNW,348,13.0,16.0,96,0.00,,---,0.00,VWS V14.01,2013-10-10 08:13:00,
2013-10-10 04:14:00,62.9,61.8,29.81,NNW,330,9.0,16.0,96,0.00,,---,0.00,VWS V14.01,2013-10-10 08:14:00,
2013-10-10 04:15:00,62.9,61.8,29.81,NNW,334,16.0,19.0,96,0.00,,---,0.00,VWS V14.01,2013-10-10 08:15:00,
2013-10-10 04:16:00,62.8,61.7,29.81,NW,322,11.0,18.0,96,0.00,,---,0.00,VWS V14.01,2013-10-10 08:16:00,
2013-10-10 04:17:00,62.8,61.7,29.81,NNW,329,11.0,18.0,96,0.00,,---,0.00,VWS V14.01,2013-10-10 08:17:00,
2013-10-10 04:18:00,62.8,61.7,29.81,NW,320,11.0,18.0,96,0.00,,---,0.00,VWS V14.01,2013-10-10 08:18:00,
2013-10-10 04:19:00,62.8,61.7,29.81,NW,310,14.0,18.0,96,0.00,,---,0.00,VWS V14.01,2013-10-10 08:19:00,
2013-10-10 04:20:00,62.7,61.5,29.81,NNW,341,13.0,18.0,96,0.00,,---,0.00,VWS V14.01,2013-10-10 08:20:00,
2013-10-10 04:21:00,62.8,61.7,29.81,NNW,331,11.0,18.0,96,0.00,,---,0.00,VWS V14.01,2013-10-10 08:21:00,
2013-10-10 04:22:00,62.7,61.5,29.81,NW,325,12.0,18.0,96,0.00,,---,0.00,VWS V14.01,2013-10-10 08:22:00,
2013-10-10 04:23:00,62.7,61.5,29.81,NW,325,12.0,18.0,96,0.00,,---,0.00,VWS V14.01,2013-10-10 08:23:00,
2013-10-10 04:24:00,62.7,61.5,29.81,NW,325,12.0,18.0,96,0.00,,---,0.00,VWS V14.01,2013-10-10 08:24:00,
2013-10-10 04:25:00,62.7,61.5,29.81,NW,325,12.0,18.0,96,0.00,,---,0.00,VWS V14.01,2013-10-10 08:25:00,
2013-10-10 04:26:00,62.7,61.5,29.81,NW,325,12.0,12.0,96,0.00,,---,0.00,VWS V14.01,2013-10-10 08:26:00,
2013-10-10 04:27:00,62.7,61.5,29.81,NNW,348,12.0,15.0,96,0.00,,---,0.00,VWS V14.01,2013-10-10 08:27:00,
2013-10-10 04:28:00,62.7,61.5,29.81,North,350,12.0,15.0,96,0.00,,---,0.00,VWS V14.01,2013-10-10 08:28:00,
2013-10-10 04:29:00,62.7,61.5,29.81,NNW,334,16.0,16.0,96,0.00,,---,0.00,VWS V14.01,2013-10-10 08:29:00,
2013-10-10 04:30:00,62.7,61.5,29.81,NW,324,16.0,18.0,96,0.00,,---,0.00,VWS V14.01,2013-10-10 08:30:00,
2013-10-10 04:31:00,62.7,61.5,29.81,NNW,331,12.0,17.0,96,0.00,,---,0.00,VWS V14.01,2013-10-10 08:31:00,
2013-10-10 04:32:00,62.7,61.5,29.81,NW,312,6.0,17.0,96,0.00,,---,0.00,VWS V14.01,2013-10-10 08:32:00,
2013-10-10 04:33:00,62.7,61.5,29.81,NW,320,8.0,17.0,96,0.00,,---,0.00,VWS V14.01,2013-10-10 08:33:00,
2013-10-10 04:34:00,62.7,61.5,29.81,NNW,327,10.0,17.0,96,0.00,,---,0.00,VWS V14.01,2013-10-10 08:34:00,
2013-10-10 04:35:00,62.7,61.5,29.81,NW,321,5.0,17.0,96,0.00,,---,0.00,VWS V14.01,2013-10-10 08:35:00,
2013-10-10 04:36:00,62.6,61.5,29.81,NNW,344,13.0,19.0,96,0.00,,---,0.00,VWS V14.01,2013-10-10 08:36:00,
2013-10-10 04:37:00,62.6,61.5,29.81,NNW,344,13.0,19.0,96,0.00,,---,0.00,VWS V14.01,2013-10-10 08:37:00,
2013-10-10 04:38:00,62.6,61.5,29.81,North,5,8.0,19.0,96,0.00,,---,0.00,VWS V14.01,2013-10-10 08:38:00,
2013-10-10 04:39:00,62.7,61.5,29.81,NNW,331,6.0,19.0,96,0.00,,---,0.00,VWS V14.01,2013-10-10 08:39:00,
2013-10-10 04:40:00,62.7,61.5,29.81,NNW,338,5.0,19.0,96,0.00,,---,0.00,VWS V14.01,2013-10-10 08:40:00,
2013-10-10 04:41:00,62.7,61.5,29.81,NW,324,11.0,16.0,96,0.00,,---,0.00,VWS V14.01,2013-10-10 08:41:00,
2013-10-10 04:42:00,62.7,61.5,29.81,WNW,298,6.0,16.0,96,0.00,,---,0.00,VWS V14.01,2013-10-10 08:42:00,
2013-10-10 04:43:00,62.7,61.5,29.81,NNW,340,12.0,17.0,96,0.00,,---,0.00,VWS V14.01,2013-10-10 08:43:00,
2013-10-10 04:44:00,62.7,61.5,29.81,NNW,336,14.0,17.0,96,0.00,,---,0.00,VWS V14.01,2013-10-10 08:44:00,
2013-10-10 04:45:00,62.6,61.5,29.81,NNW,336,6.0,17.0,96,0.00,,---,0.00,VWS V14.01,2013-10-10 08:45:00,
2013-10-10 04:46:00,62.6,61.5,29.81,WNW,289,16.0,16.0,96,0.00,,---,0.00,VWS V14.01,2013-10-10 08:46:00,
2013-10-10 04:47:00,62.5,61.3,29.81,NNW,339,13.0,20.0,96,0.00,,---,0.00,VWS V14.01,2013-10-10 08:47:00,
2013-10-10 04:48:00,62.5,61.3,29.81,NNW,333,10.0,20.0,96,0.00,,---,0.00,VWS V14.01,2013-10-10 08:48:00,
2013-10-10 04:49:00,62.5,61.3,29.81,NNW,327,10.0,20.0,96,0.00,,---,0.00,VWS V14.01,2013-10-10 08:49:00,
2013-10-10 04:50:00,62.5,61.3,29.81,NNW,331,11.0,20.0,96,0.00,,---,0.00,VWS V14.01,2013-10-10 08:50:00,
2013-10-10 04:51:00,62.5,61.3,29.81,NW,323,10.0,16.0,96,0.00,,---,0.00,VWS V14.01,2013-10-10 08:51:00,
2013-10-10 04:52:00,62.5,61.3,29.81,NW,306,12.0,16.0,96,0.00,,---,0.00,VWS V14.01,2013-10-10 08:52:00,
2013-10-10 04:53:00,62.5,61.3,29.81,NNW,336,9.0,16.0,96,0.00,,---,0.00,VWS V14.01,2013-10-10 08:53:00,
2013-10-10 04:54:00,62.5,61.3,29.81,NNW,336,11.0,16.0,96,0.00,,---,0.00,VWS V14.01,2013-10-10 08:54:00,
2013-10-10 04:55:00,62.5,61.3,29.81,NNW,336,10.0,19.0,96,0.00,,---,0.00,VWS V14.01,2013-10-10 08:55:00,
2013-10-10 04:56:00,62.5,61.3,29.81,NNW,333,3.0,10.0,96,0.00,,---,0.00,VWS V14.01,2013-10-10 08:56:00,
2013-10-10 04:57:00,62.5,61.3,29.81,NNW,333,8.0,12.0,96,0.00,,---,0.00,VWS V14.01,2013-10-10 08:57:00,
2013-10-10 04:58:00,62.5,61.3,29.81,NNW,337,7.0,15.0,96,0.00,,---,0.00,VWS V14.01,2013-10-10 08:58:00,
2013-10-10 04:59:00,62.5,61.3,29.81,NNW,328,12.0,15.0,96,0.00,,---,0.00,VWS V14.01,2013-10-10 08:59:00,
2013-10-10 05:00:00,62.5,61.3,29.81,North,360,13.0,15.0,96,0.00,,---,0.00,VWS V14.01,2013-10-10 09:00:00,
2013-10-10 05:01:00,62.5,61.3,29.81,NW,326,9.0,16.0,96,0.00,,---,0.00,VWS V14.01,2013-10-10 09:01:00,
2013-10-10 05:02:00,62.6,61.5,29.81,NNW,338,13.0,18.0,96,0.00,,---,0.00,VWS V14.01,2013-10-10 09:02:00,
2013-10-10 05:03:00,62.6,61.5,29.81,NW,322,11.0,18.0,96,0.00,,---,0.00,VWS V14.01,2013-10-10 09:03:00,
2013-10-10 05:04:00,62.5,61.3,29.81,NNW,335,11.0,18.0,96,0.00,,---,0.00,VWS V14.01,2013-10-10 09:04:00,
2013-10-10 05:05:00,62.5,61.3,29.81,NNW,335,11.0,18.0,96,0.00,,---,0.00,VWS V14.01,2013-10-10 09:05:00,
2013-10-10 05:06:00,62.5,61.3,29.81,NNW,330,16.0,16.0,96,0.00,,---,0.00,VWS V14.01,2013-10-10 09:06:00,
2013-10-10 05:07:00,62.4,61.2,29.81,North,10,14.0,16.0,96,0.00,,---,0.00,VWS V14.01,2013-10-10 09:07:00,
2013-10-10 05:08:00,62.4,61.2,29.81,NW,325,9.0,16.0,96,0.00,,---,0.00,VWS V14.01,2013-10-10 09:08:00,
2013-10-10 05:09:00,62.5,61.3,29.81,NW,316,9.0,16.0,96,0.00,,---,0.00,VWS V14.01,2013-10-10 09:09:00,
2013-10-10 05:10:00,62.4,61.2,29.81,NW,319,9.0,16.0,96,0.00,,---,0.00,VWS V14.01,2013-10-10 09:10:00,
2013-10-10 05:11:00,62.5,61.3,29.81,NNW,334,9.0,14.0,96,0.00,,---,0.00,VWS V14.01,2013-10-10 09:11:00,
2013-10-10 05:12:00,62.4,61.2,29.81,NNW,340,11.0,18.0,96,0.00,,---,0.00,VWS V14.01,2013-10-10 09:12:00,
2013-10-10 05:13:00,62.4,61.2,29.81,NW,306,11.0,18.0,96,0.00,,---,0.00,VWS V14.01,2013-10-10 09:13:00,
2013-10-10 05:14:00,62.4,61.2,29.81,NNW,341,13.0,18.0,96,0.00,,---,0.00,VWS V14.01,2013-10-10 09:14:00,
2013-10-10 05:15:00,62.4,61.2,29.81,NW,323,6.0,20.0,96,0.00,,---,0.00,VWS V14.01,2013-10-10 09:15:00,
2013-10-10 05:16:00,62.5,61.3,29.81,NW,317,11.0,14.0,96,0.00,,---,0.00,VWS V14.01,2013-10-10 09:16:00,
2013-10-10 05:17:00,62.4,61.2,29.81,NNW,333,9.0,14.0,96,0.00,,---,0.00,VWS V14.01,2013-10-10 09:17:00,
2013-10-10 05:18:00,62.4,61.2,29.81,NW,321,10.0,16.0,96,0.00,,---,0.00,VWS V14.01,2013-10-10 09:18:00,
2013-10-10 05:19:00,62.4,61.2,29.81,NW,323,10.0,16.0,96,0.00,,---,0.00,VWS V14.01,2013-10-10 09:19:00,
2013-10-10 05:20:00,62.4,61.2,29.81,NW,325,11.0,17.0,96,0.00,,---,0.00,VWS V14.01,2013-10-10 09:20:00,
2013-10-10 05:21:00,62.4,61.2,29.81,NNW,345,11.0,18.0,96,0.00,,---,0.00,VWS V14.01,2013-10-10 09:21:00,
2013-10-10 05:22:00,62.5,61.3,29.81,NNW,341,9.0,18.0,96,0.00,,---,0.00,VWS V14.01,2013-10-10 09:22:00,
2013-10-10 05:23:00,62.5,61.3,29.81,NW,325,10.0,18.0,96,0.00,,---,0.00,VWS V14.01,2013-10-10 09:23:00,
2013-10-10 05:24:00,62.5,61.3,29.81,NNW,337,6.0,18.0,96,0.00,,---,0.00,VWS V14.01,2013-10-10 09:24:00,
2013-10-10 05:25:00,62.5,61.3,29.81,NW,324,14.0,18.0,96,0.00,,---,0.00,VWS V14.01,2013-10-10 09:25:00,
2013-10-10 05:26:00,62.5,61.3,29.81,NNW,334,16.0,16.0,96,0.00,,---,0.00,VWS V14.01,2013-10-10 09:26:00,
2013-10-10 05:27:00,62.5,61.3,29.81,NW,326,10.0,16.0,96,0.00,,---,0.00,VWS V14.01,2013-10-10 09:27:00,
2013-10-10 05:28:00,62.5,61.3,29.81,NW,322,13.0,16.0,96,0.00,,---,0.00,VWS V14.01,2013-10-10 09:28:00,
2013-10-10 05:29:00,62.5,61.3,29.81,NNW,331,8.0,16.0,96,0.00,,---,0.00,VWS V14.01,2013-10-10 09:29:00,
2013-10-10 05:30:00,62.5,61.3,29.81,NNW,327,11.0,16.0,96,0.00,,---,0.00,VWS V14.01,2013-10-10 09:30:00,
2013-10-10 05:31:00,62.4,61.2,29.81,North,350,9.0,14.0,96,0.00,,---,0.00,VWS V14.01,2013-10-10 09:31:00,
2013-10-10 05:32:00,62.5,61.3,29.81,NNW,340,10.0,14.0,96,0.00,,---,0.00,VWS V14.01,2013-10-10 09:32:00,
2013-10-10 05:33:00,62.5,61.3,29.81,NNW,330,10.0,17.0,96,0.00,,---,0.00,VWS V14.01,2013-10-10 09:33:00,
2013-10-10 05:34:00,62.5,61.3,29.81,NW,325,6.0,17.0,96,0.00,,---,0.00,VWS V14.01,2013-10-10 09:34:00,
2013-10-10 05:35:00,62.5,61.3,29.81,NNW,336,10.0,17.0,96,0.00,,---,0.00,VWS V14.01,2013-10-10 09:35:00,
2013-10-10 05:36:00,62.5,61.3,29.81,NW,325,6.0,14.0,96,0.00,,---,0.00,VWS V14.01,2013-10-10 09:36:00,
2013-10-10 05:37:00,62.5,61.3,29.81,NNW,330,8.0,14.0,96,0.00,,---,0.00,VWS V14.01,2013-10-10 09:37:00,
2013-10-10 05:38:00,62.4,61.2,29.81,NNW,342,8.0,16.0,96,0.00,,---,0.00,VWS V14.01,2013-10-10 09:38:00,
2013-10-10 05:39:00,62.4,61.2,29.81,NNW,332,10.0,16.0,96,0.00,,---,0.00,VWS V14.01,2013-10-10 09:39:00,
2013-10-10 05:40:00,62.5,61.3,29.81,NNW,328,13.0,16.0,96,0.00,,---,0.00,VWS V14.01,2013-10-10 09:40:00,
2013-10-10 05:41:00,62.5,61.3,29.81,NNW,347,6.0,13.0,96,0.00,,---,0.00,VWS V14.01,2013-10-10 09:41:00,
2013-10-10 05:42:00,62.5,61.3,29.81,NW,312,11.0,13.0,96,0.00,,---,0.00,VWS V14.01,2013-10-10 09:42:00,
2013-10-10 05:43:00,62.5,61.3,29.81,NW,313,12.0,13.0,96,0.00,,---,0.00,VWS V14.01,2013-10-10 09:43:00,
2013-10-10 05:44:00,62.4,61.2,29.81,NW,315,9.0,13.0,96,0.00,,---,0.00,VWS V14.01,2013-10-10 09:44:00,
2013-10-10 05:45:00,62.4,61.2,29.81,NNW,339,11.0,15.0,96,0.00,,---,0.00,VWS V14.01,2013-10-10 09:45:00,
2013-10-10 05:46:00,62.4,61.2,29.81,NNW,331,7.0,12.0,96,0.00,,---,0.00,VWS V14.01,2013-10-10 09:46:00,
2013-10-10 05:47:00,62.4,61.2,29.81,WNW,301,5.0,12.0,96,0.00,,---,0.00,VWS V14.01,2013-10-10 09:47:00,
2013-10-10 05:48:00,62.4,61.2,29.81,NNW,331,5.0,12.0,96,0.00,,---,0.00,VWS V14.01,2013-10-10 09:48:00,
2013-10-10 05:49:00,62.4,61.2,29.81,NNW,331,7.0,12.0,96,0.00,,---,0.00,VWS V14.01,2013-10-10 09:49:00,
2013-10-10 05:50:00,62.4,61.2,29.81,NW,305,6.0,12.0,96,0.00,,---,0.00,VWS V14.01,2013-10-10 09:50:00,
2013-10-10 05:51:00,62.4,61.2,29.81,ENE,65,12.0,12.0,96,0.00,,---,0.00,VWS V14.01,2013-10-10 09:51:00,
2013-10-10 05:52:00,62.5,61.3,29.81,NW,319,6.0,16.0,96,0.00,,---,0.00,VWS V14.01,2013-10-10 09:52:00,
2013-10-10 05:53:00,62.4,61.2,29.81,NNW,334,10.0,16.0,96,0.00,,---,0.00,VWS V14.01,2013-10-10 09:53:00,
2013-10-10 05:54:00,62.4,61.2,29.81,NW,318,11.0,16.0,96,0.00,,---,0.00,VWS V14.01,2013-10-10 09:54:00,
2013-10-10 05:55:00,62.4,61.2,29.81,NNW,332,4.0,16.0,96,0.00,,---,0.00,VWS V14.01,2013-10-10 09:55:00,
2013-10-10 05:56:00,62.4,61.2,29.81,NW,310,10.0,11.0,96,0.00,,---,0.00,VWS V14.01,2013-10-10 09:56:00,
2013-10-10 05:57:00,62.4,61.2,29.81,NW,321,10.0,17.0,96,0.00,,---,0.00,VWS V14.01,2013-10-10 09:57:00,
2013-10-10 05:58:00,62.3,61.2,29.81,WNW,300,7.0,17.0,96,0.00,,---,0.00,VWS V14.01,2013-10-10 09:58:00,
2013-10-10 05:59:00,62.3,61.2,29.81,NW,325,8.0,17.0,96,0.00,,---,0.00,VWS V14.01,2013-10-10 09:59:00,
2013-10-10 06:00:00,62.3,61.2,29.82,NNW,331,12.0,17.0,96,0.00,,---,0.00,VWS V14.01,2013-10-10 10:00:00,
2013-10-10 06:01:00,62.3,61.2,29.82,NNW,328,7.0,13.0,96,0.00,,---,0.00,VWS V14.01,2013-10-10 10:01:00,
2013-10-10 06:02:00,62.3,61.2,29.82,NW,317,6.0,13.0,96,0.00,,---,0.00,VWS V14.01,2013-10-10 10:02:00,
2013-10-10 06:03:00,62.3,61.2,29.82,NNW,329,4.0,13.0,96,0.00,,---,0.00,VWS V14.01,2013-10-10 10:03:00,
2013-10-10 06:04:00,62.3,61.2,29.82,NNW,331,6.0,13.0,96,0.00,,---,0.00,VWS V14.01,2013-10-10 10:04:00,
2013-10-10 06:05:00,62.3,61.2,29.82,NNW,329,5.0,13.0,96,0.00,,---,0.00,VWS V14.01,2013-10-10 10:05:00,
2013-10-10 06:06:00,62.3,61.2,29.82,NW,310,6.0,10.0,96,0.00,,---,0.00,VWS V14.01,2013-10-10 10:06:00,
2013-10-10 06:07:00,62.3,61.2,29.82,WNW,290,10.0,12.0,96,0.00,,---,0.00,VWS V14.01,2013-10-10 10:07:00,
2013-10-10 06:08:00,62.3,61.2,29.82,WNW,293,12.0,13.0,96,0.00,,---,0.00,VWS V14.01,2013-10-10 10:08:00,
2013-10-10 06:09:00,62.3,61.2,29.82,WNW,290,10.0,13.0,96,0.00,,---,0.00,VWS V14.01,2013-10-10 10:09:00,
2013-10-10 06:10:00,62.3,61.2,29.82,NNW,328,6.0,13.0,96,0.00,,---,0.00,VWS V14.01,2013-10-10 10:10:00,
2013-10-10 06:11:00,62.3,61.2,29.82,WNW,297,12.0,12.0,96,0.00,,---,0.00,VWS V14.01,2013-10-10 10:11:00,
2013-10-10 06:12:00,62.3,61.2,29.82,NW,323,12.0,14.0,96,0.00,,---,0.00,VWS V14.01,2013-10-10 10:12:00,
2013-10-10 06:13:00,62.3,61.2,29.82,NW,304,7.0,14.0,96,0.00,,---,0.00,VWS V14.01,2013-10-10 10:13:00,
2013-10-10 06:14:00,62.3,61.2,29.82,NW,306,10.0,14.0,96,0.00,,---,0.00,VWS V14.01,2013-10-10 10:14:00,
2013-10-10 06:15:00,62.3,61.2,29.82,WNW,292,8.0,14.0,96,0.00,,---,0.00,VWS V14.01,2013-10-10 10:15:00,
2013-10-10 06:16:00,62.3,61.2,29.82,WNW,299,10.0,12.0,96,0.00,,---,0.00,VWS V14.01,2013-10-10 10:16:00,
2013-10-10 06:17:00,62.3,61.2,29.82,WNW,290,8.0,12.0,96,0.00,,---,0.00,VWS V14.01,2013-10-10 10:17:00,
2013-10-10 06:18:00,62.2,61.0,29.82,NNW,333,5.0,12.0,96,0.00,,---,0.00,VWS V14.01,2013-10-10 10:18:00,
2013-10-10 06:19:00,62.2,61.0,29.82,NW,321,6.0,12.0,96,0.00,,---,0.00,VWS V14.01,2013-10-10 10:19:00,
2013-10-10 06:20:00,62.2,61.0,29.82,NW,307,8.0,13.0,96,0.00,,---,0.00,VWS V14.01,2013-10-10 10:20:00,
2013-10-10 06:21:00,62.2,61.0,29.82,NW,306,6.0,12.0,96,0.00,,---,0.00,VWS V14.01,2013-10-10 10:21:00,
2013-10-10 06:22:00,62.2,61.0,29.82,NW,316,5.0,12.0,96,0.00,,---,0.00,VWS V14.01,2013-10-10 10:22:00,
2013-10-10 06:23:00,62.2,61.0,29.82,NW,312,14.0,15.0,96,0.00,,---,0.00,VWS V14.01,2013-10-10 10:23:00,
2013-10-10 06:24:00,62.2,61.0,29.82,NNW,327,9.0,15.0,96,0.00,,---,0.00,VWS V14.01,2013-10-10 10:24:00,
2013-10-10 06:25:00,62.2,61.0,29.82,NNW,338,12.0,15.0,96,0.00,,---,0.00,VWS V14.01,2013-10-10 10:25:00,
2013-10-10 06:26:00,62.2,61.0,29.82,WNW,289,5.0,12.0,96,0.00,,---,0.00,VWS V14.01,2013-10-10 10:26:00,
2013-10-10 06:27:00,62.2,61.0,29.82,WNW,292,11.0,15.0,96,0.00,,---,0.00,VWS V14.01,2013-10-10 10:27:00,
2013-10-10 06:28:00,62.2,61.0,29.82,NNW,331,11.0,15.0,96,0.00,,---,0.00,VWS V14.01,2013-10-10 10:28:00,
2013-10-10 06:29:00,62.2,61.0,29.82,NW,325,7.0,15.0,96,0.00,,---,0.00,VWS V14.01,2013-10-10 10:29:00,
2013-10-10 06:30:00,62.2,61.0,29.83,NNW,334,13.0,15.0,96,0.00,,---,0.00,VWS V14.01,2013-10-10 10:30:00,
2013-10-10 06:31:00,62.2,61.0,29.83,NW,306,9.0,12.0,96,0.00,,---,0.00,VWS V14.01,2013-10-10 10:31:00,
2013-10-10 06:32:00,62.2,61.0,29.83,NW,315,4.0,12.0,96,0.00,,---,0.00,VWS V14.01,2013-10-10 10:32:00,
2013-10-10 06:33:00,62.2,61.0,29.83,NW,319,7.0,12.0,96,0.00,,---,0.00,VWS V14.01,2013-10-10 10:33:00,
2013-10-10 06:34:00,62.2,61.0,29.83,NNW,329,9.0,12.0,96,0.00,,---,0.00,VWS V14.01,2013-10-10 10:34:00,
2013-10-10 06:35:00,62.2,61.0,29.83,NNW,329,11.0,15.0,96,0.00,,---,0.00,VWS V14.01,2013-10-10 10:35:00,
2013-10-10 06:36:00,62.2,61.0,29.83,NW,310,7.0,11.0,96,0.00,,---,0.00,VWS V14.01,2013-10-10 10:36:00,
2013-10-10 06:37:00,62.2,61.0,29.83,NW,317,9.0,13.0,96,0.00,,---,0.00,VWS V14.01,2013-10-10 10:37:00,
2013-10-10 06:38:00,62.2,61.0,29.83,NW,313,12.0,14.0,96,0.00,,---,0.00,VWS V14.01,2013-10-10 10:38:00,
2013-10-10 06:39:00,62.2,61.0,29.83,NW,310,14.0,17.0,96,0.00,,---,0.00,VWS V14.01,2013-10-10 10:39:00,
2013-10-10 06:40:00,62.2,61.0,29.83,NNW,338,10.0,17.0,96,0.00,,---,0.00,VWS V14.01,2013-10-10 10:40:00,
2013-10-10 06:41:00,62.2,61.0,29.83,NW,317,9.0,11.0,96,0.00,,---,0.00,VWS V14.01,2013-10-10 10:41:00,
2013-10-10 06:42:00,62.2,61.0,29.83,NNW,332,7.0,11.0,96,0.00,,---,0.00,VWS V14.01,2013-10-10 10:42:00,
2013-10-10 06:43:00,62.2,61.0,29.83,NW,317,12.0,14.0,96,0.00,,---,0.00,VWS V14.01,2013-10-10 10:43:00,
2013-10-10 06:44:00,62.2,61.0,29.83,NNW,329,11.0,14.0,96,0.00,,---,0.00,VWS V14.01,2013-10-10 10:44:00,
2013-10-10 06:45:00,62.2,61.0,29.82,NNW,337,7.0,14.0,96,0.00,,---,0.00,VWS V14.01,2013-10-10 10:45:00,
2013-10-10 06:46:00,62.3,61.2,29.82,NW,321,6.0,17.0,96,0.00,,---,0.00,VWS V14.01,2013-10-10 10:46:00,
2013-10-10 06:47:00,62.3,61.2,29.82,NW,313,9.0,17.0,96,0.00,,---,0.00,VWS V14.01,2013-10-10 10:47:00,
2013-10-10 06:48:00,62.3,61.2,29.82,NW,317,9.0,17.0,96,0.00,,---,0.00,VWS V14.01,2013-10-10 10:48:00,
2013-10-10 06:49:00,62.3,61.2,29.82,NW,318,10.0,17.0,96,0.00,,---,0.00,VWS V14.01,2013-10-10 10:49:00,
2013-10-10 06:50:00,62.3,61.2,29.82,NW,318,10.0,17.0,96,0.00,,---,0.00,VWS V14.01,2013-10-10 10:50:00,
2013-10-10 06:51:00,62.3,61.2,29.82,NW,318,10.0,10.0,96,0.00,,---,0.00,VWS V14.01,2013-10-10 10:51:00,
2013-10-10 06:52:00,62.3,61.2,29.82,NW,318,10.0,10.0,96,0.00,,---,0.00,VWS V14.01,2013-10-10 10:52:00,
2013-10-10 06:53:00,62.2,61.0,29.82,NW,311,5.0,11.0,96,0.00,,---,0.00,VWS V14.01,2013-10-10 10:53:00,
2013-10-10 06:54:00,62.2,61.0,29.82,NNW,338,11.0,13.0,96,0.00,,---,0.00,VWS V14.01,2013-10-10 10:54:00,
2013-10-10 06:55:00,62.2,61.0,29.82,NNW,327,6.0,14.0,96,0.00,,---,0.00,VWS V14.01,2013-10-10 10:55:00,
2013-10-10 06:56:00,62.2,61.0,29.82,NW,309,6.0,10.0,96,0.00,,---,0.00,VWS V14.01,2013-10-10 10:56:00,
2013-10-10 06:57:00,62.1,61.0,29.82,NW,307,17.0,17.0,96,0.00,,---,0.00,VWS V14.01,2013-10-10 10:57:00,
2013-10-10 06:58:00,62.1,61.0,29.82,NW,307,10.0,17.0,96,0.00,,---,0.00,VWS V14.01,2013-10-10 10:58:00,
2013-10-10 06:59:00,62.1,61.0,29.82,NW,321,6.0,17.0,96,0.00,,---,0.00,VWS V14.01,2013-10-10 10:59:00,
2013-10-10 07:00:00,62.1,61.0,29.82,NW,323,6.0,17.0,96,0.00,,---,0.00,VWS V14.01,2013-10-10 11:00:00,
2013-10-10 07:01:00,62.1,61.0,29.82,NNW,333,11.0,13.0,96,0.00,,---,0.00,VWS V14.01,2013-10-10 11:01:00,
2013-10-10 07:02:00,62.1,61.0,29.82,NW,315,6.0,15.0,96,0.00,,---,0.00,VWS V14.01,2013-10-10 11:02:00,
2013-10-10 07:03:00,62.1,61.0,29.82,NW,315,5.0,15.0,96,0.00,,---,0.00,VWS V14.01,2013-10-10 11:03:00,
2013-10-10 07:04:00,62.0,60.8,29.82,NW,324,6.0,18.0,96,0.00,,---,0.00,VWS V14.01,2013-10-10 11:04:00,
2013-10-10 07:05:00,62.0,60.8,29.82,NNW,329,10.0,18.0,96,0.00,,---,0.00,VWS V14.01,2013-10-10 11:05:00,
2013-10-10 07:06:00,62.0,60.8,29.82,NNW,342,11.0,14.0,96,0.00,,---,0.00,VWS V14.01,2013-10-10 11:06:00,
2013-10-10 07:07:00,62.0,60.8,29.82,NNW,327,11.0,14.0,96,0.00,,---,0.00,VWS V14.01,2013-10-10 11:07:00,
2013-10-10 07:08:00,62.0,60.8,29.82,NW,320,9.0,14.0,96,0.00,,---,0.00,VWS V14.01,2013-10-10 11:08:00,
2013-10-10 07:09:00,62.0,60.8,29.82,WNW,296,7.0,15.0,96,0.00,,---,0.00,VWS V14.01,2013-10-10 11:09:00,
2013-10-10 07:10:00,62.0,60.8,29.82,NW,325,7.0,15.0,96,0.00,,---,0.00,VWS V14.01,2013-10-10 11:10:00,
2013-10-10 07:11:00,62.0,60.8,29.82,NW,321,10.0,11.0,96,0.00,,---,0.00,VWS V14.01,2013-10-10 11:11:00,
2013-10-10 07:12:00,62.0,60.8,29.82,NW,310,7.0,14.0,96,0.00,,---,0.00,VWS V14.01,2013-10-10 11:12:00,
2013-10-10 07:13:00,61.9,60.8,29.82,WNW,302,6.0,14.0,96,0.00,,---,0.00,VWS V14.01,2013-10-10 11:13:00,
2013-10-10 07:14:00,61.9,60.8,29.82,NNW,331,7.0,14.0,96,0.00,,---,0.00,VWS V14.01,2013-10-10 11:14:00,
2013-10-10 07:15:00,62.0,60.8,29.83,NW,311,10.0,14.0,96,0.00,,---,0.00,VWS V14.01,2013-10-10 11:15:00,
2013-10-10 07:16:00,61.9,60.8,29.83,NW,317,4.0,12.0,96,0.00,,---,0.00,VWS V14.01,2013-10-10 11:16:00,
2013-10-10 07:17:00,62.0,60.8,29.83,NW,315,11.0,12.0,96,0.00,,---,0.00,VWS V14.01,2013-10-10 11:17:00,
2013-10-10 07:18:00,62.0,60.8,29.83,WNW,294,6.0,13.0,96,0.00,,---,0.00,VWS V14.01,2013-10-10 11:18:00,
2013-10-10 07:19:00,62.0,60.8,29.83,NW,326,9.0,15.0,96,0.00,,---,0.00,VWS V14.01,2013-10-10 11:19:00,
2013-10-10 07:20:00,61.9,60.8,29.83,NW,304,6.0,15.0,96,0.00,,---,0.00,VWS V14.01,2013-10-10 11:20:00,
2013-10-10 07:21:00,61.9,60.8,29.83,NW,309,6.0,11.0,96,0.00,,---,0.00,VWS V14.01,2013-10-10 11:21:00,
2013-10-10 07:22:00,61.9,60.8,29.83,NNW,333,15.0,15.0,96,0.00,,---,0.00,VWS V14.01,2013-10-10 11:22:00,
2013-10-10 07:23:00,61.9,60.8,29.83,NW,322,13.0,15.0,96,0.00,,---,0.00,VWS V14.01,2013-10-10 11:23:00,
2013-10-10 07:24:00,61.9,60.8,29.83,NW,325,9.0,16.0,96,0.00,,---,0.00,VWS V14.01,2013-10-10 11:24:00,
2013-10-10 07:25:00,61.9,60.8,29.83,NNW,340,13.0,16.0,96,0.00,,---,0.00,VWS V14.01,2013-10-10 11:25:00,
2013-10-10 07:26:00,61.9,60.8,29.83,NW,317,12.0,14.0,96,0.00,,---,0.00,VWS V14.01,2013-10-10 11:26:00,
2013-10-10 07:27:00,61.9,60.8,29.83,NW,307,7.0,14.0,96,0.00,,---,0.00,VWS V14.01,2013-10-10 11:27:00,
2013-10-10 07:28:00,61.8,60.7,29.83,NW,320,5.0,14.0,96,0.00,,---,0.00,VWS V14.01,2013-10-10 11:28:00,
2013-10-10 07:29:00,61.8,60.7,29.83,NW,307,11.0,14.0,96,0.00,,---,0.00,VWS V14.01,2013-10-10 11:29:00,
2013-10-10 07:30:00,61.8,60.7,29.83,NW,325,11.0,14.0,96,0.00,,---,0.00,VWS V14.01,2013-10-10 11:30:00,
2013-10-10 07:31:00,61.8,60.7,29.83,NW,325,11.0,11.0,96,0.00,,---,0.00,VWS V14.01,2013-10-10 11:31:00,
2013-10-10 07:32:00,61.8,60.7,29.83,NW,325,11.0,11.0,96,0.00,,---,0.00,VWS V14.01,2013-10-10 11:32:00,
2013-10-10 07:33:00,61.8,60.7,29.83,NW,325,11.0,11.0,96,0.00,,---,0.00,VWS V14.01,2013-10-10 11:33:00,
2013-10-10 07:34:00,61.8,60.7,29.83,NW,325,11.0,11.0,96,0.00,,---,0.00,VWS V14.01,2013-10-10 11:34:00,
2013-10-10 07:35:00,61.8,60.7,29.83,NW,325,11.0,11.0,96,0.00,,---,0.00,VWS V14.01,2013-10-10 11:35:00,
2013-10-10 07:36:00,61.8,60.7,29.83,NW,304,9.0,11.0,96,0.00,,---,0.00,VWS V14.01,2013-10-10 11:36:00,
2013-10-10 07:37:00,61.8,60.7,29.83,NW,312,5.0,11.0,96,0.00,,---,0.00,VWS V14.01,2013-10-10 11:37:00,
2013-10-10 07:38:00,61.8,60.7,29.83,NNW,335,10.0,11.0,96,0.00,,---,0.00,VWS V14.01,2013-10-10 11:38:00,
2013-10-10 07:39:00,61.8,60.7,29.83,NW,307,4.0,11.0,96,0.00,,---,0.00,VWS V14.01,2013-10-10 11:39:00,
2013-10-10 07:40:00,61.8,60.7,29.83,NW,306,8.0,8.0,96,0.00,,---,0.00,VWS V14.01,2013-10-10 11:40:00,
2013-10-10 07:41:00,61.7,60.5,29.83,NW,308,5.0,12.0,96,0.00,,---,0.00,VWS V14.01,2013-10-10 11:41:00,
2013-10-10 07:42:00,61.7,60.5,29.83,NNW,333,6.0,12.0,96,0.00,,---,0.00,VWS V14.01,2013-10-10 11:42:00,
2013-10-10 07:43:00,61.7,60.5,29.83,NW,319,5.0,12.0,96,0.00,,---,0.00,VWS V14.01,2013-10-10 11:43:00,
2013-10-10 07:44:00,61.7,60.5,29.83,NNW,334,9.0,12.0,96,0.00,,---,0.00,VWS V14.01,2013-10-10 11:44:00,
2013-10-10 07:45:00,61.7,60.5,29.84,NNW,332,10.0,12.0,96,0.00,,---,0.00,VWS V14.01,2013-10-10 11:45:00,
2013-10-10 07:46:00,61.7,60.5,29.84,WNW,297,6.0,15.0,96,0.00,,---,0.00,VWS V14.01,2013-10-10 11:46:00,
2013-10-10 07:47:00,61.7,60.5,29.84,NW,313,12.0,15.0,96,0.00,,---,0.00,VWS V14.01,2013-10-10 11:47:00,
2013-10-10 07:48:00,61.7,60.5,29.84,NNW,331,13.0,15.0,96,0.00,,---,0.00,VWS V14.01,2013-10-10 11:48:00,
2013-10-10 07:49:00,61.7,60.5,29.84,NW,309,9.0,15.0,96,0.00,,---,0.00,VWS V14.01,2013-10-10 11:49:00,
2013-10-10 07:50:00,61.7,60.5,29.84,NW,314,10.0,15.0,96,0.00,,---,0.00,VWS V14.01,2013-10-10 11:50:00,
2013-10-10 07:51:00,61.6,60.5,29.84,NW,316,12.0,16.0,96,0.00,,---,0.00,VWS V14.01,2013-10-10 11:51:00,
2013-10-10 07:52:00,61.6,60.5,29.84,NNW,328,10.0,16.0,96,0.00,,---,0.00,VWS V14.01,2013-10-10 11:52:00,
2013-10-10 07:53:00,61.6,60.5,29.84,NW,324,5.0,16.0,96,0.00,,---,0.00,VWS V14.01,2013-10-10 11:53:00,
2013-10-10 07:54:00,61.6,60.5,29.84,WNW,294,10.0,16.0,96,0.00,,---,0.00,VWS V14.01,2013-10-10 11:54:00,
2013-10-10 07:55:00,61.5,60.3,29.84,NNW,334,7.0,16.0,96,0.00,,---,0.00,VWS V14.01,2013-10-10 11:55:00,
2013-10-10 07:56:00,61.5,60.3,29.84,NW,314,6.0,12.0,96,0.00,,---,0.00,VWS V14.01,2013-10-10 11:56:00,
2013-10-10 07:57:00,61.5,60.3,29.84,NW,325,6.0,12.0,96,0.00,,---,0.00,VWS V14.01,2013-10-10 11:57:00,
2013-10-10 07:58:00,61.5,60.3,29.84,NW,306,8.0,12.0,96,0.00,,---,0.00,VWS V14.01,2013-10-10 11:58:00,
2013-10-10 07:59:00,61.6,60.5,29.84,NNW,327,5.0,12.0,96,0.00,,---,0.00,VWS V14.01,2013-10-10 11:59:00,
2013-10-10 08:00:00,61.5,60.3,29.84,NW,319,5.0,12.0,96,0.00,,---,0.00,VWS V14.01,2013-10-10 12:00:00,
2013-10-10 08:01:00,61.6,60.5,29.84,NNW,336,12.0,15.0,96,0.00,,---,0.00,VWS V14.01,2013-10-10 12:01:00,
2013-10-10 08:02:00,61.5,60.3,29.84,WNW,299,7.0,15.0,96,0.00,,---,0.00,VWS V14.01,2013-10-10 12:02:00,
2013-10-10 08:03:00,61.6,60.5,29.84,WNW,300,10.0,15.0,96,0.00,,---,0.00,VWS V14.01,2013-10-10 12:03:00,
2013-10-10 08:04:00,61.5,60.3,29.84,NW,312,13.0,15.0,96,0.00,,---,0.00,VWS V14.01,2013-10-10 12:04:00,
2013-10-10 08:05:00,61.5,60.3,29.84,NNW,329,7.0,15.0,96,0.00,,---,0.00,VWS V14.01,2013-10-10 12:05:00,
2013-10-10 08:06:00,61.5,60.3,29.84,NW,304,12.0,12.0,96,0.00,,---,0.00,VWS V14.01,2013-10-10 12:06:00,
2013-10-10 08:07:00,61.5,60.3,29.84,NW,325,7.0,13.0,96,0.00,,---,0.00,VWS V14.01,2013-10-10 12:07:00,
2013-10-10 08:08:00,61.5,60.3,29.84,NW,311,10.0,13.0,96,0.00,,---,0.00,VWS V14.01,2013-10-10 12:08:00,
2013-10-10 08:09:00,61.4,60.2,29.84,NW,304,5.0,13.0,96,0.00,,---,0.00,VWS V14.01,2013-10-10 12:09:00,
2013-10-10 08:10:00,61.4,60.2,29.84,NW,307,5.0,13.0,96,0.00,,---,0.00,VWS V14.01,2013-10-10 12:10:00,
2013-10-10 08:11:00,61.4,60.2,29.84,NW,319,10.0,12.0,96,0.00,,---,0.00,VWS V14.01,2013-10-10 12:11:00,
2013-10-10 08:12:00,61.4,60.2,29.84,WNW,290,4.0,12.0,96,0.00,,---,0.00,VWS V14.01,2013-10-10 12:12:00,
2013-10-10 08:13:00,61.5,60.3,29.84,NW,319,11.0,12.0,96,0.00,,---,0.00,VWS V14.01,2013-10-10 12:13:00,
2013-10-10 08:14:00,61.5,60.3,29.84,NW,319,11.0,12.0,96,0.00,,---,0.00,VWS V14.01,2013-10-10 12:14:00,
2013-10-10 08:15:00,61.4,60.2,29.85,NW,311,4.0,12.0,96,0.00,,---,0.00,VWS V14.01,2013-10-10 12:15:00,
2013-10-10 08:16:00,61.4,60.2,29.85,West,281,10.0,10.0,96,0.00,,---,0.00,VWS V14.01,2013-10-10 12:16:00,
2013-10-10 08:17:00,61.4,60.2,29.85,NW,317,9.0,14.0,96,0.00,,---,0.00,VWS V14.01,2013-10-10 12:17:00,
2013-10-10 08:18:00,61.5,60.3,29.85,NW,319,6.0,14.0,96,0.00,,---,0.00,VWS V14.01,2013-10-10 12:18:00,
2013-10-10 08:19:00,61.5,60.3,29.85,NW,320,5.0,14.0,96,0.00,,---,0.00,VWS V14.01,2013-10-10 12:19:00,
2013-10-10 08:20:00,61.4,60.2,29.85,NW,311,7.0,14.0,96,0.00,,---,0.00,VWS V14.01,2013-10-10 12:20:00,
2013-10-10 08:21:00,61.4,60.2,29.85,WNW,295,12.0,15.0,96,0.00,,---,0.00,VWS V14.01,2013-10-10 12:21:00,
2013-10-10 08:22:00,61.4,60.2,29.85,NW,311,15.0,15.0,96,0.00,,---,0.00,VWS V14.01,2013-10-10 12:22:00,
2013-10-10 08:23:00,61.4,60.2,29.85,WNW,302,13.0,17.0,96,0.00,,---,0.00,VWS V14.01,2013-10-10 12:23:00,
2013-10-10 08:24:00,61.4,60.2,29.85,WNW,286,12.0,17.0,96,0.00,,---,0.00,VWS V14.01,2013-10-10 12:24:00,
2013-10-10 08:25:00,61.4,60.2,29.85,NW,320,4.0,17.0,96,0.00,,---,0.00,VWS V14.01,2013-10-10 12:25:00,
2013-10-10 08:26:00,61.4,60.2,29.85,NW,313,5.0,10.0,96,0.00,,---,0.00,VWS V14.01,2013-10-10 12:26:00,
2013-10-10 08:27:00,61.4,60.2,29.85,WNW,300,6.0,10.0,96,0.00,,---,0.00,VWS V14.01,2013-10-10 12:27:00,
2013-10-10 08:28:00,61.4,60.2,29.85,NNW,340,13.0,14.0,96,0.00,,---,0.00,VWS V14.01,2013-10-10 12:28:00,
2013-10-10 08:29:00,61.4,60.2,29.85,WNW,302,10.0,14.0,96,0.00,,---,0.00,VWS V14.01,2013-10-10 12:29:00,
2013-10-10 08:30:00,61.4,60.2,29.85,WNW,292,7.0,14.0,96,0.00,,---,0.00,VWS V14.01,2013-10-10 12:30:00,
2013-10-10 08:31:00,61.4,60.2,29.85,NW,320,5.0,12.0,96,0.00,,---,0.00,VWS V14.01,2013-10-10 12:31:00,
2013-10-10 08:32:00,61.4,60.2,29.85,NW,306,5.0,14.0,96,0.00,,---,0.00,VWS V14.01,2013-10-10 12:32:00,
2013-10-10 08:33:00,61.5,60.3,29.85,WNW,301,9.0,14.0,96,0.00,,---,0.00,VWS V14.01,2013-10-10 12:33:00,
2013-10-10 08:34:00,61.5,60.3,29.85,NW,319,5.0,14.0,96,0.00,,---,0.00,VWS V14.01,2013-10-10 12:34:00,
2013-10-10 08:35:00,61.5,60.3,29.85,NW,315,5.0,14.0,96,0.00,,---,0.00,VWS V14.01,2013-10-10 12:35:00,
2013-10-10 08:36:00,61.5,60.3,29.85,NNW,333,9.0,11.0,96,0.00,,---,0.00,VWS V14.01,2013-10-10 12:36:00,
2013-10-10 08:37:00,61.6,60.5,29.85,NW,308,5.0,11.0,96,0.00,,---,0.00,VWS V14.01,2013-10-10 12:37:00,
2013-10-10 08:38:00,61.6,60.5,29.85,NW,305,7.0,11.0,96,0.00,,---,0.00,VWS V14.01,2013-10-10 12:38:00,
2013-10-10 08:39:00,61.6,60.5,29.85,NNW,333,9.0,11.0,96,0.00,,---,0.00,VWS V14.01,2013-10-10 12:39:00,
2013-10-10 08:40:00,61.6,60.5,29.85,NNW,343,6.0,15.0,96,0.00,,---,0.00,VWS V14.01,2013-10-10 12:40:00,
2013-10-10 08:41:00,61.6,60.5,29.85,WNW,298,5.0,12.0,96,0.00,,---,0.00,VWS V14.01,2013-10-10 12:41:00,
2013-10-10 08:42:00,61.6,60.5,29.85,NNW,332,5.0,12.0,96,0.00,,---,0.00,VWS V14.01,2013-10-10 12:42:00,
2013-10-10 08:43:00,61.6,60.5,29.85,NW,311,5.0,12.0,96,0.00,,---,0.00,VWS V14.01,2013-10-10 12:43:00,
2013-10-10 08:44:00,61.6,60.5,29.85,NW,321,7.0,12.0,96,0.00,,---,0.00,VWS V14.01,2013-10-10 12:44:00,
2013-10-10 08:45:00,61.6,60.5,29.85,NW,306,5.0,12.0,96,0.00,,---,0.00,VWS V14.01,2013-10-10 12:45:00,
2013-10-10 08:46:00,61.6,60.5,29.85,WNW,300,10.0,11.0,96,0.00,,---,0.00,VWS V14.01,2013-10-10 12:46:00,
2013-10-10 08:47:00,61.6,60.5,29.85,NW,321,8.0,12.0,96,0.00,,---,0.00,VWS V14.01,2013-10-10 12:47:00,
2013-10-10 08:48:00,61.6,60.5,29.85,WNW,301,6.0,12.0,96,0.00,,---,0.00,VWS V14.01,2013-10-10 12:48:00,
2013-10-10 08:49:00,61.6,60.5,29.85,NW,307,4.0,17.0,96,0.00,,---,0.00,VWS V14.01,2013-10-10 12:49:00,
2013-10-10 08:50:00,61.6,60.5,29.85,NW,320,6.0,17.0,96,0.00,,---,0.00,VWS V14.01,2013-10-10 12:50:00,
2013-10-10 08:51:00,61.6,60.5,29.85,NW,308,6.0,12.0,96,0.00,,---,0.00,VWS V14.01,2013-10-10 12:51:00,
2013-10-10 08:52:00,61.6,60.5,29.85,WNW,302,6.0,12.0,96,0.00,,---,0.00,VWS V14.01,2013-10-10 12:52:00,
2013-10-10 08:53:00,61.6,60.5,29.85,NW,307,6.0,12.0,96,0.00,,---,0.00,VWS V14.01,2013-10-10 12:53:00,
2013-10-10 08:54:00,61.6,60.5,29.85,NW,304,11.0,12.0,96,0.00,,---,0.00,VWS V14.01,2013-10-10 12:54:00,
2013-10-10 08:55:00,61.6,60.5,29.85,NW,311,5.0,12.0,96,0.00,,---,0.00,VWS V14.01,2013-10-10 12:55:00,
2013-10-10 08:56:00,61.6,60.5,29.85,NW,304,7.0,11.0,96,0.00,,---,0.00,VWS V14.01,2013-10-10 12:56:00,
2013-10-10 08:57:00,61.6,60.5,29.85,NNW,327,8.0,15.0,96,0.00,,---,0.00,VWS V14.01,2013-10-10 12:57:00,
2013-10-10 08:58:00,61.6,60.5,29.85,NNW,334,10.0,15.0,96,0.00,,---,0.00,VWS V14.01,2013-10-10 12:58:00,
2013-10-10 08:59:00,61.6,60.5,29.85,NW,323,9.0,15.0,96,0.00,,---,0.00,VWS V14.01,2013-10-10 12:59:00,
2013-10-10 09:00:00,61.6,60.5,29.85,NW,310,5.0,15.0,96,0.00,,---,0.00,VWS V14.01,2013-10-10 13:00:00,
2013-10-10 09:01:00,61.6,60.5,29.85,NNW,341,6.0,12.0,96,0.00,,---,0.00,VWS V14.01,2013-10-10 13:01:00,
2013-10-10 09:02:00,61.6,60.5,29.85,NNW,330,5.0,12.0,96,0.00,,---,0.00,VWS V14.01,2013-10-10 13:02:00,
2013-10-10 09:03:00,61.6,60.5,29.85,NW,310,10.0,12.0,96,0.00,,---,0.00,VWS V14.01,2013-10-10 13:03:00,
2013-10-10 09:04:00,61.6,60.5,29.85,NW,313,7.0,12.0,96,0.00,,---,0.00,VWS V14.01,2013-10-10 13:04:00,
2013-10-10 09:05:00,61.6,60.5,29.85,NW,313,5.0,14.0,96,0.00,,---,0.00,VWS V14.01,2013-10-10 13:05:00,
2013-10-10 09:06:00,61.6,60.5,29.85,NW,317,7.0,7.0,96,0.00,,---,0.00,VWS V14.01,2013-10-10 13:06:00,
2013-10-10 09:07:00,61.6,60.5,29.85,NNW,345,10.0,13.0,96,0.00,,---,0.00,VWS V14.01,2013-10-10 13:07:00,
2013-10-10 09:08:00,61.7,60.5,29.85,WNW,299,5.0,13.0,96,0.00,,---,0.00,VWS V14.01,2013-10-10 13:08:00,
2013-10-10 09:09:00,61.7,60.5,29.85,WNW,290,5.0,13.0,96,0.00,,---,0.00,VWS V14.01,2013-10-10 13:09:00,
2013-10-10 09:10:00,61.7,60.5,29.85,WNW,296,7.0,13.0,96,0.00,,---,0.00,VWS V14.01,2013-10-10 13:10:00,
2013-10-10 09:11:00,61.7,60.5,29.85,NNW,327,14.0,14.0,96,0.00,,---,0.00,VWS V14.01,2013-10-10 13:11:00,
2013-10-10 09:12:00,61.7,60.5,29.85,NW,316,4.0,14.0,96,0.00,,---,0.00,VWS V14.01,2013-10-10 13:12:00,
2013-10-10 09:13:00,61.7,60.5,29.85,WNW,303,10.0,14.0,96,0.00,,---,0.00,VWS V14.01,2013-10-10 13:13:00,
2013-10-10 09:14:00,61.7,60.5,29.85,NW,319,6.0,14.0,96,0.00,,---,0.00,VWS V14.01,2013-10-10 13:14:00,
2013-10-10 09:15:00,61.7,60.5,29.86,NW,312,11.0,15.0,96,0.00,,---,0.00,VWS V14.01,2013-10-10 13:15:00,
2013-10-10 09:16:00,61.7,60.5,29.86,NW,321,10.0,15.0,96,0.00,,---,0.00,VWS V14.01,2013-10-10 13:16:00,
2013-10-10 09:17:00,61.7,60.5,29.86,NW,313,5.0,15.0,96,0.00,,---,0.00,VWS V14.01,2013-10-10 13:17:00,
2013-10-10 09:18:00,61.7,60.5,29.86,NW,313,5.0,15.0,96,0.00,,---,0.00,VWS V14.01,2013-10-10 13:18:00,
2013-10-10 09:19:00,61.8,60.7,29.86,NNW,330,4.0,15.0,96,0.00,,---,0.00,VWS V14.01,2013-10-10 13:19:00,
2013-10-10 09:20:00,61.8,60.7,29.86,NW,309,11.0,15.0,96,0.00,,---,0.00,VWS V14.01,2013-10-10 13:20:00,
2013-10-10 09:21:00,61.9,60.8,29.86,NW,305,9.0,14.0,96,0.00,,---,0.00,VWS V14.01,2013-10-10 13:21:00,
2013-10-10 09:22:00,61.9,60.8,29.86,NW,321,9.0,17.0,96,0.00,,---,0.00,VWS V14.01,2013-10-10 13:22:00,
2013-10-10 09:23:00,61.9,60.8,29.86,NW,326,11.0,17.0,96,0.00,,---,0.00,VWS V14.01,2013-10-10 13:23:00,
2013-10-10 09:24:00,61.9,60.8,29.86,NW,326,15.0,17.0,96,0.00,,---,0.00,VWS V14.01,2013-10-10 13:24:00,
2013-10-10 09:25:00,61.9,60.8,29.86,WNW,296,8.0,8.0,96,0.00,,---,0.00,VWS V14.01,2013-10-10 13:25:00,
2013-10-10 09:26:00,61.9,60.8,29.86,NW,317,5.0,14.0,96,0.00,,---,0.00,VWS V14.01,2013-10-10 13:26:00,
2013-10-10 09:27:00,62.0,60.8,29.86,NW,323,13.0,14.0,96,0.00,,---,0.00,VWS V14.01,2013-10-10 13:27:00,
2013-10-10 09:28:00,62.0,60.8,29.86,NW,307,4.0,14.0,96,0.00,,---,0.00,VWS V14.01,2013-10-10 13:28:00,
2013-10-10 09:29:00,62.0,60.8,29.86,NW,325,16.0,17.0,96,0.00,,---,0.00,VWS V14.01,2013-10-10 13:29:00,
2013-10-10 09:30:00,62.0,60.8,29.86,NW,315,6.0,17.0,96,0.00,,---,0.00,VWS V14.01,2013-10-10 13:30:00,
2013-10-10 09:31:00,62.0,60.8,29.86,WNW,302,9.0,12.0,96,0.00,,---,0.00,VWS V14.01,2013-10-10 13:31:00,
2013-10-10 09:32:00,62.0,60.8,29.86,NW,323,10.0,12.0,96,0.00,,---,0.00,VWS V14.01,2013-10-10 13:32:00,
2013-10-10 09:33:00,62.0,60.8,29.86,NW,315,6.0,12.0,96,0.00,,---,0.00,VWS V14.01,2013-10-10 13:33:00,
2013-10-10 09:34:00,62.0,60.8,29.86,NW,325,14.0,14.0,96,0.00,,---,0.00,VWS V14.01,2013-10-10 13:34:00,
2013-10-10 09:35:00,62.0,60.8,29.86,NW,304,13.0,14.0,96,0.00,,---,0.00,VWS V14.01,2013-10-10 13:35:00,
2013-10-10 09:36:00,62.0,60.8,29.86,NW,309,10.0,13.0,96,0.00,,---,0.00,VWS V14.01,2013-10-10 13:36:00,
2013-10-10 09:37:00,62.0,60.8,29.86,NW,315,5.0,15.0,96,0.00,,---,0.00,VWS V14.01,2013-10-10 13:37:00,
2013-10-10 09:38:00,62.0,60.8,29.86,NNW,338,11.0,15.0,96,0.00,,---,0.00,VWS V14.01,2013-10-10 13:38:00,
2013-10-10 09:39:00,62.0,60.8,29.86,NW,305,7.0,15.0,96,0.00,,---,0.00,VWS V14.01,2013-10-10 13:39:00,
2013-10-10 09:40:00,62.0,60.8,29.86,WNW,292,12.0,15.0,96,0.00,,---,0.00,VWS V14.01,2013-10-10 13:40:00,
2013-10-10 09:41:00,62.1,61.0,29.86,NW,316,14.0,15.0,96,0.00,,---,0.00,VWS V14.01,2013-10-10 13:41:00,
2013-10-10 09:42:00,62.0,60.8,29.86,NNW,330,7.0,16.0,96,0.00,,---,0.00,VWS V14.01,2013-10-10 13:42:00,
2013-10-10 09:43:00,62.0,60.8,29.86,NW,313,5.0,16.0,96,0.00,,---,0.00,VWS V14.01,2013-10-10 13:43:00,
2013-10-10 09:44:00,62.0,60.8,29.86,WNW,294,9.0,16.0,96,0.00,,---,0.00,VWS V14.01,2013-10-10 13:44:00,
2013-10-10 09:45:00,62.0,60.8,29.85,NW,318,12.0,16.0,96,0.00,,---,0.00,VWS V14.01,2013-10-10 13:45:00,
2013-10-10 09:46:00,62.0,60.8,29.85,WNW,302,16.0,16.0,96,0.00,,---,0.00,VWS V14.01,2013-10-10 13:46:00,
2013-10-10 09:47:00,62.0,60.8,29.85,NW,312,6.0,16.0,96,0.00,,---,0.00,VWS V14.01,2013-10-10 13:47:00,
2013-10-10 09:48:00,62.0,60.8,29.85,NW,324,8.0,16.0,96,0.00,,---,0.00,VWS V14.01,2013-10-10 13:48:00,
2013-10-10 09:49:00,62.0,60.8,29.85,WNW,301,7.0,16.0,96,0.00,,---,0.00,VWS V14.01,2013-10-10 13:49:00,
2013-10-10 09:50:00,62.1,61.0,29.85,NW,311,8.0,16.0,96,0.00,,---,0.00,VWS V14.01,2013-10-10 13:50:00,
2013-10-10 09:51:00,62.1,61.0,29.85,NW,311,10.0,13.0,96,0.00,,---,0.00,VWS V14.01,2013-10-10 13:51:00,
2013-10-10 09:52:00,62.1,61.0,29.85,NW,318,6.0,13.0,96,0.00,,---,0.00,VWS V14.01,2013-10-10 13:52:00,
2013-10-10 09:53:00,62.1,61.0,29.85,NW,315,6.0,13.0,96,0.00,,---,0.00,VWS V14.01,2013-10-10 13:53:00,
2013-10-10 09:54:00,62.2,61.0,29.85,WNW,298,5.0,13.0,96,0.00,,---,0.00,VWS V14.01,2013-10-10 13:54:00,
2013-10-10 09:55:00,62.2,61.0,29.85,WNW,298,8.0,14.0,96,0.00,,---,0.00,VWS V14.01,2013-10-10 13:55:00,
2013-10-10 09:56:00,62.2,61.0,29.85,NNW,334,5.0,15.0,96,0.00,,---,0.00,VWS V14.01,2013-10-10 13:56:00,
2013-10-10 09:57:00,62.2,61.0,29.85,NW,319,9.0,15.0,96,0.00,,---,0.00,VWS V14.01,2013-10-10 13:57:00,
2013-10-10 09:58:00,62.1,61.0,29.85,NW,315,11.0,16.0,96,0.00,,---,0.00,VWS V14.01,2013-10-10 13:58:00,
2013-10-10 09:59:00,62.1,61.0,29.85,NNW,346,12.0,16.0,96,0.00,,---,0.00,VWS V14.01,2013-10-10 13:59:00,
2013-10-10 10:00:00,62.1,61.0,29.85,NNW,327,6.0,16.0,96,0.00,,---,0.00,VWS V14.01,2013-10-10 14:00:00,
2013-10-10 10:01:00,62.1,61.0,29.85,NNW,327,6.0,6.0,96,0.00,,---,0.00,VWS V14.01,2013-10-10 14:01:00,
2013-10-10 10:02:00,62.1,61.0,29.85,NW,317,11.0,17.0,96,0.00,,---,0.00,VWS V14.01,2013-10-10 14:02:00,
2013-10-10 10:03:00,62.2,61.0,29.85,NW,306,11.0,17.0,96,0.00,,---,0.00,VWS V14.01,2013-10-10 14:03:00,
2013-10-10 10:04:00,62.2,61.0,29.85,NNW,328,12.0,17.0,96,0.00,,---,0.00,VWS V14.01,2013-10-10 14:04:00,
2013-10-10 10:05:00,62.2,61.0,29.85,NW,317,7.0,17.0,96,0.00,,---,0.00,VWS V14.01,2013-10-10 14:05:00,
2013-10-10 10:06:00,62.2,61.0,29.85,WNW,302,7.0,11.0,96,0.00,,---,0.00,VWS V14.01,2013-10-10 14:06:00,
2013-10-10 10:07:00,62.3,61.2,29.85,NW,308,9.0,11.0,96,0.00,,---,0.00,VWS V14.01,2013-10-10 14:07:00,
2013-10-10 10:08:00,62.3,61.2,29.85,NW,323,13.0,16.0,96,0.00,,---,0.00,VWS V14.01,2013-10-10 14:08:00,
2013-10-10 10:09:00,62.3,61.2,29.85,NW,315,6.0,16.0,96,0.00,,---,0.00,VWS V14.01,2013-10-10 14:09:00,
2013-10-10 10:10:00,62.3,61.2,29.85,NW,309,13.0,16.0,96,0.00,,---,0.00,VWS V14.01,2013-10-10 14:10:00,
2013-10-10 10:11:00,62.3,61.2,29.85,NW,315,14.0,14.0,96,0.00,,---,0.00,VWS V14.01,2013-10-10 14:11:00,
2013-10-10 10:12:00,62.3,61.2,29.85,NW,326,16.0,16.0,96,0.00,,---,0.00,VWS V14.01,2013-10-10 14:12:00,
2013-10-10 10:13:00,62.2,61.0,29.85,NW,313,16.0,16.0,96,0.00,,---,0.00,VWS V14.01,2013-10-10 14:13:00,
2013-10-10 10:14:00,62.3,61.2,29.85,NW,309,7.0,16.0,96,0.00,,---,0.00,VWS V14.01,2013-10-10 14:14:00,
2013-10-10 10:15:00,62.3,61.2,29.85,WNW,302,10.0,16.0,96,0.00,,---,0.00,VWS V14.01,2013-10-10 14:15:00,
2013-10-10 10:16:00,62.3,61.2,29.85,WNW,298,7.0,14.0,96,0.00,,---,0.00,VWS V14.01,2013-10-10 14:16:00,
2013-10-10 10:17:00,62.3,61.2,29.85,NW,325,9.0,15.0,96,0.00,,---,0.00,VWS V14.01,2013-10-10 14:17:00,
2013-10-10 10:18:00,62.3,61.2,29.85,WNW,300,10.0,15.0,96,0.00,,---,0.00,VWS V14.01,2013-10-10 14:18:00,
2013-10-10 10:19:00,62.3,61.2,29.85,NW,317,6.0,15.0,96,0.00,,---,0.00,VWS V14.01,2013-10-10 14:19:00,
2013-10-10 10:20:00,62.4,61.2,29.85,NW,313,13.0,16.0,96,0.00,,---,0.00,VWS V14.01,2013-10-10 14:20:00,
2013-10-10 10:21:00,62.4,61.2,29.85,NW,313,11.0,16.0,96,0.00,,---,0.00,VWS V14.01,2013-10-10 14:21:00,
2013-10-10 10:22:00,62.3,61.2,29.85,NNW,332,17.0,17.0,96,0.00,,---,0.00,VWS V14.01,2013-10-10 14:22:00,
2013-10-10 10:23:00,62.3,61.2,29.85,WNW,285,10.0,17.0,96,0.00,,---,0.00,VWS V14.01,2013-10-10 14:23:00,
2013-10-10 10:24:00,62.4,61.2,29.85,NW,325,10.0,17.0,96,0.00,,---,0.00,VWS V14.01,2013-10-10 14:24:00,
2013-10-10 10:25:00,62.4,61.2,29.85,NW,325,10.0,17.0,96,0.00,,---,0.00,VWS V14.01,2013-10-10 14:25:00,
2013-10-10 10:26:00,62.6,61.5,29.85,NNW,342,11.0,11.0,96,0.00,,---,0.00,VWS V14.01,2013-10-10 14:26:00,
2013-10-10 10:27:00,62.6,61.5,29.85,NW,319,11.0,15.0,96,0.00,,---,0.00,VWS V14.01,2013-10-10 14:27:00,
2013-10-10 10:28:00,62.6,61.5,29.85,WNW,303,10.0,16.0,96,0.00,,---,0.00,VWS V14.01,2013-10-10 14:28:00,
2013-10-10 10:29:00,62.6,61.5,29.85,WNW,300,16.0,16.0,96,0.00,,---,0.00,VWS V14.01,2013-10-10 14:29:00,
2013-10-10 10:30:00,62.6,61.5,29.85,NNW,336,6.0,16.0,96,0.00,,---,0.00,VWS V14.01,2013-10-10 14:30:00,
2013-10-10 10:31:00,62.7,61.2,29.85,NW,315,6.0,9.0,95,0.00,,---,0.00,VWS V14.01,2013-10-10 14:31:00,
2013-10-10 10:32:00,62.7,61.2,29.85,NNW,333,10.0,10.0,95,0.00,,---,0.00,VWS V14.01,2013-10-10 14:32:00,
2013-10-10 10:33:00,62.8,61.3,29.85,NNW,332,5.0,13.0,95,0.00,,---,0.00,VWS V14.01,2013-10-10 14:33:00,
2013-10-10 10:34:00,62.8,61.3,29.85,NW,318,4.0,13.0,95,0.00,,---,0.00,VWS V14.01,2013-10-10 14:34:00,
2013-10-10 10:35:00,62.9,61.5,29.85,NW,312,12.0,13.0,95,0.00,,---,0.00,VWS V14.01,2013-10-10 14:35:00,
2013-10-10 10:36:00,62.8,61.3,29.85,NW,320,8.0,15.0,95,0.00,,---,0.00,VWS V14.01,2013-10-10 14:36:00,
2013-10-10 10:37:00,62.8,61.3,29.85,NW,304,6.0,15.0,95,0.00,,---,0.00,VWS V14.01,2013-10-10 14:37:00,
2013-10-10 10:38:00,62.8,61.3,29.85,NW,307,7.0,15.0,95,0.00,,---,0.00,VWS V14.01,2013-10-10 14:38:00,
2013-10-10 10:39:00,62.8,61.3,29.85,NW,321,7.0,17.0,95,0.00,,---,0.00,VWS V14.01,2013-10-10 14:39:00,
2013-10-10 10:40:00,62.7,61.2,29.85,WNW,302,12.0,17.0,95,0.00,,---,0.00,VWS V14.01,2013-10-10 14:40:00,
2013-10-10 10:41:00,62.7,61.2,29.85,WNW,303,15.0,15.0,95,0.00,,---,0.00,VWS V14.01,2013-10-10 14:41:00,
2013-10-10 10:42:00,62.7,61.2,29.85,North,351,10.0,15.0,95,0.00,,---,0.00,VWS V14.01,2013-10-10 14:42:00,
2013-10-10 10:43:00,62.7,61.2,29.85,NNW,340,11.0,15.0,95,0.00,,---,0.00,VWS V14.01,2013-10-10 14:43:00,
2013-10-10 10:44:00,62.7,61.2,29.85,NW,309,16.0,18.0,95,0.00,,---,0.00,VWS V14.01,2013-10-10 14:44:00,
2013-10-10 10:45:00,62.7,61.2,29.86,NW,320,12.0,18.0,95,0.00,,---,0.00,VWS V14.01,2013-10-10 14:45:00,
2013-10-10 10:46:00,62.8,61.3,29.86,NW,317,15.0,15.0,95,0.00,,---,0.00,VWS V14.01,2013-10-10 14:46:00,
2013-10-10 10:47:00,62.8,61.3,29.86,WNW,300,10.0,15.0,95,0.00,,---,0.00,VWS V14.01,2013-10-10 14:47:00,
2013-10-10 10:48:00,62.9,61.5,29.86,NW,317,6.0,15.0,95,0.00,,---,0.00,VWS V14.01,2013-10-10 14:48:00,
2013-10-10 10:49:00,62.9,61.5,29.86,NNW,329,6.0,15.0,95,0.00,,---,0.00,VWS V14.01,2013-10-10 14:49:00,
2013-10-10 10:50:00,62.9,61.5,29.86,WNW,299,13.0,15.0,95,0.00,,---,0.00,VWS V14.01,2013-10-10 14:50:00,
2013-10-10 10:51:00,62.9,61.5,29.86,NNW,333,12.0,17.0,95,0.00,,---,0.00,VWS V14.01,2013-10-10 14:51:00,
2013-10-10 10:52:00,62.9,61.5,29.86,NW,323,9.0,17.0,95,0.00,,---,0.00,VWS V14.01,2013-10-10 14:52:00,
2013-10-10 10:53:00,62.9,61.5,29.86,NW,310,9.0,17.0,95,0.00,,---,0.00,VWS V14.01,2013-10-10 14:53:00,
2013-10-10 10:54:00,62.9,61.5,29.86,WNW,291,12.0,17.0,95,0.00,,---,0.00,VWS V14.01,2013-10-10 14:54:00,
2013-10-10 10:55:00,62.9,61.5,29.86,NW,309,6.0,17.0,95,0.00,,---,0.00,VWS V14.01,2013-10-10 14:55:00,
2013-10-10 10:56:00,62.9,61.5,29.86,NW,309,12.0,18.0,95,0.00,,---,0.00,VWS V14.01,2013-10-10 14:56:00,
2013-10-10 10:57:00,62.9,61.5,29.86,NW,326,14.0,18.0,95,0.00,,---,0.00,VWS V14.01,2013-10-10 14:57:00,
2013-10-10 10:58:00,62.9,61.5,29.86,WNW,291,11.0,18.0,95,0.00,,---,0.00,VWS V14.01,2013-10-10 14:58:00,
2013-10-10 10:59:00,62.9,61.5,29.86,WNW,295,12.0,18.0,95,0.00,,---,0.00,VWS V14.01,2013-10-10 14:59:00,
2013-10-10 11:00:00,62.8,61.3,29.85,NW,315,14.0,18.0,95,0.00,,---,0.00,VWS V14.01,2013-10-10 15:00:00,
2013-10-10 11:01:00,62.8,61.3,29.85,NW,304,13.0,19.0,95,0.00,,---,0.00,VWS V14.01,2013-10-10 15:01:00,
2013-10-10 11:02:00,62.8,61.3,29.85,NNW,342,13.0,19.0,95,0.00,,---,0.00,VWS V14.01,2013-10-10 15:02:00,
2013-10-10 11:03:00,62.7,61.2,29.85,NNW,333,17.0,19.0,95,0.00,,---,0.00,VWS V14.01,2013-10-10 15:03:00,
2013-10-10 11:04:00,62.7,61.2,29.85,NW,313,16.0,19.0,95,0.00,,---,0.00,VWS V14.01,2013-10-10 15:04:00,
2013-10-10 11:05:00,62.7,61.2,29.85,NNW,330,11.0,19.0,95,0.00,,---,0.00,VWS V14.01,2013-10-10 15:05:00,
2013-10-10 11:06:00,62.8,61.3,29.85,NW,317,15.0,15.0,95,0.00,,---,0.00,VWS V14.01,2013-10-10 15:06:00,
2013-10-10 11:07:00,62.9,61.5,29.85,NW,319,10.0,17.0,95,0.00,,---,0.00,VWS V14.01,2013-10-10 15:07:00,
2013-10-10 11:08:00,62.9,61.5,29.85,NW,313,12.0,17.0,95,0.00,,---,0.00,VWS V14.01,2013-10-10 15:08:00,
2013-10-10 11:09:00,62.9,61.5,29.85,NW,313,12.0,17.0,95,0.00,,---,0.00,VWS V14.01,2013-10-10 15:09:00,
2013-10-10 11:10:00,63.0,61.5,29.85,NW,317,10.0,17.0,95,0.00,,---,0.00,VWS V14.01,2013-10-10 15:10:00,
2013-10-10 11:11:00,63.0,61.5,29.85,NNW,338,12.0,16.0,95,0.00,,---,0.00,VWS V14.01,2013-10-10 15:11:00,
2013-10-10 11:12:00,63.0,61.5,29.85,NNW,334,13.0,16.0,95,0.00,,---,0.00,VWS V14.01,2013-10-10 15:12:00,
2013-10-10 11:13:00,63.1,61.7,29.85,NNW,333,9.0,16.0,95,0.00,,---,0.00,VWS V14.01,2013-10-10 15:13:00,
2013-10-10 11:14:00,63.1,61.7,29.85,NNW,341,10.0,16.0,95,0.00,,---,0.00,VWS V14.01,2013-10-10 15:14:00,
2013-10-10 11:15:00,63.2,61.8,29.85,NW,325,9.0,16.0,95,0.00,,---,0.00,VWS V14.01,2013-10-10 15:15:00,
2013-10-10 11:16:00,63.2,61.8,29.85,NW,326,7.0,9.0,95,0.00,,---,0.00,VWS V14.01,2013-10-10 15:16:00,
2013-10-10 11:17:00,63.3,61.8,29.85,NW,315,9.0,16.0,95,0.00,,---,0.00,VWS V14.01,2013-10-10 15:17:00,
2013-10-10 11:18:00,63.2,61.8,29.85,NNW,335,9.0,16.0,95,0.00,,---,0.00,VWS V14.01,2013-10-10 15:18:00,
2013-10-10 11:19:00,63.2,61.5,29.85,NW,309,13.0,18.0,94,0.00,,---,0.00,VWS V14.01,2013-10-10 15:19:00,
2013-10-10 11:20:00,63.1,61.3,29.85,NNW,343,11.0,18.0,94,0.00,,---,0.00,VWS V14.01,2013-10-10 15:20:00,
2013-10-10 11:21:00,63.1,61.3,29.85,NNW,328,7.0,15.0,94,0.00,,---,0.00,VWS V14.01,2013-10-10 15:21:00,
2013-10-10 11:22:00,63.2,61.5,29.85,WNW,291,9.0,15.0,94,0.00,,---,0.00,VWS V14.01,2013-10-10 15:22:00,
2013-10-10 11:23:00,63.2,61.5,29.85,WNW,299,9.0,16.0,94,0.00,,---,0.00,VWS V14.01,2013-10-10 15:23:00,
2013-10-10 11:24:00,63.2,61.5,29.85,WNW,298,14.0,16.0,94,0.00,,---,0.00,VWS V14.01,2013-10-10 15:24:00,
2013-10-10 11:25:00,63.3,61.5,29.85,WNW,294,10.0,16.0,94,0.00,,---,0.00,VWS V14.01,2013-10-10 15:25:00,
2013-10-10 11:26:00,63.3,61.5,29.85,WNW,290,10.0,13.0,94,0.00,,---,0.00,VWS V14.01,2013-10-10 15:26:00,
2013-10-10 11:27:00,63.3,61.5,29.85,NW,315,11.0,13.0,94,0.00,,---,0.00,VWS V14.01,2013-10-10 15:27:00,
2013-10-10 11:28:00,63.4,62.0,29.85,NW,320,7.0,13.0,95,0.00,,---,0.00,VWS V14.01,2013-10-10 15:28:00,
2013-10-10 11:29:00,63.4,62.0,29.85,NW,320,7.0,13.0,95,0.00,,---,0.00,VWS V14.01,2013-10-10 15:29:00,
2013-10-10 11:30:00,63.4,61.7,29.85,WNW,282,12.0,16.0,94,0.00,,---,0.00,VWS V14.01,2013-10-10 15:30:00,
2013-10-10 11:31:00,63.4,61.7,29.85,NNW,334,16.0,16.0,94,0.00,,---,0.00,VWS V14.01,2013-10-10 15:31:00,
2013-10-10 11:32:00,63.4,61.7,29.85,NNW,333,8.0,16.0,94,0.00,,---,0.00,VWS V14.01,2013-10-10 15:32:00,
2013-10-10 11:33:00,63.4,61.7,29.85,NNW,330,2.0,16.0,94,0.00,,---,0.00,VWS V14.01,2013-10-10 15:33:00,
2013-10-10 11:34:00,63.5,61.8,29.85,NW,325,5.0,16.0,94,0.00,,---,0.00,VWS V14.01,2013-10-10 15:34:00,
2013-10-10 11:35:00,63.6,61.8,29.85,WNW,298,14.0,16.0,94,0.00,,---,0.00,VWS V14.01,2013-10-10 15:35:00,
2013-10-10 11:36:00,63.5,61.8,29.85,NW,305,5.0,14.0,94,0.00,,---,0.00,VWS V14.01,2013-10-10 15:36:00,
2013-10-10 11:37:00,63.6,61.8,29.85,WNW,293,17.0,17.0,94,0.00,,---,0.00,VWS V14.01,2013-10-10 15:37:00,
2013-10-10 11:38:00,63.5,61.8,29.85,NNW,332,12.0,17.0,94,0.00,,---,0.00,VWS V14.01,2013-10-10 15:38:00,
2013-10-10 11:39:00,63.4,61.7,29.85,NW,323,12.0,17.0,94,0.00,,---,0.00,VWS V14.01,2013-10-10 15:39:00,
2013-10-10 11:40:00,63.5,61.8,29.85,NW,325,4.0,17.0,94,0.00,,---,0.00,VWS V14.01,2013-10-10 15:40:00,
2013-10-10 11:41:00,63.5,61.8,29.85,NW,306,6.0,6.0,94,0.00,,---,0.00,VWS V14.01,2013-10-10 15:41:00,
2013-10-10 11:42:00,63.6,61.8,29.85,WNW,294,14.0,14.0,94,0.00,,---,0.00,VWS V14.01,2013-10-10 15:42:00,
2013-10-10 11:43:00,63.6,61.8,29.85,NW,314,6.0,16.0,94,0.00,,---,0.00,VWS V14.01,2013-10-10 15:43:00,
2013-10-10 11:44:00,63.6,61.8,29.85,NW,322,12.0,16.0,94,0.00,,---,0.00,VWS V14.01,2013-10-10 15:44:00,
2013-10-10 11:45:00,63.6,61.8,29.86,NW,320,12.0,17.0,94,0.00,,---,0.00,VWS V14.01,2013-10-10 15:45:00,
2013-10-10 11:46:00,63.6,61.8,29.86,WNW,295,4.0,13.0,94,0.00,,---,0.00,VWS V14.01,2013-10-10 15:46:00,
2013-10-10 11:47:00,63.6,61.8,29.86,NNW,342,8.0,13.0,94,0.00,,---,0.00,VWS V14.01,2013-10-10 15:47:00,
2013-10-10 11:48:00,63.7,62.0,29.86,NW,323,9.0,14.0,94,0.00,,---,0.00,VWS V14.01,2013-10-10 15:48:00,
2013-10-10 11:49:00,63.8,62.0,29.86,NNW,334,10.0,14.0,94,0.00,,---,0.00,VWS V14.01,2013-10-10 15:49:00,
2013-10-10 11:50:00,63.8,62.0,29.86,NW,309,7.0,15.0,94,0.00,,---,0.00,VWS V14.01,2013-10-10 15:50:00,
2013-10-10 11:51:00,63.8,62.0,29.86,NNW,344,9.0,17.0,94,0.00,,---,0.00,VWS V14.01,2013-10-10 15:51:00,
2013-10-10 11:52:00,63.8,62.0,29.86,NW,314,11.0,17.0,94,0.00,,---,0.00,VWS V14.01,2013-10-10 15:52:00,
2013-10-10 11:53:00,63.8,62.0,29.86,NW,321,10.0,17.0,94,0.00,,---,0.00,VWS V14.01,2013-10-10 15:53:00,
2013-10-10 11:54:00,63.8,61.7,29.86,NNW,342,7.0,17.0,93,0.00,,---,0.00,VWS V14.01,2013-10-10 15:54:00,
2013-10-10 11:55:00,63.9,62.1,29.86,WNW,292,10.0,17.0,94,0.00,,---,0.00,VWS V14.01,2013-10-10 15:55:00,
2013-10-10 11:56:00,64.0,62.2,29.86,WNW,298,7.0,14.0,94,0.00,,---,0.00,VWS V14.01,2013-10-10 15:56:00,
2013-10-10 11:57:00,64.0,62.2,29.86,NW,306,11.0,14.0,94,0.00,,---,0.00,VWS V14.01,2013-10-10 15:57:00,
2013-10-10 11:58:00,63.9,61.8,29.86,NW,304,7.0,14.0,93,0.00,,---,0.00,VWS V14.01,2013-10-10 15:58:00,
2013-10-10 11:59:00,63.9,61.8,29.86,NW,321,13.0,14.0,93,0.00,,---,0.00,VWS V14.01,2013-10-10 15:59:00,
2013-10-10 12:00:00,63.9,61.8,29.86,NNW,336,10.0,14.0,93,0.00,,---,0.00,VWS V14.01,2013-10-10 16:00:00,
2013-10-10 12:01:00,63.9,61.8,29.86,NW,306,8.0,14.0,93,0.00,,---,0.00,VWS V14.01,2013-10-10 16:01:00,
2013-10-10 12:02:00,63.9,61.8,29.86,NW,321,6.0,14.0,93,0.00,,---,0.00,VWS V14.01,2013-10-10 16:02:00,
2013-10-10 12:03:00,64.0,61.9,29.86,NNW,329,9.0,14.0,93,0.00,,---,0.00,VWS V14.01,2013-10-10 16:03:00,
2013-10-10 12:04:00,64.1,62.0,29.86,NW,324,14.0,14.0,93,0.00,,---,0.00,VWS V14.01,2013-10-10 16:04:00,
2013-10-10 12:05:00,64.1,62.0,29.86,NNW,340,16.0,16.0,93,0.00,,---,0.00,VWS V14.01,2013-10-10 16:05:00,
2013-10-10 12:06:00,64.0,61.9,29.86,NW,304,11.0,16.0,93,0.00,,---,0.00,VWS V14.01,2013-10-10 16:06:00,
2013-10-10 12:07:00,64.0,61.9,29.86,NW,310,13.0,16.0,93,0.00,,---,0.00,VWS V14.01,2013-10-10 16:07:00,
2013-10-10 12:08:00,64.0,61.9,29.86,NW,308,12.0,16.0,93,0.00,,---,0.00,VWS V14.01,2013-10-10 16:08:00,
2013-10-10 12:09:00,64.0,61.9,29.86,NNW,336,14.0,17.0,93,0.00,,---,0.00,VWS V14.01,2013-10-10 16:09:00,
2013-10-10 12:10:00,63.9,61.8,29.86,WNW,297,10.0,19.0,93,0.00,,---,0.00,VWS V14.01,2013-10-10 16:10:00,
2013-10-10 12:11:00,63.9,61.8,29.86,NW,314,11.0,15.0,93,0.00,,---,0.00,VWS V14.01,2013-10-10 16:11:00,
2013-10-10 12:12:00,63.9,61.8,29.86,NW,313,10.0,18.0,93,0.00,,---,0.00,VWS V14.01,2013-10-10 16:12:00,
2013-10-10 12:13:00,63.9,61.8,29.86,NNW,333,13.0,18.0,93,0.00,,---,0.00,VWS V14.01,2013-10-10 16:13:00,
2013-10-10 12:14:00,63.9,61.8,29.86,NNW,333,13.0,18.0,93,0.00,,---,0.00,VWS V14.01,2013-10-10 16:14:00,
2013-10-10 12:15:00,63.9,61.8,29.85,WNW,296,9.0,18.0,93,0.00,,---,0.00,VWS V14.01,2013-10-10 16:15:00,
2013-10-10 12:16:00,64.0,61.9,29.85,NW,321,11.0,12.0,93,0.00,,---,0.00,VWS V14.01,2013-10-10 16:16:00,
2013-10-10 12:17:00,64.0,61.9,29.85,NNW,329,6.0,12.0,93,0.00,,---,0.00,VWS V14.01,2013-10-10 16:17:00,
2013-10-10 12:18:00,64.1,62.0,29.85,WNW,292,12.0,14.0,93,0.00,,---,0.00,VWS V14.01,2013-10-10 16:18:00,
2013-10-10 12:19:00,64.0,61.9,29.85,NW,305,13.0,16.0,93,0.00,,---,0.00,VWS V14.01,2013-10-10 16:19:00,
2013-10-10 12:20:00,64.0,61.9,29.85,WNW,290,11.0,16.0,93,0.00,,---,0.00,VWS V14.01,2013-10-10 16:20:00,
2013-10-10 12:21:00,64.0,61.9,29.85,NW,321,9.0,14.0,93,0.00,,---,0.00,VWS V14.01,2013-10-10 16:21:00,
2013-10-10 12:22:00,64.0,61.9,29.85,NW,306,11.0,15.0,93,0.00,,---,0.00,VWS V14.01,2013-10-10 16:22:00,
2013-10-10 12:23:00,64.0,61.9,29.85,NNW,329,15.0,16.0,93,0.00,,---,0.00,VWS V14.01,2013-10-10 16:23:00,
2013-10-10 12:24:00,64.0,61.9,29.85,NW,312,9.0,17.0,93,0.00,,---,0.00,VWS V14.01,2013-10-10 16:24:00,
2013-10-10 12:25:00,63.9,61.8,29.85,NW,309,9.0,17.0,93,0.00,,---,0.00,VWS V14.01,2013-10-10 16:25:00,
2013-10-10 12:26:00,63.9,61.8,29.85,NNW,327,9.0,11.0,93,0.00,,---,0.00,VWS V14.01,2013-10-10 16:26:00,
2013-10-10 12:27:00,64.0,61.9,29.85,NW,318,13.0,14.0,93,0.00,,---,0.00,VWS V14.01,2013-10-10 16:27:00,
2013-10-10 12:28:00,64.0,61.9,29.85,NW,309,6.0,15.0,93,0.00,,---,0.00,VWS V14.01,2013-10-10 16:28:00,
2013-10-10 12:29:00,64.0,61.9,29.85,WNW,294,5.0,15.0,93,0.00,,---,0.00,VWS V14.01,2013-10-10 16:29:00,
2013-10-10 12:30:00,64.1,62.0,29.85,NW,306,9.0,15.0,93,0.00,,---,0.00,VWS V14.01,2013-10-10 16:30:00,
2013-10-10 12:31:00,64.1,62.0,29.85,NW,311,7.0,12.0,93,0.00,,---,0.00,VWS V14.01,2013-10-10 16:31:00,
2013-10-10 12:32:00,64.1,62.0,29.85,WNW,290,14.0,18.0,93,0.00,,---,0.00,VWS V14.01,2013-10-10 16:32:00,
2013-10-10 12:33:00,64.0,61.6,29.85,NW,315,10.0,18.0,92,0.00,,---,0.00,VWS V14.01,2013-10-10 16:33:00,
2013-10-10 12:34:00,64.0,61.6,29.85,NNW,330,8.0,18.0,92,0.00,,---,0.00,VWS V14.01,2013-10-10 16:34:00,
2013-10-10 12:35:00,64.0,61.9,29.85,WNW,300,6.0,18.0,93,0.00,,---,0.00,VWS V14.01,2013-10-10 16:35:00,
2013-10-10 12:36:00,64.0,61.9,29.85,NNW,329,12.0,17.0,93,0.00,,---,0.00,VWS V14.01,2013-10-10 16:36:00,
2013-10-10 12:37:00,64.0,61.6,29.85,WNW,289,11.0,17.0,92,0.00,,---,0.00,VWS V14.01,2013-10-10 16:37:00,
2013-10-10 12:38:00,64.0,61.9,29.85,NNW,332,12.0,17.0,93,0.00,,---,0.00,VWS V14.01,2013-10-10 16:38:00,
2013-10-10 12:39:00,64.0,61.6,29.85,NNW,333,15.0,17.0,92,0.00,,---,0.00,VWS V14.01,2013-10-10 16:39:00,
2013-10-10 12:40:00,64.0,61.6,29.85,NW,319,12.0,17.0,92,0.00,,---,0.00,VWS V14.01,2013-10-10 16:40:00,
2013-10-10 12:41:00,64.0,61.6,29.85,NW,314,13.0,15.0,92,0.00,,---,0.00,VWS V14.01,2013-10-10 16:41:00,
2013-10-10 12:42:00,64.0,61.6,29.85,NNW,334,13.0,16.0,92,0.00,,---,0.00,VWS V14.01,2013-10-10 16:42:00,
2013-10-10 12:43:00,64.0,61.6,29.85,NW,316,11.0,18.0,92,0.00,,---,0.00,VWS V14.01,2013-10-10 16:43:00,
2013-10-10 12:44:00,63.9,61.5,29.85,North,355,17.0,19.0,92,0.00,,---,0.00,VWS V14.01,2013-10-10 16:44:00,
2013-10-10 12:45:00,63.9,61.5,29.85,NW,324,15.0,19.0,92,0.00,,---,0.00,VWS V14.01,2013-10-10 16:45:00,
2013-10-10 12:46:00,63.8,61.4,29.85,NW,323,14.0,15.0,92,0.00,,---,0.00,VWS V14.01,2013-10-10 16:46:00,
2013-10-10 12:47:00,63.9,61.5,29.85,WNW,303,14.0,15.0,92,0.00,,---,0.00,VWS V14.01,2013-10-10 16:47:00,
2013-10-10 12:48:00,64.0,61.9,29.85,NW,317,18.0,18.0,93,0.00,,---,0.00,VWS V14.01,2013-10-10 16:48:00,
2013-10-10 12:49:00,63.9,61.5,29.85,NW,312,8.0,18.0,92,0.00,,---,0.00,VWS V14.01,2013-10-10 16:49:00,
2013-10-10 12:50:00,63.9,61.5,29.85,NNW,342,14.0,18.0,92,0.00,,---,0.00,VWS V14.01,2013-10-10 16:50:00,
2013-10-10 12:51:00,64.0,61.6,29.85,NW,315,11.0,17.0,92,0.00,,---,0.00,VWS V14.01,2013-10-10 16:51:00,
2013-10-10 12:52:00,64.0,61.6,29.85,WNW,287,17.0,17.0,92,0.00,,---,0.00,VWS V14.01,2013-10-10 16:52:00,
2013-10-10 12:53:00,63.9,61.5,29.85,NW,313,4.0,17.0,92,0.00,,---,0.00,VWS V14.01,2013-10-10 16:53:00,
2013-10-10 12:54:00,63.9,61.5,29.85,NW,321,12.0,18.0,92,0.00,,---,0.00,VWS V14.01,2013-10-10 16:54:00,
2013-10-10 12:55:00,63.9,61.5,29.85,NW,304,10.0,18.0,92,0.00,,---,0.00,VWS V14.01,2013-10-10 16:55:00,
2013-10-10 12:56:00,63.9,61.5,29.85,NNW,346,11.0,14.0,92,0.00,,---,0.00,VWS V14.01,2013-10-10 16:56:00,
2013-10-10 12:57:00,63.8,61.4,29.85,WNW,291,12.0,17.0,92,0.00,,---,0.00,VWS V14.01,2013-10-10 16:57:00,
2013-10-10 12:58:00,63.8,61.4,29.85,NNW,333,12.0,17.0,92,0.00,,---,0.00,VWS V14.01,2013-10-10 16:58:00,
2013-10-10 12:59:00,63.8,61.4,29.85,NNW,333,12.0,17.0,92,0.00,,---,0.00,VWS V14.01,2013-10-10 16:59:00,
2013-10-10 13:00:00,63.8,61.4,29.85,NNW,333,12.0,12.0,92,0.00,,---,0.00,VWS V14.01,2013-10-10 17:00:00,
2013-10-10 13:01:00,63.8,61.4,29.85,NNW,333,12.0,12.0,92,0.00,,---,0.00,VWS V14.01,2013-10-10 17:01:00,
2013-10-10 13:02:00,63.8,61.4,29.85,NNW,333,12.0,12.0,92,0.00,,---,0.00,VWS V14.01,2013-10-10 17:02:00,
2013-10-10 13:03:00,63.8,61.4,29.85,NW,309,9.0,12.0,92,0.00,,---,0.00,VWS V14.01,2013-10-10 17:03:00,
2013-10-10 13:04:00,63.9,61.5,29.85,WNW,292,12.0,14.0,92,0.00,,---,0.00,VWS V14.01,2013-10-10 17:04:00,
2013-10-10 13:05:00,63.8,61.4,29.85,WNW,295,9.0,14.0,92,0.00,,---,0.00,VWS V14.01,2013-10-10 17:05:00,
2013-10-10 13:06:00,63.9,61.5,29.85,NW,319,7.0,12.0,92,0.00,,---,0.00,VWS V14.01,2013-10-10 17:06:00,
2013-10-10 13:07:00,63.9,61.5,29.85,NW,313,16.0,16.0,92,0.00,,---,0.00,VWS V14.01,2013-10-10 17:07:00,
2013-10-10 13:08:00,63.9,61.5,29.85,NW,311,7.0,16.0,92,0.00,,---,0.00,VWS V14.01,2013-10-10 17:08:00,
2013-10-10 13:09:00,63.9,61.5,29.85,NNW,336,11.0,16.0,92,0.00,,---,0.00,VWS V14.01,2013-10-10 17:09:00,
2013-10-10 13:10:00,64.0,61.6,29.85,WNW,293,14.0,16.0,92,0.00,,---,0.00,VWS V14.01,2013-10-10 17:10:00,
2013-10-10 13:11:00,64.0,61.6,29.85,NW,325,12.0,13.0,92,0.00,,---,0.00,VWS V14.01,2013-10-10 17:11:00,
2013-10-10 13:12:00,64.0,61.6,29.85,NW,316,9.0,14.0,92,0.00,,---,0.00,VWS V14.01,2013-10-10 17:12:00,
2013-10-10 13:13:00,63.9,61.5,29.85,NNW,331,9.0,14.0,92,0.00,,---,0.00,VWS V14.01,2013-10-10 17:13:00,
2013-10-10 13:14:00,64.0,61.6,29.85,NNW,348,12.0,14.0,92,0.00,,---,0.00,VWS V14.01,2013-10-10 17:14:00,
2013-10-10 13:15:00,64.0,61.6,29.85,NW,315,4.0,15.0,92,0.00,,---,0.00,VWS V14.01,2013-10-10 17:15:00,
2013-10-10 13:16:00,64.1,61.7,29.85,WNW,291,15.0,15.0,92,0.00,,---,0.00,VWS V14.01,2013-10-10 17:16:00,
2013-10-10 13:17:00,64.1,61.7,29.85,NW,323,12.0,18.0,92,0.00,,---,0.00,VWS V14.01,2013-10-10 17:17:00,
2013-10-10 13:18:00,64.1,61.7,29.85,WNW,296,10.0,18.0,92,0.00,,---,0.00,VWS V14.01,2013-10-10 17:18:00,
2013-10-10 13:19:00,64.2,61.8,29.85,NW,313,6.0,18.0,92,0.00,,---,0.00,VWS V14.01,2013-10-10 17:19:00,
2013-10-10 13:20:00,64.2,61.8,29.85,NW,313,6.0,18.0,92,0.00,,---,0.00,VWS V14.01,2013-10-10 17:20:00,
2013-10-10 13:21:00,64.2,61.8,29.85,NW,313,6.0,6.0,92,0.00,,---,0.00,VWS V14.01,2013-10-10 17:21:00,
2013-10-10 13:22:00,64.2,61.8,29.85,NW,313,6.0,6.0,92,0.00,,---,0.00,VWS V14.01,2013-10-10 17:22:00,
2013-10-10 13:23:00,64.2,61.8,29.85,NW,313,6.0,6.0,92,0.00,,---,0.00,VWS V14.01,2013-10-10 17:23:00,
2013-10-10 13:24:00,64.2,61.8,29.85,NW,313,6.0,6.0,92,0.00,,---,0.00,VWS V14.01,2013-10-10 17:24:00,
2013-10-10 13:25:00,64.3,61.9,29.85,NW,318,10.0,11.0,92,0.00,,---,0.00,VWS V14.01,2013-10-10 17:25:00,
2013-10-10 13:26:00,64.3,61.6,29.85,NNW,334,6.0,13.0,91,0.00,,---,0.00,VWS V14.01,2013-10-10 17:26:00,
2013-10-10 13:27:00,64.3,61.6,29.85,NW,304,11.0,14.0,91,0.00,,---,0.00,VWS V14.01,2013-10-10 17:27:00,
2013-10-10 13:28:00,64.3,61.6,29.85,NW,321,10.0,14.0,91,0.00,,---,0.00,VWS V14.01,2013-10-10 17:28:00,
2013-10-10 13:29:00,64.3,61.6,29.85,NW,308,6.0,14.0,91,0.00,,---,0.00,VWS V14.01,2013-10-10 17:29:00,
2013-10-10 13:30:00,64.4,61.7,29.84,NW,315,13.0,14.0,91,0.00,,---,0.00,VWS V14.01,2013-10-10 17:30:00,
2013-10-10 13:31:00,64.4,61.7,29.84,NW,319,11.0,14.0,91,0.00,,---,0.00,VWS V14.01,2013-10-10 17:31:00,
2013-10-10 13:32:00,64.4,61.7,29.84,West,279,14.0,15.0,91,0.00,,---,0.00,VWS V14.01,2013-10-10 17:32:00,
2013-10-10 13:33:00,64.4,61.7,29.84,WNW,292,10.0,15.0,91,0.00,,---,0.00,VWS V14.01,2013-10-10 17:33:00,
2013-10-10 13:34:00,64.4,61.7,29.84,WNW,298,4.0,15.0,91,0.00,,---,0.00,VWS V14.01,2013-10-10 17:34:00,
2013-10-10 13:35:00,64.4,61.7,29.84,NW,324,7.0,15.0,91,0.00,,---,0.00,VWS V14.01,2013-10-10 17:35:00,
2013-10-10 13:36:00,64.4,61.7,29.84,NW,307,12.0,21.0,91,0.00,,---,0.00,VWS V14.01,2013-10-10 17:36:00,
2013-10-10 13:37:00,64.4,61.7,29.84,NW,309,10.0,21.0,91,0.00,,---,0.00,VWS V14.01,2013-10-10 17:37:00,
2013-10-10 13:38:00,64.3,61.6,29.84,WNW,288,12.0,21.0,91,0.00,,---,0.00,VWS V14.01,2013-10-10 17:38:00,
2013-10-10 13:39:00,64.4,61.7,29.84,NW,311,6.0,21.0,91,0.00,,---,0.00,VWS V14.01,2013-10-10 17:39:00,
2013-10-10 13:40:00,64.5,61.8,29.84,NNW,327,9.0,21.0,91,0.00,,---,0.00,VWS V14.01,2013-10-10 17:40:00,
2013-10-10 13:41:00,64.5,61.8,29.84,NNW,336,11.0,11.0,91,0.00,,---,0.00,VWS V14.01,2013-10-10 17:41:00,
2013-10-10 13:42:00,64.5,61.8,29.84,WNW,300,11.0,11.0,91,0.00,,---,0.00,VWS V14.01,2013-10-10 17:42:00,
2013-10-10 13:43:00,64.6,61.6,29.84,NW,306,9.0,14.0,90,0.00,,---,0.00,VWS V14.01,2013-10-10 17:43:00,
2013-10-10 13:44:00,64.6,61.6,29.84,WNW,292,7.0,14.0,90,0.00,,---,0.00,VWS V14.01,2013-10-10 17:44:00,
2013-10-10 13:45:00,64.6,61.6,29.84,WNW,295,7.0,14.0,90,0.00,,---,0.00,VWS V14.01,2013-10-10 17:45:00,
2013-10-10 13:46:00,64.7,61.7,29.84,NW,304,9.0,10.0,90,0.00,,---,0.00,VWS V14.01,2013-10-10 17:46:00,
2013-10-10 13:47:00,64.7,61.7,29.84,WNW,295,11.0,14.0,90,0.00,,---,0.00,VWS V14.01,2013-10-10 17:47:00,
2013-10-10 13:48:00,64.7,61.7,29.84,WNW,299,11.0,14.0,90,0.00,,---,0.00,VWS V14.01,2013-10-10 17:48:00,
2013-10-10 13:49:00,64.7,61.7,29.84,WNW,291,12.0,14.0,90,0.00,,---,0.00,VWS V14.01,2013-10-10 17:49:00,
2013-10-10 13:50:00,64.7,61.7,29.84,WNW,298,11.0,15.0,90,0.00,,---,0.00,VWS V14.01,2013-10-10 17:50:00,
2013-10-10 13:51:00,64.6,61.6,29.84,WNW,299,11.0,15.0,90,0.00,,---,0.00,VWS V14.01,2013-10-10 17:51:00,
2013-10-10 13:52:00,64.5,61.5,29.84,WNW,295,7.0,15.0,90,0.00,,---,0.00,VWS V14.01,2013-10-10 17:52:00,
2013-10-10 13:53:00,64.6,61.6,29.84,WNW,296,16.0,16.0,90,0.00,,---,0.00,VWS V14.01,2013-10-10 17:53:00,
2013-10-10 13:54:00,64.5,61.5,29.84,WNW,295,9.0,16.0,90,0.00,,---,0.00,VWS V14.01,2013-10-10 17:54:00,
2013-10-10 13:55:00,64.5,61.5,29.84,NW,325,6.0,16.0,90,0.00,,---,0.00,VWS V14.01,2013-10-10 17:55:00,
2013-10-10 13:56:00,64.5,61.5,29.84,WNW,298,9.0,9.0,90,0.00,,---,0.00,VWS V14.01,2013-10-10 17:56:00,
2013-10-10 13:57:00,64.6,61.6,29.84,WNW,302,9.0,12.0,90,0.00,,---,0.00,VWS V14.01,2013-10-10 17:57:00,
2013-10-10 13:58:00,64.6,61.6,29.84,NW,316,10.0,17.0,90,0.00,,---,0.00,VWS V14.01,2013-10-10 17:58:00,
2013-10-10 13:59:00,64.6,61.6,29.84,WNW,286,11.0,17.0,90,0.00,,---,0.00,VWS V14.01,2013-10-10 17:59:00,
2013-10-10 14:00:00,64.5,61.5,29.84,NW,323,10.0,17.0,90,0.00,,---,0.00,VWS V14.01,2013-10-10 18:00:00,
2013-10-10 14:01:00,64.5,61.5,29.84,NNW,330,10.0,14.0,90,0.00,,---,0.00,VWS V14.01,2013-10-10 18:01:00,
2013-10-10 14:02:00,64.5,61.5,29.84,NW,306,9.0,14.0,90,0.00,,---,0.00,VWS V14.01,2013-10-10 18:02:00,
2013-10-10 14:03:00,64.4,61.4,29.84,WNW,302,11.0,16.0,90,0.00,,---,0.00,VWS V14.01,2013-10-10 18:03:00,
2013-10-10 14:04:00,64.4,61.4,29.84,WNW,296,14.0,18.0,90,0.00,,---,0.00,VWS V14.01,2013-10-10 18:04:00,
2013-10-10 14:05:00,64.4,61.4,29.84,WNW,299,12.0,18.0,90,0.00,,---,0.00,VWS V14.01,2013-10-10 18:05:00,
2013-10-10 14:06:00,64.3,61.3,29.84,NW,306,11.0,14.0,90,0.00,,---,0.00,VWS V14.01,2013-10-10 18:06:00,
2013-10-10 14:07:00,64.3,61.3,29.84,WNW,302,9.0,14.0,90,0.00,,---,0.00,VWS V14.01,2013-10-10 18:07:00,
2013-10-10 14:08:00,64.3,61.3,29.84,WNW,284,9.0,14.0,90,0.00,,---,0.00,VWS V14.01,2013-10-10 18:08:00,
2013-10-10 14:09:00,64.3,61.3,29.84,WNW,294,10.0,14.0,90,0.00,,---,0.00,VWS V14.01,2013-10-10 18:09:00,
2013-10-10 14:10:00,64.3,61.3,29.84,NW,315,7.0,14.0,90,0.00,,---,0.00,VWS V14.01,2013-10-10 18:10:00,
2013-10-10 14:11:00,64.4,61.4,29.84,NW,311,6.0,8.0,90,0.00,,---,0.00,VWS V14.01,2013-10-10 18:11:00,
2013-10-10 14:12:00,64.4,61.4,29.84,WNW,292,10.0,12.0,90,0.00,,---,0.00,VWS V14.01,2013-10-10 18:12:00,
2013-10-10 14:13:00,64.4,61.4,29.84,NW,308,12.0,13.0,90,0.00,,---,0.00,VWS V14.01,2013-10-10 18:13:00,
2013-10-10 14:14:00,64.4,61.4,29.84,West,281,12.0,13.0,90,0.00,,---,0.00,VWS V14.01,2013-10-10 18:14:00,
2013-10-10 14:15:00,64.4,61.4,29.84,WNW,303,10.0,14.0,90,0.00,,---,0.00,VWS V14.01,2013-10-10 18:15:00,
2013-10-10 14:16:00,64.4,61.4,29.84,NW,312,11.0,11.0,90,0.00,,---,0.00,VWS V14.01,2013-10-10 18:16:00,
2013-10-10 14:17:00,64.4,61.4,29.84,NW,306,17.0,17.0,90,0.00,,---,0.00,VWS V14.01,2013-10-10 18:17:00,
2013-10-10 14:18:00,64.3,61.3,29.84,WNW,286,17.0,19.0,90,0.00,,---,0.00,VWS V14.01,2013-10-10 18:18:00,
2013-10-10 14:19:00,64.2,61.2,29.84,WNW,296,16.0,19.0,90,0.00,,---,0.00,VWS V14.01,2013-10-10 18:19:00,
2013-10-10 14:20:00,64.2,61.2,29.84,NW,314,6.0,19.0,90,0.00,,---,0.00,VWS V14.01,2013-10-10 18:20:00,
2013-10-10 14:21:00,64.1,61.1,29.84,NNW,333,7.0,15.0,90,0.00,,---,0.00,VWS V14.01,2013-10-10 18:21:00,
2013-10-10 14:22:00,64.1,61.1,29.84,NNW,328,12.0,15.0,90,0.00,,---,0.00,VWS V14.01,2013-10-10 18:22:00,
2013-10-10 14:23:00,64.2,61.2,29.84,NW,307,7.0,15.0,90,0.00,,---,0.00,VWS V14.01,2013-10-10 18:23:00,
2013-10-10 14:24:00,64.2,61.2,29.84,NW,305,6.0,15.0,90,0.00,,---,0.00,VWS V14.01,2013-10-10 18:24:00,
2013-10-10 14:25:00,64.2,61.2,29.84,WNW,288,9.0,15.0,90,0.00,,---,0.00,VWS V14.01,2013-10-10 18:25:00,
2013-10-10 14:26:00,64.3,61.3,29.84,WNW,302,10.0,10.0,90,0.00,,---,0.00,VWS V14.01,2013-10-10 18:26:00,
2013-10-10 14:27:00,64.4,61.4,29.84,WNW,291,14.0,14.0,90,0.00,,---,0.00,VWS V14.01,2013-10-10 18:27:00,
2013-10-10 14:28:00,64.3,61.3,29.84,WNW,297,8.0,14.0,90,0.00,,---,0.00,VWS V14.01,2013-10-10 18:28:00,
2013-10-10 14:29:00,64.3,61.3,29.84,NW,316,13.0,15.0,90,0.00,,---,0.00,VWS V14.01,2013-10-10 18:29:00,
2013-10-10 14:30:00,64.3,61.3,29.84,WNW,293,5.0,15.0,90,0.00,,---,0.00,VWS V14.01,2013-10-10 18:30:00,
2013-10-10 14:31:00,64.4,61.4,29.84,WNW,302,9.0,9.0,90,0.00,,---,0.00,VWS V14.01,2013-10-10 18:31:00,
2013-10-10 14:32:00,64.3,61.3,29.84,WNW,289,14.0,15.0,90,0.00,,---,0.00,VWS V14.01,2013-10-10 18:32:00,
2013-10-10 14:33:00,64.3,61.3,29.84,NNW,331,7.0,15.0,90,0.00,,---,0.00,VWS V14.01,2013-10-10 18:33:00,
2013-10-10 14:34:00,64.4,61.4,29.84,NW,325,5.0,15.0,90,0.00,,---,0.00,VWS V14.01,2013-10-10 18:34:00,
2013-10-10 14:35:00,64.4,61.4,29.84,WNW,296,4.0,15.0,90,0.00,,---,0.00,VWS V14.01,2013-10-10 18:35:00,
2013-10-10 14:36:00,64.4,61.4,29.84,NNW,336,9.0,10.0,90,0.00,,---,0.00,VWS V14.01,2013-10-10 18:36:00,
2013-10-10 14:37:00,64.4,61.4,29.84,WNW,289,10.0,14.0,90,0.00,,---,0.00,VWS V14.01,2013-10-10 18:37:00,
2013-10-10 14:38:00,64.3,61.3,29.84,WNW,294,9.0,14.0,90,0.00,,---,0.00,VWS V14.01,2013-10-10 18:38:00,
2013-10-10 14:39:00,64.3,61.3,29.84,WNW,301,11.0,14.0,90,0.00,,---,0.00,VWS V14.01,2013-10-10 18:39:00,
2013-10-10 14:40:00,64.3,61.3,29.84,WNW,294,10.0,14.0,90,0.00,,---,0.00,VWS V14.01,2013-10-10 18:40:00,
2013-10-10 14:41:00,64.3,61.3,29.84,WNW,298,4.0,10.0,90,0.00,,---,0.00,VWS V14.01,2013-10-10 18:41:00,
2013-10-10 14:42:00,64.3,61.3,29.84,WNW,303,10.0,10.0,90,0.00,,---,0.00,VWS V14.01,2013-10-10 18:42:00,
2013-10-10 14:43:00,64.3,61.3,29.84,WNW,302,4.0,10.0,90,0.00,,---,0.00,VWS V14.01,2013-10-10 18:43:00,
2013-10-10 14:44:00,64.2,61.2,29.84,West,275,12.0,12.0,90,0.00,,---,0.00,VWS V14.01,2013-10-10 18:44:00,
2013-10-10 14:45:00,64.2,61.2,29.84,NW,317,7.0,14.0,90,0.00,,---,0.00,VWS V14.01,2013-10-10 18:45:00,
2013-10-10 14:46:00,64.2,61.2,29.84,WNW,297,10.0,11.0,90,0.00,,---,0.00,VWS V14.01,2013-10-10 18:46:00,
2013-10-10 14:47:00,64.1,61.1,29.84,WNW,290,10.0,13.0,90,0.00,,---,0.00,VWS V14.01,2013-10-10 18:47:00,
2013-10-10 14:48:00,64.1,61.1,29.84,NW,312,10.0,15.0,90,0.00,,---,0.00,VWS V14.01,2013-10-10 18:48:00,
2013-10-10 14:49:00,64.1,61.1,29.84,NW,321,6.0,15.0,90,0.00,,---,0.00,VWS V14.01,2013-10-10 18:49:00,
2013-10-10 14:50:00,64.1,61.1,29.84,NW,319,5.0,15.0,90,0.00,,---,0.00,VWS V14.01,2013-10-10 18:50:00,
2013-10-10 14:51:00,64.1,61.1,29.84,WNW,292,10.0,13.0,90,0.00,,---,0.00,VWS V14.01,2013-10-10 18:51:00,
2013-10-10 14:52:00,64.1,61.1,29.84,WNW,303,7.0,13.0,90,0.00,,---,0.00,VWS V14.01,2013-10-10 18:52:00,
2013-10-10 14:53:00,64.0,61.0,29.84,NW,317,9.0,13.0,90,0.00,,---,0.00,VWS V14.01,2013-10-10 18:53:00,
2013-10-10 14:54:00,64.0,61.0,29.84,WNW,299,9.0,13.0,90,0.00,,---,0.00,VWS V14.01,2013-10-10 18:54:00,
2013-10-10 14:55:00,63.9,60.9,29.84,WNW,292,9.0,16.0,90,0.00,,---,0.00,VWS V14.01,2013-10-10 18:55:00,
2013-10-10 14:56:00,63.9,60.9,29.84,WNW,294,12.0,14.0,90,0.00,,---,0.00,VWS V14.01,2013-10-10 18:56:00,
2013-10-10 14:57:00,63.9,60.9,29.84,WNW,292,11.0,14.0,90,0.00,,---,0.00,VWS V14.01,2013-10-10 18:57:00,
2013-10-10 14:58:00,63.9,60.9,29.84,WNW,292,6.0,14.0,90,0.00,,---,0.00,VWS V14.01,2013-10-10 18:58:00,
2013-10-10 14:59:00,63.8,60.8,29.84,WNW,296,13.0,19.0,90,0.00,,---,0.00,VWS V14.01,2013-10-10 18:59:00,
2013-10-10 15:00:00,63.8,60.8,29.84,WNW,287,12.0,19.0,90,0.00,,---,0.00,VWS V14.01,2013-10-10 19:00:00,
2013-10-10 15:01:00,63.8,60.8,29.84,WNW,295,9.0,16.0,90,0.00,,---,0.00,VWS V14.01,2013-10-10 19:01:00,
2013-10-10 15:02:00,63.7,60.7,29.84,WNW,284,14.0,16.0,90,0.00,,---,0.00,VWS V14.01,2013-10-10 19:02:00,
2013-10-10 15:03:00,63.7,60.7,29.84,NW,306,5.0,16.0,90,0.00,,---,0.00,VWS V14.01,2013-10-10 19:03:00,
2013-10-10 15:04:00,63.7,60.7,29.84,NW,317,9.0,16.0,90,0.00,,---,0.00,VWS V14.01,2013-10-10 19:04:00,
2013-10-10 15:05:00,63.7,60.7,29.84,WNW,283,8.0,16.0,90,0.00,,---,0.00,VWS V14.01,2013-10-10 19:05:00,
2013-10-10 15:06:00,63.7,60.7,29.84,WNW,292,7.0,9.0,90,0.00,,---,0.00,VWS V14.01,2013-10-10 19:06:00,
2013-10-10 15:07:00,63.8,60.8,29.84,WNW,295,15.0,16.0,90,0.00,,---,0.00,VWS V14.01,2013-10-10 19:07:00,
2013-10-10 15:08:00,63.6,60.6,29.84,WNW,288,10.0,16.0,90,0.00,,---,0.00,VWS V14.01,2013-10-10 19:08:00,
2013-10-10 15:09:00,63.6,60.6,29.84,WNW,284,11.0,16.0,90,0.00,,---,0.00,VWS V14.01,2013-10-10 19:09:00,
2013-10-10 15:10:00,63.6,60.6,29.84,WNW,288,12.0,16.0,90,0.00,,---,0.00,VWS V14.01,2013-10-10 19:10:00,
2013-10-10 15:11:00,63.5,60.5,29.84,NW,317,13.0,18.0,90,0.00,,---,0.00,VWS V14.01,2013-10-10 19:11:00,
2013-10-10 15:12:00,63.5,60.5,29.84,WNW,288,13.0,18.0,90,0.00,,---,0.00,VWS V14.01,2013-10-10 19:12:00,
2013-10-10 15:13:00,63.5,60.5,29.84,NW,318,12.0,18.0,90,0.00,,---,0.00,VWS V14.01,2013-10-10 19:13:00,
2013-10-10 15:14:00,63.5,60.5,29.84,NW,308,11.0,18.0,90,0.00,,---,0.00,VWS V14.01,2013-10-10 19:14:00,
2013-10-10 15:15:00,63.4,60.7,29.84,NW,313,11.0,18.0,91,0.00,,---,0.00,VWS V14.01,2013-10-10 19:15:00,
2013-10-10 15:16:00,63.4,60.4,29.84,WNW,292,13.0,16.0,90,0.00,,---,0.00,VWS V14.01,2013-10-10 19:16:00,
2013-10-10 15:17:00,63.4,60.7,29.84,WNW,292,11.0,16.0,91,0.00,,---,0.00,VWS V14.01,2013-10-10 19:17:00,
2013-10-10 15:18:00,63.4,60.7,29.84,NW,311,7.0,16.0,91,0.00,,---,0.00,VWS V14.01,2013-10-10 19:18:00,
2013-10-10 15:19:00,63.4,60.7,29.84,NW,323,9.0,16.0,91,0.00,,---,0.00,VWS V14.01,2013-10-10 19:19:00,
2013-10-10 15:20:00,63.4,60.7,29.84,WNW,301,14.0,16.0,91,0.00,,---,0.00,VWS V14.01,2013-10-10 19:20:00,
2013-10-10 15:21:00,63.4,60.7,29.84,WNW,302,9.0,16.0,91,0.00,,---,0.00,VWS V14.01,2013-10-10 19:21:00,
2013-10-10 15:22:00,63.4,60.7,29.84,NW,320,12.0,17.0,91,0.00,,---,0.00,VWS V14.01,2013-10-10 19:22:00,
2013-10-10 15:23:00,63.4,60.7,29.84,WNW,294,6.0,17.0,91,0.00,,---,0.00,VWS V14.01,2013-10-10 19:23:00,
2013-10-10 15:24:00,63.4,60.7,29.84,WNW,288,5.0,17.0,91,0.00,,---,0.00,VWS V14.01,2013-10-10 19:24:00,
2013-10-10 15:25:00,63.4,60.7,29.84,WNW,284,9.0,17.0,91,0.00,,---,0.00,VWS V14.01,2013-10-10 19:25:00,
2013-10-10 15:26:00,63.4,60.7,29.84,WNW,283,10.0,11.0,91,0.00,,---,0.00,VWS V14.01,2013-10-10 19:26:00,
2013-10-10 15:27:00,63.5,60.8,29.84,WNW,296,8.0,14.0,91,0.00,,---,0.00,VWS V14.01,2013-10-10 19:27:00,
2013-10-10 15:28:00,63.4,60.7,29.84,WNW,285,16.0,16.0,91,0.00,,---,0.00,VWS V14.01,2013-10-10 19:28:00,
2013-10-10 15:29:00,63.3,60.6,29.84,WNW,288,14.0,17.0,91,0.00,,---,0.00,VWS V14.01,2013-10-10 19:29:00,
2013-10-10 15:30:00,63.3,60.6,29.84,WNW,290,15.0,17.0,91,0.00,,---,0.00,VWS V14.01,2013-10-10 19:30:00,
2013-10-10 15:31:00,63.3,60.6,29.84,WNW,290,15.0,15.0,91,0.00,,---,0.00,VWS V14.01,2013-10-10 19:31:00,
2013-10-10 15:32:00,63.3,60.6,29.84,WNW,290,15.0,15.0,91,0.00,,---,0.00,VWS V14.01,2013-10-10 19:32:00,
2013-10-10 15:33:00,63.2,60.5,29.84,NW,309,11.0,17.0,91,0.00,,---,0.00,VWS V14.01,2013-10-10 19:33:00,
2013-10-10 15:34:00,63.2,60.5,29.84,NNW,331,8.0,17.0,91,0.00,,---,0.00,VWS V14.01,2013-10-10 19:34:00,
2013-10-10 15:35:00,63.2,60.5,29.84,NNW,332,6.0,17.0,91,0.00,,---,0.00,VWS V14.01,2013-10-10 19:35:00,
2013-10-10 15:36:00,63.2,60.5,29.84,NW,315,4.0,7.0,91,0.00,,---,0.00,VWS V14.01,2013-10-10 19:36:00,
2013-10-10 15:37:00,63.2,60.5,29.84,WNW,291,5.0,12.0,91,0.00,,---,0.00,VWS V14.01,2013-10-10 19:37:00,
2013-10-10 15:38:00,63.3,60.6,29.84,WNW,295,7.0,13.0,91,0.00,,---,0.00,VWS V14.01,2013-10-10 19:38:00,
2013-10-10 15:39:00,63.3,60.6,29.84,NW,319,10.0,13.0,91,0.00,,---,0.00,VWS V14.01,2013-10-10 19:39:00,
2013-10-10 15:40:00,63.3,60.6,29.84,NW,317,9.0,13.0,91,0.00,,---,0.00,VWS V14.01,2013-10-10 19:40:00,
2013-10-10 15:41:00,63.4,60.7,29.84,NW,313,12.0,13.0,91,0.00,,---,0.00,VWS V14.01,2013-10-10 19:41:00,
2013-10-10 15:42:00,63.3,60.6,29.84,WNW,288,11.0,16.0,91,0.00,,---,0.00,VWS V14.01,2013-10-10 19:42:00,
2013-10-10 15:43:00,63.2,60.5,29.84,NW,316,6.0,16.0,91,0.00,,---,0.00,VWS V14.01,2013-10-10 19:43:00,
2013-10-10 15:44:00,63.2,60.5,29.84,WNW,292,12.0,16.0,91,0.00,,---,0.00,VWS V14.01,2013-10-10 19:44:00,
2013-10-10 15:45:00,63.2,60.5,29.84,WNW,288,12.0,16.0,91,0.00,,---,0.00,VWS V14.01,2013-10-10 19:45:00,
2013-10-10 15:46:00,63.2,60.5,29.84,WNW,289,10.0,13.0,91,0.00,,---,0.00,VWS V14.01,2013-10-10 19:46:00,
2013-10-10 15:47:00,63.2,60.5,29.84,WNW,303,13.0,13.0,91,0.00,,---,0.00,VWS V14.01,2013-10-10 19:47:00,
2013-10-10 15:48:00,63.2,60.5,29.84,NW,308,9.0,15.0,91,0.00,,---,0.00,VWS V14.01,2013-10-10 19:48:00,
2013-10-10 15:49:00,63.1,60.4,29.84,WNW,302,14.0,15.0,91,0.00,,---,0.00,VWS V14.01,2013-10-10 19:49:00,
2013-10-10 15:50:00,63.1,60.4,29.84,WNW,299,12.0,17.0,91,0.00,,---,0.00,VWS V14.01,2013-10-10 19:50:00,
2013-10-10 15:51:00,63.1,60.4,29.84,WNW,298,16.0,16.0,91,0.00,,---,0.00,VWS V14.01,2013-10-10 19:51:00,
2013-10-10 15:52:00,63.1,60.4,29.84,WNW,292,11.0,16.0,91,0.00,,---,0.00,VWS V14.01,2013-10-10 19:52:00,
2013-10-10 15:53:00,63.1,60.4,29.84,WNW,292,11.0,16.0,91,0.00,,---,0.00,VWS V14.01,2013-10-10 19:53:00,
2013-10-10 15:54:00,63.1,60.4,29.84,WNW,292,11.0,16.0,91,0.00,,---,0.00,VWS V14.01,2013-10-10 19:54:00,
2013-10-10 15:55:00,63.1,60.4,29.84,WNW,284,12.0,16.0,91,0.00,,---,0.00,VWS V14.01,2013-10-10 19:55:00,
2013-10-10 15:56:00,63.0,60.3,29.84,NW,312,12.0,17.0,91,0.00,,---,0.00,VWS V14.01,2013-10-10 19:56:00,
2013-10-10 15:57:00,63.0,60.3,29.84,WNW,300,10.0,17.0,91,0.00,,---,0.00,VWS V14.01,2013-10-10 19:57:00,
2013-10-10 15:58:00,63.0,60.3,29.84,WNW,291,12.0,17.0,91,0.00,,---,0.00,VWS V14.01,2013-10-10 19:58:00,
2013-10-10 15:59:00,63.1,60.4,29.84,NW,306,6.0,17.0,91,0.00,,---,0.00,VWS V14.01,2013-10-10 19:59:00,
2013-10-10 16:00:00,63.1,60.4,29.84,NNW,335,9.0,17.0,91,0.00,,---,0.00,VWS V14.01,2013-10-10 20:00:00,
2013-10-10 16:01:00,63.1,60.4,29.84,WNW,294,11.0,12.0,91,0.00,,---,0.00,VWS V14.01,2013-10-10 20:01:00,
2013-10-10 16:02:00,63.1,60.4,29.84,NW,311,6.0,14.0,91,0.00,,---,0.00,VWS V14.01,2013-10-10 20:02:00,
2013-10-10 16:03:00,63.2,60.5,29.84,NNW,329,6.0,16.0,91,0.00,,---,0.00,VWS V14.01,2013-10-10 20:03:00,
2013-10-10 16:04:00,63.2,60.5,29.84,NW,324,5.0,16.0,91,0.00,,---,0.00,VWS V14.01,2013-10-10 20:04:00,
2013-10-10 16:05:00,63.2,60.5,29.84,WNW,302,7.0,16.0,91,0.00,,---,0.00,VWS V14.01,2013-10-10 20:05:00,
2013-10-10 16:06:00,63.2,60.5,29.84,NNW,336,4.0,12.0,91,0.00,,---,0.00,VWS V14.01,2013-10-10 20:06:00,
2013-10-10 16:07:00,63.2,60.5,29.84,NW,314,15.0,16.0,91,0.00,,---,0.00,VWS V14.01,2013-10-10 20:07:00,
2013-10-10 16:08:00,63.1,60.4,29.84,NW,304,15.0,18.0,91,0.00,,---,0.00,VWS V14.01,2013-10-10 20:08:00,
2013-10-10 16:09:00,63.1,60.1,29.84,WNW,298,11.0,18.0,90,0.00,,---,0.00,VWS V14.01,2013-10-10 20:09:00,
2013-10-10 16:10:00,63.1,60.1,29.84,WNW,290,13.0,19.0,90,0.00,,---,0.00,VWS V14.01,2013-10-10 20:10:00,
2013-10-10 16:11:00,63.1,60.1,29.84,WNW,290,11.0,17.0,90,0.00,,---,0.00,VWS V14.01,2013-10-10 20:11:00,
2013-10-10 16:12:00,63.1,60.1,29.84,WNW,300,14.0,20.0,90,0.00,,---,0.00,VWS V14.01,2013-10-10 20:12:00,
2013-10-10 16:13:00,63.0,60.0,29.84,WNW,299,13.0,20.0,90,0.00,,---,0.00,VWS V14.01,2013-10-10 20:13:00,
2013-10-10 16:14:00,63.0,60.0,29.84,NW,314,11.0,20.0,90,0.00,,---,0.00,VWS V14.01,2013-10-10 20:14:00,
2013-10-10 16:15:00,63.0,60.3,29.84,NW,304,11.0,20.0,91,0.00,,---,0.00,VWS V14.01,2013-10-10 20:15:00,
2013-10-10 16:16:00,62.9,60.2,29.84,WNW,294,19.0,20.0,91,0.00,,---,0.00,VWS V14.01,2013-10-10 20:16:00,
2013-10-10 16:17:00,62.9,60.2,29.84,West,281,15.0,20.0,91,0.00,,---,0.00,VWS V14.01,2013-10-10 20:17:00,
2013-10-10 16:18:00,62.9,60.2,29.84,WNW,299,10.0,20.0,91,0.00,,---,0.00,VWS V14.01,2013-10-10 20:18:00,
2013-10-10 16:19:00,62.9,60.2,29.84,NW,314,13.0,20.0,91,0.00,,---,0.00,VWS V14.01,2013-10-10 20:19:00,
2013-10-10 16:20:00,62.9,60.2,29.84,WNW,292,14.0,20.0,91,0.00,,---,0.00,VWS V14.01,2013-10-10 20:20:00,
2013-10-10 16:21:00,62.9,60.2,29.84,WNW,296,16.0,18.0,91,0.00,,---,0.00,VWS V14.01,2013-10-10 20:21:00,
2013-10-10 16:22:00,62.9,60.2,29.84,NW,314,12.0,18.0,91,0.00,,---,0.00,VWS V14.01,2013-10-10 20:22:00,
2013-10-10 16:23:00,62.9,60.2,29.84,NW,304,14.0,18.0,91,0.00,,---,0.00,VWS V14.01,2013-10-10 20:23:00,
2013-10-10 16:24:00,62.9,60.2,29.84,NNW,334,11.0,18.0,91,0.00,,---,0.00,VWS V14.01,2013-10-10 20:24:00,
2013-10-10 16:25:00,62.9,60.2,29.84,WNW,300,15.0,18.0,91,0.00,,---,0.00,VWS V14.01,2013-10-10 20:25:00,
2013-10-10 16:26:00,62.9,60.2,29.84,NW,324,5.0,15.0,91,0.00,,---,0.00,VWS V14.01,2013-10-10 20:26:00,
2013-10-10 16:27:00,63.0,60.3,29.84,WNW,299,6.0,15.0,91,0.00,,---,0.00,VWS V14.01,2013-10-10 20:27:00,
2013-10-10 16:28:00,63.0,60.3,29.84,NW,309,6.0,15.0,91,0.00,,---,0.00,VWS V14.01,2013-10-10 20:28:00,
2013-10-10 16:29:00,63.0,60.3,29.84,WNW,296,13.0,18.0,91,0.00,,---,0.00,VWS V14.01,2013-10-10 20:29:00,
2013-10-10 16:30:00,63.0,60.3,29.84,NW,305,18.0,19.0,91,0.00,,---,0.00,VWS V14.01,2013-10-10 20:30:00,
2013-10-10 16:31:00,62.9,60.2,29.84,WNW,290,15.0,19.0,91,0.00,,---,0.00,VWS V14.01,2013-10-10 20:31:00,
2013-10-10 16:32:00,62.8,60.1,29.84,NW,305,6.0,19.0,91,0.00,,---,0.00,VWS V14.01,2013-10-10 20:32:00,
2013-10-10 16:33:00,62.8,60.1,29.84,WNW,292,9.0,19.0,91,0.00,,---,0.00,VWS V14.01,2013-10-10 20:33:00,
2013-10-10 16:34:00,62.8,60.1,29.84,NNW,331,11.0,19.0,91,0.00,,---,0.00,VWS V14.01,2013-10-10 20:34:00,
2013-10-10 16:35:00,62.8,60.1,29.84,NNW,331,11.0,19.0,91,0.00,,---,0.00,VWS V14.01,2013-10-10 20:35:00,
2013-10-10 16:36:00,62.8,60.1,29.84,WNW,298,14.0,17.0,91,0.00,,---,0.00,VWS V14.01,2013-10-10 20:36:00,
2013-10-10 16:37:00,62.8,60.1,29.84,WNW,298,14.0,17.0,91,0.00,,---,0.00,VWS V14.01,2013-10-10 20:37:00,
2013-10-10 16:38:00,62.8,60.1,29.84,WNW,298,14.0,17.0,91,0.00,,---,0.00,VWS V14.01,2013-10-10 20:38:00,
2013-10-10 16:39:00,62.7,60.0,29.84,NW,304,12.0,17.0,91,0.00,,---,0.00,VWS V14.01,2013-10-10 20:39:00,
2013-10-10 16:40:00,62.7,60.0,29.84,WNW,300,12.0,17.0,91,0.00,,---,0.00,VWS V14.01,2013-10-10 20:40:00,
2013-10-10 16:41:00,62.7,60.0,29.84,WNW,294,11.0,16.0,91,0.00,,---,0.00,VWS V14.01,2013-10-10 20:41:00,
2013-10-10 16:42:00,62.7,60.0,29.84,NW,326,13.0,16.0,91,0.00,,---,0.00,VWS V14.01,2013-10-10 20:42:00,
2013-10-10 16:43:00,62.7,60.0,29.84,NW,325,9.0,18.0,91,0.00,,---,0.00,VWS V14.01,2013-10-10 20:43:00,
2013-10-10 16:44:00,62.7,60.0,29.85,NW,319,10.0,18.0,91,0.00,,---,0.00,VWS V14.01,2013-10-10 20:44:00,
2013-10-10 16:45:00,62.7,60.0,29.85,NW,309,9.0,18.0,91,0.00,,---,0.00,VWS V14.01,2013-10-10 20:45:00,
2013-10-10 16:46:00,62.7,60.0,29.85,NW,323,10.0,17.0,91,0.00,,---,0.00,VWS V14.01,2013-10-10 20:46:00,
2013-10-10 16:47:00,62.7,60.0,29.85,WNW,296,12.0,17.0,91,0.00,,---,0.00,VWS V14.01,2013-10-10 20:47:00,
2013-10-10 16:48:00,62.7,60.0,29.85,WNW,293,11.0,17.0,91,0.00,,---,0.00,VWS V14.01,2013-10-10 20:48:00,
2013-10-10 16:49:00,62.7,60.0,29.85,NW,313,12.0,20.0,91,0.00,,---,0.00,VWS V14.01,2013-10-10 20:49:00,
2013-10-10 16:50:00,62.7,60.0,29.85,WNW,294,10.0,20.0,91,0.00,,---,0.00,VWS V14.01,2013-10-10 20:50:00,
2013-10-10 16:51:00,62.7,59.7,29.85,NW,311,9.0,16.0,90,0.00,,---,0.00,VWS V14.01,2013-10-10 20:51:00,
2013-10-10 16:52:00,62.7,59.7,29.85,NW,313,7.0,19.0,90,0.00,,---,0.00,VWS V14.01,2013-10-10 20:52:00,
2013-10-10 16:53:00,62.7,59.7,29.85,NW,311,12.0,19.0,90,0.00,,---,0.00,VWS V14.01,2013-10-10 20:53:00,
2013-10-10 16:54:00,62.7,59.7,29.85,NNW,334,10.0,19.0,90,0.00,,---,0.00,VWS V14.01,2013-10-10 20:54:00,
2013-10-10 16:55:00,62.7,59.7,29.85,WNW,296,7.0,19.0,90,0.00,,---,0.00,VWS V14.01,2013-10-10 20:55:00,
2013-10-10 16:56:00,62.7,59.7,29.85,WNW,302,3.0,7.0,90,0.00,,---,0.00,VWS V14.01,2013-10-10 20:56:00,
2013-10-10 16:57:00,62.7,59.7,29.85,NW,304,9.0,15.0,90,0.00,,---,0.00,VWS V14.01,2013-10-10 20:57:00,
2013-10-10 16:58:00,62.7,59.7,29.85,NW,310,8.0,16.0,90,0.00,,---,0.00,VWS V14.01,2013-10-10 20:58:00,
2013-10-10 16:59:00,62.7,59.7,29.85,WNW,302,8.0,16.0,90,0.00,,---,0.00,VWS V14.01,2013-10-10 20:59:00,
2013-10-10 17:00:00,62.7,59.7,29.85,NW,309,9.0,16.0,90,0.00,,---,0.00,VWS V14.01,2013-10-10 21:00:00,
2013-10-10 17:01:00,62.7,59.7,29.85,WNW,296,12.0,16.0,90,0.00,,---,0.00,VWS V14.01,2013-10-10 21:01:00,
2013-10-10 17:02:00,62.7,59.7,29.85,NW,322,12.0,16.0,90,0.00,,---,0.00,VWS V14.01,2013-10-10 21:02:00,
2013-10-10 17:03:00,62.7,59.7,29.85,WNW,296,9.0,16.0,90,0.00,,---,0.00,VWS V14.01,2013-10-10 21:03:00,
2013-10-10 17:04:00,62.7,59.7,29.85,NW,307,6.0,16.0,90,0.00,,---,0.00,VWS V14.01,2013-10-10 21:04:00,
2013-10-10 17:05:00,62.8,59.8,29.85,NNW,338,6.0,16.0,90,0.00,,---,0.00,VWS V14.01,2013-10-10 21:05:00,
2013-10-10 17:06:00,62.8,59.8,29.85,NW,314,8.0,12.0,90,0.00,,---,0.00,VWS V14.01,2013-10-10 21:06:00,
2013-10-10 17:07:00,62.8,59.8,29.85,NW,312,12.0,12.0,90,0.00,,---,0.00,VWS V14.01,2013-10-10 21:07:00,
2013-10-10 17:08:00,62.8,59.8,29.85,NNW,327,10.0,14.0,90,0.00,,---,0.00,VWS V14.01,2013-10-10 21:08:00,
2013-10-10 17:09:00,62.8,59.8,29.85,NW,307,10.0,14.0,90,0.00,,---,0.00,VWS V14.01,2013-10-10 21:09:00,
2013-10-10 17:10:00,62.8,59.8,29.85,NNW,342,11.0,14.0,90,0.00,,---,0.00,VWS V14.01,2013-10-10 21:10:00,
2013-10-10 17:11:00,62.8,59.8,29.85,WNW,294,5.0,11.0,90,0.00,,---,0.00,VWS V14.01,2013-10-10 21:11:00,
2013-10-10 17:12:00,62.8,59.8,29.85,NW,320,9.0,14.0,90,0.00,,---,0.00,VWS V14.01,2013-10-10 21:12:00,
2013-10-10 17:13:00,62.8,59.8,29.85,WNW,302,8.0,14.0,90,0.00,,---,0.00,VWS V14.01,2013-10-10 21:13:00,
2013-10-10 17:14:00,62.7,59.7,29.85,NNW,338,10.0,14.0,90,0.00,,---,0.00,VWS V14.01,2013-10-10 21:14:00,
2013-10-10 17:15:00,62.7,59.7,29.85,NNW,335,13.0,15.0,90,0.00,,---,0.00,VWS V14.01,2013-10-10 21:15:00,
2013-10-10 17:16:00,62.7,59.7,29.85,NNW,331,9.0,15.0,90,0.00,,---,0.00,VWS V14.01,2013-10-10 21:16:00,
2013-10-10 17:17:00,62.7,59.7,29.85,WNW,295,10.0,15.0,90,0.00,,---,0.00,VWS V14.01,2013-10-10 21:17:00,
2013-10-10 17:18:00,62.7,59.7,29.85,NW,316,6.0,15.0,90,0.00,,---,0.00,VWS V14.01,2013-10-10 21:18:00,
2013-10-10 17:19:00,62.7,59.7,29.85,WNW,287,7.0,15.0,90,0.00,,---,0.00,VWS V14.01,2013-10-10 21:19:00,
2013-10-10 17:20:00,62.7,59.7,29.85,NNW,339,5.0,15.0,90,0.00,,---,0.00,VWS V14.01,2013-10-10 21:20:00,
2013-10-10 17:21:00,62.8,59.8,29.85,NNW,329,6.0,13.0,90,0.00,,---,0.00,VWS V14.01,2013-10-10 21:21:00,
2013-10-10 17:22:00,62.8,59.8,29.85,WNW,294,7.0,13.0,90,0.00,,---,0.00,VWS V14.01,2013-10-10 21:22:00,
2013-10-10 17:23:00,62.9,59.9,29.85,WNW,290,6.0,13.0,90,0.00,,---,0.00,VWS V14.01,2013-10-10 21:23:00,
2013-10-10 17:24:00,62.9,59.9,29.85,WNW,283,11.0,16.0,90,0.00,,---,0.00,VWS V14.01,2013-10-10 21:24:00,
2013-10-10 17:25:00,62.8,59.8,29.85,NW,304,17.0,17.0,90,0.00,,---,0.00,VWS V14.01,2013-10-10 21:25:00,
2013-10-10 17:26:00,62.8,59.8,29.85,NW,317,13.0,17.0,90,0.00,,---,0.00,VWS V14.01,2013-10-10 21:26:00,
2013-10-10 17:27:00,62.7,59.7,29.85,NW,314,6.0,17.0,90,0.00,,---,0.00,VWS V14.01,2013-10-10 21:27:00,
2013-10-10 17:28:00,62.7,59.7,29.85,NW,306,11.0,17.0,90,0.00,,---,0.00,VWS V14.01,2013-10-10 21:28:00,
2013-10-10 17:29:00,62.7,59.7,29.85,NW,312,6.0,17.0,90,0.00,,---,0.00,VWS V14.01,2013-10-10 21:29:00,
2013-10-10 17:30:00,62.7,59.7,29.85,NW,315,6.0,17.0,90,0.00,,---,0.00,VWS V14.01,2013-10-10 21:30:00,
2013-10-10 17:31:00,62.7,59.7,29.85,WNW,298,9.0,13.0,90,0.00,,---,0.00,VWS V14.01,2013-10-10 21:31:00,
2013-10-10 17:32:00,62.7,59.7,29.85,NW,321,13.0,14.0,90,0.00,,---,0.00,VWS V14.01,2013-10-10 21:32:00,
2013-10-10 17:33:00,62.7,59.7,29.85,WNW,302,12.0,14.0,90,0.00,,---,0.00,VWS V14.01,2013-10-10 21:33:00,
2013-10-10 17:34:00,62.7,59.7,29.85,NW,311,7.0,14.0,90,0.00,,---,0.00,VWS V14.01,2013-10-10 21:34:00,
2013-10-10 17:35:00,62.7,59.7,29.85,WNW,292,12.0,14.0,90,0.00,,---,0.00,VWS V14.01,2013-10-10 21:35:00,
2013-10-10 17:36:00,62.7,59.7,29.85,WNW,288,5.0,14.0,90,0.00,,---,0.00,VWS V14.01,2013-10-10 21:36:00,
2013-10-10 17:37:00,62.7,59.7,29.85,NW,311,7.0,14.0,90,0.00,,---,0.00,VWS V14.01,2013-10-10 21:37:00,
2013-10-10 17:38:00,62.7,59.7,29.85,WNW,293,13.0,15.0,90,0.00,,---,0.00,VWS V14.01,2013-10-10 21:38:00,
2013-10-10 17:39:00,62.7,59.7,29.85,WNW,286,14.0,17.0,90,0.00,,---,0.00,VWS V14.01,2013-10-10 21:39:00,
2013-10-10 17:40:00,62.7,59.7,29.85,WNW,286,14.0,17.0,90,0.00,,---,0.00,VWS V14.01,2013-10-10 21:40:00,
2013-10-10 17:41:00,62.7,59.7,29.85,WNW,286,14.0,14.0,90,0.00,,---,0.00,VWS V14.01,2013-10-10 21:41:00,
2013-10-10 17:42:00,62.6,59.6,29.85,WNW,302,13.0,14.0,90,0.00,,---,0.00,VWS V14.01,2013-10-10 21:42:00,
2013-10-10 17:43:00,62.6,59.6,29.85,NW,304,6.0,15.0,90,0.00,,---,0.00,VWS V14.01,2013-10-10 21:43:00,
2013-10-10 17:44:00,62.6,59.6,29.85,NW,313,8.0,15.0,90,0.00,,---,0.00,VWS V14.01,2013-10-10 21:44:00,
2013-10-10 17:45:00,62.6,59.6,29.85,WNW,300,5.0,15.0,90,0.00,,---,0.00,VWS V14.01,2013-10-10 21:45:00,
2013-10-10 17:46:00,62.6,59.6,29.85,WNW,302,5.0,10.0,90,0.00,,---,0.00,VWS V14.01,2013-10-10 21:46:00,
2013-10-10 17:47:00,62.7,59.7,29.85,WNW,296,10.0,12.0,90,0.00,,---,0.00,VWS V14.01,2013-10-10 21:47:00,
2013-10-10 17:48:00,62.7,59.7,29.85,NW,312,7.0,12.0,90,0.00,,---,0.00,VWS V14.01,2013-10-10 21:48:00,
2013-10-10 17:49:00,62.7,59.7,29.85,NW,304,6.0,12.0,90,0.00,,---,0.00,VWS V14.01,2013-10-10 21:49:00,
2013-10-10 17:50:00,62.7,59.7,29.85,WNW,290,5.0,12.0,90,0.00,,---,0.00,VWS V14.01,2013-10-10 21:50:00,
2013-10-10 17:51:00,62.7,59.7,29.85,NW,318,4.0,9.0,90,0.00,,---,0.00,VWS V14.01,2013-10-10 21:51:00,
2013-10-10 17:52:00,62.7,59.7,29.85,NW,304,6.0,11.0,90,0.00,,---,0.00,VWS V14.01,2013-10-10 21:52:00,
2013-10-10 17:53:00,62.7,59.7,29.85,WNW,290,3.0,11.0,90,0.00,,---,0.00,VWS V14.01,2013-10-10 21:53:00,
2013-10-10 17:54:00,62.7,59.7,29.85,NW,319,11.0,11.0,90,0.00,,---,0.00,VWS V14.01,2013-10-10 21:54:00,
2013-10-10 17:55:00,62.7,59.7,29.85,WNW,290,8.0,14.0,90,0.00,,---,0.00,VWS V14.01,2013-10-10 21:55:00,
2013-10-10 17:56:00,62.6,59.6,29.85,WNW,293,14.0,14.0,90,0.00,,---,0.00,VWS V14.01,2013-10-10 21:56:00,
2013-10-10 17:57:00,62.6,59.6,29.85,WNW,292,7.0,14.0,90,0.00,,---,0.00,VWS V14.01,2013-10-10 21:57:00,
2013-10-10 17:58:00,62.6,59.6,29.85,NW,304,3.0,14.0,90,0.00,,---,0.00,VWS V14.01,2013-10-10 21:58:00,
2013-10-10 17:59:00,62.6,59.6,29.85,WNW,289,9.0,14.0,90,0.00,,---,0.00,VWS V14.01,2013-10-10 21:59:00,
2013-10-10 18:00:00,62.6,59.6,29.85,WNW,285,10.0,14.0,90,0.00,,---,0.00,VWS V14.01,2013-10-10 22:00:00,
2013-10-10 18:01:00,62.5,59.5,29.85,WNW,298,12.0,12.0,90,0.00,,---,0.00,VWS V14.01,2013-10-10 22:01:00,
2013-10-10 18:02:00,62.5,59.5,29.85,NW,305,12.0,14.0,90,0.00,,---,0.00,VWS V14.01,2013-10-10 22:02:00,
2013-10-10 18:03:00,62.5,59.5,29.85,WNW,290,10.0,14.0,90,0.00,,---,0.00,VWS V14.01,2013-10-10 22:03:00,
2013-10-10 18:04:00,62.5,59.5,29.85,WNW,289,13.0,14.0,90,0.00,,---,0.00,VWS V14.01,2013-10-10 22:04:00,
2013-10-10 18:05:00,62.5,59.5,29.85,WNW,293,11.0,17.0,90,0.00,,---,0.00,VWS V14.01,2013-10-10 22:05:00,
2013-10-10 18:06:00,62.4,59.4,29.85,WNW,299,13.0,15.0,90,0.00,,---,0.00,VWS V14.01,2013-10-10 22:06:00,
2013-10-10 18:07:00,62.4,59.4,29.85,WNW,285,14.0,16.0,90,0.00,,---,0.00,VWS V14.01,2013-10-10 22:07:00,
2013-10-10 18:08:00,62.3,59.3,29.85,WNW,297,7.0,16.0,90,0.00,,---,0.00,VWS V14.01,2013-10-10 22:08:00,
2013-10-10 18:09:00,62.3,59.3,29.85,WNW,288,12.0,16.0,90,0.00,,---,0.00,VWS V14.01,2013-10-10 22:09:00,
2013-10-10 18:10:00,62.3,59.3,29.85,WNW,298,16.0,19.0,90,0.00,,---,0.00,VWS V14.01,2013-10-10 22:10:00,
2013-10-10 18:11:00,62.3,59.3,29.85,WNW,289,14.0,19.0,90,0.00,,---,0.00,VWS V14.01,2013-10-10 22:11:00,
2013-10-10 18:12:00,62.2,59.2,29.85,WNW,303,17.0,19.0,90,0.00,,---,0.00,VWS V14.01,2013-10-10 22:12:00,
2013-10-10 18:13:00,62.2,59.2,29.85,WNW,297,8.0,19.0,90,0.00,,---,0.00,VWS V14.01,2013-10-10 22:13:00,
2013-10-10 18:14:00,62.2,59.2,29.85,WNW,291,16.0,19.0,90,0.00,,---,0.00,VWS V14.01,2013-10-10 22:14:00,
2013-10-10 18:15:00,62.1,59.1,29.85,NW,304,12.0,19.0,90,0.00,,---,0.00,VWS V14.01,2013-10-10 22:15:00,
2013-10-10 18:16:00,62.1,59.1,29.85,WNW,290,11.0,13.0,90,0.00,,---,0.00,VWS V14.01,2013-10-10 22:16:00,
2013-10-10 18:17:00,62.2,59.2,29.85,WNW,303,13.0,13.0,90,0.00,,---,0.00,VWS V14.01,2013-10-10 22:17:00,
2013-10-10 18:18:00,62.2,59.2,29.85,WNW,284,9.0,13.0,90,0.00,,---,0.00,VWS V14.01,2013-10-10 22:18:00,
2013-10-10 18:19:00,62.2,59.5,29.85,NW,321,9.0,14.0,91,0.00,,---,0.00,VWS V14.01,2013-10-10 22:19:00,
2013-10-10 18:20:00,62.2,59.5,29.85,WNW,294,10.0,14.0,91,0.00,,---,0.00,VWS V14.01,2013-10-10 22:20:00,
2013-10-10 18:21:00,62.1,59.5,29.85,WNW,290,10.0,12.0,91,0.00,,---,0.00,VWS V14.01,2013-10-10 22:21:00,
2013-10-10 18:22:00,62.2,59.5,29.85,WNW,300,7.0,12.0,91,0.00,,---,0.00,VWS V14.01,2013-10-10 22:22:00,
2013-10-10 18:23:00,62.2,59.5,29.85,NW,305,13.0,13.0,91,0.00,,---,0.00,VWS V14.01,2013-10-10 22:23:00,
2013-10-10 18:24:00,62.1,59.5,29.85,WNW,296,14.0,14.0,91,0.00,,---,0.00,VWS V14.01,2013-10-10 22:24:00,
2013-10-10 18:25:00,62.1,59.5,29.85,WNW,297,11.0,16.0,91,0.00,,---,0.00,VWS V14.01,2013-10-10 22:25:00,
2013-10-10 18:26:00,62.1,59.5,29.85,NW,305,10.0,14.0,91,0.00,,---,0.00,VWS V14.01,2013-10-10 22:26:00,
2013-10-10 18:27:00,62.0,59.3,29.85,WNW,293,6.0,14.0,91,0.00,,---,0.00,VWS V14.01,2013-10-10 22:27:00,
2013-10-10 18:28:00,62.1,59.5,29.85,WNW,292,14.0,14.0,91,0.00,,---,0.00,VWS V14.01,2013-10-10 22:28:00,
2013-10-10 18:29:00,62.0,59.3,29.85,WNW,288,16.0,18.0,91,0.00,,---,0.00,VWS V14.01,2013-10-10 22:29:00,
2013-10-10 18:30:00,62.0,59.3,29.85,WNW,290,6.0,18.0,91,0.00,,---,0.00,VWS V14.01,2013-10-10 22:30:00,
2013-10-10 18:31:00,62.0,59.3,29.85,NW,321,12.0,14.0,91,0.00,,---,0.00,VWS V14.01,2013-10-10 22:31:00,
2013-10-10 18:32:00,62.0,59.3,29.85,WNW,298,17.0,17.0,91,0.00,,---,0.00,VWS V14.01,2013-10-10 22:32:00,
2013-10-10 18:33:00,62.0,59.3,29.85,WNW,300,10.0,17.0,91,0.00,,---,0.00,VWS V14.01,2013-10-10 22:33:00,
2013-10-10 18:34:00,62.0,59.3,29.85,NW,305,9.0,17.0,91,0.00,,---,0.00,VWS V14.01,2013-10-10 22:34:00,
2013-10-10 18:35:00,61.9,59.2,29.85,WNW,300,16.0,17.0,91,0.00,,---,0.00,VWS V14.01,2013-10-10 22:35:00,
2013-10-10 18:36:00,62.0,59.3,29.85,NW,322,12.0,16.0,91,0.00,,---,0.00,VWS V14.01,2013-10-10 22:36:00,
2013-10-10 18:37:00,61.9,59.2,29.85,NW,308,12.0,16.0,91,0.00,,---,0.00,VWS V14.01,2013-10-10 22:37:00,
2013-10-10 18:38:00,61.9,59.2,29.85,NW,323,4.0,16.0,91,0.00,,---,0.00,VWS V14.01,2013-10-10 22:38:00,
2013-10-10 18:39:00,62.0,59.3,29.85,NW,306,8.0,16.0,91,0.00,,---,0.00,VWS V14.01,2013-10-10 22:39:00,
2013-10-10 18:40:00,61.9,59.2,29.85,NW,306,7.0,16.0,91,0.00,,---,0.00,VWS V14.01,2013-10-10 22:40:00,
2013-10-10 18:41:00,61.9,59.2,29.85,NW,305,6.0,9.0,91,0.00,,---,0.00,VWS V14.01,2013-10-10 22:41:00,
2013-10-10 18:42:00,61.9,59.2,29.85,NW,305,6.0,9.0,91,0.00,,---,0.00,VWS V14.01,2013-10-10 22:42:00,
2013-10-10 18:43:00,61.9,59.2,29.85,NW,306,15.0,15.0,91,0.00,,---,0.00,VWS V14.01,2013-10-10 22:43:00,
2013-10-10 18:44:00,61.9,59.2,29.85,WNW,289,13.0,16.0,91,0.00,,---,0.00,VWS V14.01,2013-10-10 22:44:00,
2013-10-10 18:45:00,61.8,59.2,29.85,WNW,294,12.0,16.0,91,0.00,,---,0.00,VWS V14.01,2013-10-10 22:45:00,
2013-10-10 18:46:00,61.8,59.2,29.85,NNW,333,13.0,16.0,91,0.00,,---,0.00,VWS V14.01,2013-10-10 22:46:00,
2013-10-10 18:47:00,61.8,59.2,29.85,NNW,345,14.0,16.0,91,0.00,,---,0.00,VWS V14.01,2013-10-10 22:47:00,
2013-10-10 18:48:00,61.7,59.0,29.85,WNW,292,10.0,17.0,91,0.00,,---,0.00,VWS V14.01,2013-10-10 22:48:00,
2013-10-10 18:49:00,61.7,59.0,29.85,NW,315,11.0,17.0,91,0.00,,---,0.00,VWS V14.01,2013-10-10 22:49:00,
2013-10-10 18:50:00,61.8,59.2,29.85,NW,309,11.0,17.0,91,0.00,,---,0.00,VWS V14.01,2013-10-10 22:50:00,
2013-10-10 18:51:00,61.8,59.2,29.85,WNW,299,14.0,14.0,91,0.00,,---,0.00,VWS V14.01,2013-10-10 22:51:00,
2013-10-10 18:52:00,61.7,59.0,29.85,NW,322,9.0,17.0,91,0.00,,---,0.00,VWS V14.01,2013-10-10 22:52:00,
2013-10-10 18:53:00,61.7,59.0,29.85,WNW,298,14.0,17.0,91,0.00,,---,0.00,VWS V14.01,2013-10-10 22:53:00,
2013-10-10 18:54:00,61.7,59.0,29.85,NW,306,6.0,17.0,91,0.00,,---,0.00,VWS V14.01,2013-10-10 22:54:00,
2013-10-10 18:55:00,61.7,59.0,29.85,WNW,302,6.0,17.0,91,0.00,,---,0.00,VWS V14.01,2013-10-10 22:55:00,
2013-10-10 18:56:00,61.7,59.0,29.85,WNW,301,7.0,13.0,91,0.00,,---,0.00,VWS V14.01,2013-10-10 22:56:00,
2013-10-10 18:57:00,61.7,59.0,29.85,WNW,288,7.0,14.0,91,0.00,,---,0.00,VWS V14.01,2013-10-10 22:57:00,
2013-10-10 18:58:00,61.7,59.0,29.85,NW,308,11.0,14.0,91,0.00,,---,0.00,VWS V14.01,2013-10-10 22:58:00,
2013-10-10 18:59:00,61.6,59.0,29.85,NW,319,11.0,14.0,91,0.00,,---,0.00,VWS V14.01,2013-10-10 22:59:00,
2013-10-10 19:00:00,61.6,59.0,29.85,WNW,286,11.0,15.0,91,0.00,,---,0.00,VWS V14.01,2013-10-10 23:00:00,
2013-10-10 19:01:00,61.6,59.0,29.85,NW,308,6.0,13.0,91,0.00,,---,0.00,VWS V14.01,2013-10-10 23:01:00,
2013-10-10 19:02:00,61.6,59.0,29.85,NW,304,6.0,13.0,91,0.00,,---,0.00,VWS V14.01,2013-10-10 23:02:00,
2013-10-10 19:03:00,61.6,59.0,29.85,North,9,13.0,13.0,91,0.00,,---,0.00,VWS V14.01,2013-10-10 23:03:00,
2013-10-10 19:04:00,61.6,59.0,29.85,NW,309,12.0,16.0,91,0.00,,---,0.00,VWS V14.01,2013-10-10 23:04:00,
2013-10-10 19:05:00,61.5,58.8,29.85,NW,309,5.0,16.0,91,0.00,,---,0.00,VWS V14.01,2013-10-10 23:05:00,
2013-10-10 19:06:00,61.5,58.8,29.85,NW,315,9.0,16.0,91,0.00,,---,0.00,VWS V14.01,2013-10-10 23:06:00,
2013-10-10 19:07:00,61.5,58.8,29.85,WNW,298,14.0,16.0,91,0.00,,---,0.00,VWS V14.01,2013-10-10 23:07:00,
2013-10-10 19:08:00,61.5,58.8,29.85,WNW,298,6.0,16.0,91,0.00,,---,0.00,VWS V14.01,2013-10-10 23:08:00,
2013-10-10 19:09:00,61.5,58.8,29.85,NNW,338,8.0,16.0,91,0.00,,---,0.00,VWS V14.01,2013-10-10 23:09:00,
2013-10-10 19:10:00,61.5,58.8,29.85,NW,321,8.0,16.0,91,0.00,,---,0.00,VWS V14.01,2013-10-10 23:10:00,
2013-10-10 19:11:00,61.5,58.8,29.85,WNW,302,5.0,9.0,91,0.00,,---,0.00,VWS V14.01,2013-10-10 23:11:00,
2013-10-10 19:12:00,61.5,58.8,29.85,WNW,303,13.0,13.0,91,0.00,,---,0.00,VWS V14.01,2013-10-10 23:12:00,
2013-10-10 19:13:00,61.5,58.8,29.85,NNW,342,13.0,13.0,91,0.00,,---,0.00,VWS V14.01,2013-10-10 23:13:00,
2013-10-10 19:14:00,61.5,58.8,29.85,WNW,295,4.0,13.0,91,0.00,,---,0.00,VWS V14.01,2013-10-10 23:14:00,
2013-10-10 19:15:00,61.5,58.8,29.85,NW,312,12.0,13.0,91,0.00,,---,0.00,VWS V14.01,2013-10-10 23:15:00,
2013-10-10 19:16:00,61.4,58.8,29.85,WNW,300,9.0,16.0,91,0.00,,---,0.00,VWS V14.01,2013-10-10 23:16:00,
2013-10-10 19:17:00,61.4,58.8,29.85,NNW,327,9.0,17.0,91,0.00,,---,0.00,VWS V14.01,2013-10-10 23:17:00,
2013-10-10 19:18:00,61.4,58.8,29.85,WNW,296,14.0,17.0,91,0.00,,---,0.00,VWS V14.01,2013-10-10 23:18:00,
2013-10-10 19:19:00,61.4,58.8,29.85,WNW,302,7.0,17.0,91,0.00,,---,0.00,VWS V14.01,2013-10-10 23:19:00,
2013-10-10 19:20:00,61.4,58.8,29.85,WNW,284,11.0,17.0,91,0.00,,---,0.00,VWS V14.01,2013-10-10 23:20:00,
2013-10-10 19:21:00,61.4,58.8,29.85,NNW,331,9.0,14.0,91,0.00,,---,0.00,VWS V14.01,2013-10-10 23:21:00,
2013-10-10 19:22:00,61.4,58.8,29.85,WNW,301,10.0,14.0,91,0.00,,---,0.00,VWS V14.01,2013-10-10 23:22:00,
2013-10-10 19:23:00,61.4,58.8,29.85,NW,319,9.0,14.0,91,0.00,,---,0.00,VWS V14.01,2013-10-10 23:23:00,
2013-10-10 19:24:00,61.4,58.8,29.85,NNW,330,9.0,14.0,91,0.00,,---,0.00,VWS V14.01,2013-10-10 23:24:00,
2013-10-10 19:25:00,61.4,58.8,29.85,NNW,330,9.0,14.0,91,0.00,,---,0.00,VWS V14.01,2013-10-10 23:25:00,
2013-10-10 19:26:00,61.4,58.8,29.85,WNW,297,6.0,9.0,91,0.00,,---,0.00,VWS V14.01,2013-10-10 23:26:00,
2013-10-10 19:27:00,61.4,58.8,29.85,WNW,302,6.0,9.0,91,0.00,,---,0.00,VWS V14.01,2013-10-10 23:27:00,
2013-10-10 19:28:00,61.4,58.8,29.85,WNW,287,10.0,15.0,91,0.00,,---,0.00,VWS V14.01,2013-10-10 23:28:00,
2013-10-10 19:29:00,61.4,58.8,29.85,NW,306,9.0,15.0,91,0.00,,---,0.00,VWS V14.01,2013-10-10 23:29:00,
2013-10-10 19:30:00,61.4,58.8,29.85,NW,323,14.0,15.0,91,0.00,,---,0.00,VWS V14.01,2013-10-10 23:30:00,
2013-10-10 19:31:00,61.4,58.8,29.85,WNW,297,14.0,14.0,91,0.00,,---,0.00,VWS V14.01,2013-10-10 23:31:00,
2013-10-10 19:32:00,61.4,58.8,29.85,WNW,300,15.0,16.0,91,0.00,,---,0.00,VWS V14.01,2013-10-10 23:32:00,
2013-10-10 19:33:00,61.3,58.7,29.85,NW,307,10.0,16.0,91,0.00,,---,0.00,VWS V14.01,2013-10-10 23:33:00,
2013-10-10 19:34:00,61.3,58.7,29.85,NW,317,12.0,16.0,91,0.00,,---,0.00,VWS V14.01,2013-10-10 23:34:00,
2013-10-10 19:35:00,61.3,58.7,29.85,NW,316,9.0,16.0,91,0.00,,---,0.00,VWS V14.01,2013-10-10 23:35:00,
2013-10-10 19:36:00,61.3,58.7,29.85,NW,304,13.0,13.0,91,0.00,,---,0.00,VWS V14.01,2013-10-10 23:36:00,
2013-10-10 19:37:00,61.3,58.7,29.85,NNW,332,10.0,15.0,91,0.00,,---,0.00,VWS V14.01,2013-10-10 23:37:00,
2013-10-10 19:38:00,61.3,58.7,29.85,NW,309,6.0,15.0,91,0.00,,---,0.00,VWS V14.01,2013-10-10 23:38:00,
2013-10-10 19:39:00,61.3,58.7,29.85,NW,319,5.0,15.0,91,0.00,,---,0.00,VWS V14.01,2013-10-10 23:39:00,
2013-10-10 19:40:00,61.3,58.7,29.85,NNW,338,7.0,15.0,91,0.00,,---,0.00,VWS V14.01,2013-10-10 23:40:00,
2013-10-10 19:41:00,61.3,58.7,29.85,NW,325,6.0,10.0,91,0.00,,---,0.00,VWS V14.01,2013-10-10 23:41:00,
2013-10-10 19:42:00,61.3,58.7,29.85,WNW,286,8.0,10.0,91,0.00,,---,0.00,VWS V14.01,2013-10-10 23:42:00,
2013-10-10 19:43:00,61.3,58.7,29.85,WNW,302,5.0,12.0,91,0.00,,---,0.00,VWS V14.01,2013-10-10 23:43:00,
2013-10-10 19:44:00,61.4,58.8,29.85,West,281,9.0,12.0,91,0.00,,---,0.00,VWS V14.01,2013-10-10 23:44:00,
2013-10-10 19:45:00,61.4,58.8,29.86,NW,304,5.0,5.0,91,0.00,,---,0.00,VWS V14.01,2013-10-10 23:45:00,
2013-10-10 19:46:00,61.3,58.7,29.86,WNW,292,11.0,13.0,91,0.00,,---,0.00,VWS V14.01,2013-10-10 23:46:00,
2013-10-10 19:47:00,61.4,58.8,29.86,NW,311,11.0,13.0,91,0.00,,---,0.00,VWS V14.01,2013-10-10 23:47:00,
2013-10-10 19:48:00,61.4,59.1,29.86,NW,304,9.0,13.0,92,0.00,,---,0.00,VWS V14.01,2013-10-10 23:48:00,
2013-10-10 19:49:00,61.3,58.7,29.86,WNW,297,9.0,13.0,91,0.00,,---,0.00,VWS V14.01,2013-10-10 23:49:00,
2013-10-10 19:50:00,61.3,58.7,29.86,NW,309,8.0,13.0,91,0.00,,---,0.00,VWS V14.01,2013-10-10 23:50:00,
2013-10-10 19:51:00,61.4,58.8,29.86,WNW,293,6.0,10.0,91,0.00,,---,0.00,VWS V14.01,2013-10-10 23:51:00,
2013-10-10 19:52:00,61.4,59.1,29.86,WNW,297,4.0,10.0,92,0.00,,---,0.00,VWS V14.01,2013-10-10 23:52:00,
2013-10-10 19:53:00,61.4,59.1,29.86,WNW,290,10.0,12.0,92,0.00,,---,0.00,VWS V14.01,2013-10-10 23:53:00,
2013-10-10 19:54:00,61.4,59.1,29.86,WNW,296,5.0,12.0,92,0.00,,---,0.00,VWS V14.01,2013-10-10 23:54:00,
2013-10-10 19:55:00,61.4,59.1,29.86,WNW,300,9.0,14.0,92,0.00,,---,0.00,VWS V14.01,2013-10-10 23:55:00,
2013-10-10 19:56:00,61.4,59.1,29.86,WNW,294,9.0,10.0,92,0.00,,---,0.00,VWS V14.01,2013-10-10 23:56:00,
2013-10-10 19:57:00,61.4,59.1,29.86,WNW,300,11.0,12.0,92,0.00,,---,0.00,VWS V14.01,2013-10-10 23:57:00,
2013-10-10 19:58:00,61.4,59.1,29.86,NW,304,5.0,13.0,92,0.00,,---,0.00,VWS V14.01,2013-10-10 23:58:00,
2013-10-10 19:59:00,61.3,59.0,29.86,WNW,289,10.0,13.0,92,0.00,,---,0.00,VWS V14.01,2013-10-10 23:59:00,
2013-10-10 20:00:00,61.3,59.0,29.86,WNW,302,11.0,14.0,92,0.00,,---,0.00,VWS V14.01,2013-10-11 00:00:00,
2013-10-10 20:01:00,61.3,59.0,29.86,WNW,298,6.0,12.0,92,0.00,,---,0.00,VWS V14.01,2013-10-11 00:01:00,
2013-10-10 20:02:00,61.3,59.0,29.86,NW,323,10.0,15.0,92,0.00,,---,0.00,VWS V14.01,2013-10-11 00:02:00,
2013-10-10 20:03:00,61.3,59.0,29.86,WNW,286,9.0,15.0,92,0.00,,---,0.00,VWS V14.01,2013-10-11 00:03:00,
2013-10-10 20:04:00,61.2,58.9,29.86,WNW,286,15.0,16.0,92,0.00,,---,0.00,VWS V14.01,2013-10-11 00:04:00,
2013-10-10 20:05:00,61.2,58.9,29.86,WNW,296,12.0,16.0,92,0.00,,---,0.00,VWS V14.01,2013-10-11 00:05:00,
2013-10-10 20:06:00,61.2,58.9,29.86,NW,306,5.0,12.0,92,0.00,,---,0.00,VWS V14.01,2013-10-11 00:06:00,
2013-10-10 20:07:00,61.2,58.9,29.86,WNW,290,14.0,14.0,92,0.00,,---,0.00,VWS V14.01,2013-10-11 00:07:00,
2013-10-10 20:08:00,61.2,58.9,29.86,NW,306,12.0,17.0,92,0.00,,---,0.00,VWS V14.01,2013-10-11 00:08:00,
2013-10-10 20:09:00,61.2,58.9,29.86,WNW,300,17.0,17.0,92,0.00,,---,0.00,VWS V14.01,2013-10-11 00:09:00,
2013-10-10 20:10:00,61.2,58.9,29.86,WNW,295,10.0,17.0,92,0.00,,---,0.00,VWS V14.01,2013-10-11 00:10:00,
2013-10-10 20:11:00,61.2,58.9,29.86,NW,317,8.0,11.0,92,0.00,,---,0.00,VWS V14.01,2013-10-11 00:11:00,
2013-10-10 20:12:00,61.2,58.9,29.86,WNW,300,14.0,15.0,92,0.00,,---,0.00,VWS V14.01,2013-10-11 00:12:00,
2013-10-10 20:13:00,61.1,58.8,29.86,WNW,292,11.0,16.0,92,0.00,,---,0.00,VWS V14.01,2013-10-11 00:13:00,
2013-10-10 20:14:00,61.1,58.8,29.86,WNW,294,12.0,16.0,92,0.00,,---,0.00,VWS V14.01,2013-10-11 00:14:00,
2013-10-10 20:15:00,61.1,58.8,29.86,NNW,327,10.0,16.0,92,0.00,,---,0.00,VWS V14.01,2013-10-11 00:15:00,
2013-10-10 20:16:00,61.1,58.8,29.86,NW,325,9.0,13.0,92,0.00,,---,0.00,VWS V14.01,2013-10-11 00:16:00,
2013-10-10 20:17:00,61.1,58.8,29.86,WNW,303,10.0,14.0,92,0.00,,---,0.00,VWS V14.01,2013-10-11 00:17:00,
2013-10-10 20:18:00,61.2,58.9,29.86,NW,323,7.0,14.0,92,0.00,,---,0.00,VWS V14.01,2013-10-11 00:18:00,
2013-10-10 20:19:00,61.2,58.9,29.86,WNW,303,13.0,14.0,92,0.00,,---,0.00,VWS V14.01,2013-10-11 00:19:00,
2013-10-10 20:20:00,61.2,58.9,29.86,WNW,298,14.0,14.0,92,0.00,,---,0.00,VWS V14.01,2013-10-11 00:20:00,
2013-10-10 20:21:00,61.1,58.8,29.86,NW,326,4.0,14.0,92,0.00,,---,0.00,VWS V14.01,2013-10-11 00:21:00,
2013-10-10 20:22:00,61.1,58.8,29.86,NW,316,11.0,14.0,92,0.00,,---,0.00,VWS V14.01,2013-10-11 00:22:00,
2013-10-10 20:23:00,61.1,58.8,29.86,West,265,14.0,14.0,92,0.00,,---,0.00,VWS V14.01,2013-10-11 00:23:00,
2013-10-10 20:24:00,61.1,58.8,29.86,WNW,297,7.0,14.0,92,0.00,,---,0.00,VWS V14.01,2013-10-11 00:24:00,
2013-10-10 20:25:00,61.2,58.9,29.86,WNW,288,11.0,14.0,92,0.00,,---,0.00,VWS V14.01,2013-10-11 00:25:00,
2013-10-10 20:26:00,61.2,58.9,29.86,WNW,288,11.0,11.0,92,0.00,,---,0.00,VWS V14.01,2013-10-11 00:26:00,
2013-10-10 20:27:00,61.2,58.9,29.86,WNW,288,11.0,11.0,92,0.00,,---,0.00,VWS V14.01,2013-10-11 00:27:00,
2013-10-10 20:28:00,61.2,58.9,29.86,WNW,288,6.0,13.0,92,0.00,,---,0.00,VWS V14.01,2013-10-11 00:28:00,
2013-10-10 20:29:00,61.2,58.9,29.86,NW,316,6.0,13.0,92,0.00,,---,0.00,VWS V14.01,2013-10-11 00:29:00,
2013-10-10 20:30:00,61.2,58.9,29.86,WNW,299,7.0,14.0,92,0.00,,---,0.00,VWS V14.01,2013-10-11 00:30:00,
2013-10-10 20:31:00,61.2,58.9,29.86,NW,304,15.0,15.0,92,0.00,,---,0.00,VWS V14.01,2013-10-11 00:31:00,
2013-10-10 20:32:00,61.1,58.8,29.86,WNW,288,9.0,15.0,92,0.00,,---,0.00,VWS V14.01,2013-10-11 00:32:00,
2013-10-10 20:33:00,61.1,58.8,29.86,NW,311,7.0,15.0,92,0.00,,---,0.00,VWS V14.01,2013-10-11 00:33:00,
2013-10-10 20:34:00,61.1,58.8,29.86,NW,311,6.0,15.0,92,0.00,,---,0.00,VWS V14.01,2013-10-11 00:34:00,
2013-10-10 20:35:00,61.2,58.9,29.86,WNW,294,16.0,16.0,92,0.00,,---,0.00,VWS V14.01,2013-10-11 00:35:00,
2013-10-10 20:36:00,61.1,58.8,29.86,WNW,286,10.0,16.0,92,0.00,,---,0.00,VWS V14.01,2013-10-11 00:36:00,
2013-10-10 20:37:00,61.1,58.8,29.86,North,355,9.0,16.0,92,0.00,,---,0.00,VWS V14.01,2013-10-11 00:37:00,
2013-10-10 20:38:00,61.1,58.8,29.86,NW,309,10.0,16.0,92,0.00,,---,0.00,VWS V14.01,2013-10-11 00:38:00,
2013-10-10 20:39:00,61.1,58.8,29.86,WNW,299,6.0,16.0,92,0.00,,---,0.00,VWS V14.01,2013-10-11 00:39:00,
2013-10-10 20:40:00,61.1,58.8,29.86,West,277,9.0,16.0,92,0.00,,---,0.00,VWS V14.01,2013-10-11 00:40:00,
2013-10-10 20:41:00,61.1,58.8,29.86,WNW,292,5.0,12.0,92,0.00,,---,0.00,VWS V14.01,2013-10-11 00:41:00,
2013-10-10 20:42:00,61.1,58.8,29.86,NW,320,9.0,12.0,92,0.00,,---,0.00,VWS V14.01,2013-10-11 00:42:00,
2013-10-10 20:43:00,61.1,58.8,29.86,WNW,298,9.0,13.0,92,0.00,,---,0.00,VWS V14.01,2013-10-11 00:43:00,
2013-10-10 20:44:00,61.1,58.8,29.86,NNW,342,7.0,13.0,92,0.00,,---,0.00,VWS V14.01,2013-10-11 00:44:00,
2013-10-10 20:45:00,61.1,58.8,29.86,NW,315,7.0,13.0,92,0.00,,---,0.00,VWS V14.01,2013-10-11 00:45:00,
2013-10-10 20:46:00,61.1,58.8,29.86,NW,305,6.0,11.0,92,0.00,,---,0.00,VWS V14.01,2013-10-11 00:46:00,
2013-10-10 20:47:00,61.1,58.8,29.86,WNW,302,5.0,11.0,92,0.00,,---,0.00,VWS V14.01,2013-10-11 00:47:00,
2013-10-10 20:48:00,61.1,58.8,29.86,WNW,301,11.0,11.0,92,0.00,,---,0.00,VWS V14.01,2013-10-11 00:48:00,
2013-10-10 20:49:00,61.1,58.8,29.86,WNW,283,10.0,13.0,92,0.00,,---,0.00,VWS V14.01,2013-10-11 00:49:00,
2013-10-10 20:50:00,61.1,58.8,29.86,WNW,299,11.0,11.0,92,0.00,,---,0.00,VWS V14.01,2013-10-11 00:50:00,
2013-10-10 20:51:00,61.0,58.7,29.86,WNW,294,14.0,14.0,92,0.00,,---,0.00,VWS V14.01,2013-10-11 00:51:00,
2013-10-10 20:52:00,61.0,58.7,29.86,NW,306,9.0,14.0,92,0.00,,---,0.00,VWS V14.01,2013-10-11 00:52:00,
2013-10-10 20:53:00,61.0,58.7,29.86,WNW,303,11.0,14.0,92,0.00,,---,0.00,VWS V14.01,2013-10-11 00:53:00,
2013-10-10 20:54:00,61.0,58.7,29.86,WNW,293,10.0,14.0,92,0.00,,---,0.00,VWS V14.01,2013-10-11 00:54:00,
2013-10-10 20:55:00,61.0,58.7,29.86,West,279,10.0,14.0,92,0.00,,---,0.00,VWS V14.01,2013-10-11 00:55:00,
2013-10-10 20:56:00,61.1,58.8,29.86,WNW,290,10.0,13.0,92,0.00,,---,0.00,VWS V14.01,2013-10-11 00:56:00,
2013-10-10 20:57:00,61.0,58.7,29.86,West,281,12.0,13.0,92,0.00,,---,0.00,VWS V14.01,2013-10-11 00:57:00,
2013-10-10 20:58:00,61.0,58.7,29.86,WNW,286,9.0,13.0,92,0.00,,---,0.00,VWS V14.01,2013-10-11 00:58:00,
2013-10-10 20:59:00,61.0,58.7,29.86,WNW,300,14.0,14.0,92,0.00,,---,0.00,VWS V14.01,2013-10-11 00:59:00,
2013-10-10 21:00:00,61.0,59.0,29.87,WNW,297,11.0,15.0,93,0.00,,---,0.00,VWS V14.01,2013-10-11 01:00:00,
2013-10-10 21:01:00,61.0,59.0,29.87,WNW,298,13.0,14.0,93,0.00,,---,0.00,VWS V14.01,2013-10-11 01:01:00,
2013-10-10 21:02:00,61.0,58.7,29.87,WNW,302,11.0,14.0,92,0.00,,---,0.00,VWS V14.01,2013-10-11 01:02:00,
2013-10-10 21:03:00,61.0,58.7,29.87,WNW,294,8.0,14.0,92,0.00,,---,0.00,VWS V14.01,2013-10-11 01:03:00,
2013-10-10 21:04:00,61.0,58.7,29.87,WNW,295,6.0,14.0,92,0.00,,---,0.00,VWS V14.01,2013-10-11 01:04:00,
2013-10-10 21:05:00,61.0,58.7,29.87,WNW,296,9.0,14.0,92,0.00,,---,0.00,VWS V14.01,2013-10-11 01:05:00,
2013-10-10 21:06:00,61.0,58.7,29.87,WNW,296,9.0,9.0,92,0.00,,---,0.00,VWS V14.01,2013-10-11 01:06:00,
2013-10-10 21:07:00,61.0,58.7,29.87,NW,304,11.0,11.0,92,0.00,,---,0.00,VWS V14.01,2013-10-11 01:07:00,
2013-10-10 21:08:00,60.9,58.6,29.87,WNW,288,5.0,11.0,92,0.00,,---,0.00,VWS V14.01,2013-10-11 01:08:00,
2013-10-10 21:09:00,60.9,58.6,29.87,West,281,10.0,11.0,92,0.00,,---,0.00,VWS V14.01,2013-10-11 01:09:00,
2013-10-10 21:10:00,60.9,58.6,29.87,West,272,10.0,11.0,92,0.00,,---,0.00,VWS V14.01,2013-10-11 01:10:00,
2013-10-10 21:11:00,60.9,58.9,29.87,West,281,7.0,10.0,93,0.00,,---,0.00,VWS V14.01,2013-10-11 01:11:00,
2013-10-10 21:12:00,60.9,58.9,29.87,WNW,303,8.0,10.0,93,0.00,,---,0.00,VWS V14.01,2013-10-11 01:12:00,
2013-10-10 21:13:00,60.9,58.9,29.87,West,278,6.0,12.0,93,0.00,,---,0.00,VWS V14.01,2013-10-11 01:13:00,
2013-10-10 21:14:00,60.9,58.9,29.87,WNW,295,11.0,13.0,93,0.00,,---,0.00,VWS V14.01,2013-10-11 01:14:00,
2013-10-10 21:15:00,60.9,58.9,29.87,NW,312,10.0,13.0,93,0.00,,---,0.00,VWS V14.01,2013-10-11 01:15:00,
2013-10-10 21:16:00,60.9,58.9,29.87,WNW,298,6.0,9.0,93,0.00,,---,0.00,VWS V14.01,2013-10-11 01:16:00,
2013-10-10 21:17:00,60.8,58.8,29.87,WNW,290,15.0,15.0,93,0.00,,---,0.00,VWS V14.01,2013-10-11 01:17:00,
2013-10-10 21:18:00,60.8,58.8,29.87,West,273,10.0,15.0,93,0.00,,---,0.00,VWS V14.01,2013-10-11 01:18:00,
2013-10-10 21:19:00,60.8,58.8,29.87,WNW,288,7.0,15.0,93,0.00,,---,0.00,VWS V14.01,2013-10-11 01:19:00,
2013-10-10 21:20:00,60.8,58.8,29.87,WNW,298,9.0,15.0,93,0.00,,---,0.00,VWS V14.01,2013-10-11 01:20:00,
2013-10-10 21:21:00,60.8,58.8,29.87,WNW,295,6.0,12.0,93,0.00,,---,0.00,VWS V14.01,2013-10-11 01:21:00,
2013-10-10 21:22:00,60.8,58.8,29.87,WNW,302,10.0,12.0,93,0.00,,---,0.00,VWS V14.01,2013-10-11 01:22:00,
2013-10-10 21:23:00,60.8,58.8,29.87,WNW,291,9.0,12.0,93,0.00,,---,0.00,VWS V14.01,2013-10-11 01:23:00,
2013-10-10 21:24:00,60.8,58.8,29.87,WNW,293,9.0,12.0,93,0.00,,---,0.00,VWS V14.01,2013-10-11 01:24:00,
2013-10-10 21:25:00,60.8,58.8,29.87,WNW,293,9.0,12.0,93,0.00,,---,0.00,VWS V14.01,2013-10-11 01:25:00,
2013-10-10 21:26:00,60.7,58.7,29.87,WNW,290,9.0,10.0,93,0.00,,---,0.00,VWS V14.01,2013-10-11 01:26:00,
2013-10-10 21:27:00,60.7,58.7,29.87,WNW,299,9.0,10.0,93,0.00,,---,0.00,VWS V14.01,2013-10-11 01:27:00,
2013-10-10 21:28:00,60.7,58.7,29.87,WNW,299,6.0,11.0,93,0.00,,---,0.00,VWS V14.01,2013-10-11 01:28:00,
2013-10-10 21:29:00,60.7,58.7,29.87,NW,304,8.0,11.0,93,0.00,,---,0.00,VWS V14.01,2013-10-11 01:29:00,
2013-10-10 21:30:00,60.7,58.7,29.87,NW,316,7.0,13.0,93,0.00,,---,0.00,VWS V14.01,2013-10-11 01:30:00,
2013-10-10 21:31:00,60.7,58.7,29.87,WNW,286,7.0,12.0,93,0.00,,---,0.00,VWS V14.01,2013-10-11 01:31:00,
2013-10-10 21:32:00,60.7,58.7,29.87,WNW,298,9.0,13.0,93,0.00,,---,0.00,VWS V14.01,2013-10-11 01:32:00,
2013-10-10 21:33:00,60.7,58.7,29.87,WNW,300,5.0,13.0,93,0.00,,---,0.00,VWS V14.01,2013-10-11 01:33:00,
2013-10-10 21:34:00,60.7,58.7,29.87,WNW,299,6.0,13.0,93,0.00,,---,0.00,VWS V14.01,2013-10-11 01:34:00,
2013-10-10 21:35:00,60.7,58.7,29.87,WNW,293,9.0,13.0,93,0.00,,---,0.00,VWS V14.01,2013-10-11 01:35:00,
2013-10-10 21:36:00,60.7,58.7,29.87,WNW,294,13.0,13.0,93,0.00,,---,0.00,VWS V14.01,2013-10-11 01:36:00,
2013-10-10 21:37:00,60.6,58.6,29.87,West,275,10.0,13.0,93,0.00,,---,0.00,VWS V14.01,2013-10-11 01:37:00,
2013-10-10 21:38:00,60.6,58.6,29.87,WNW,292,13.0,13.0,93,0.00,,---,0.00,VWS V14.01,2013-10-11 01:38:00,
2013-10-10 21:39:00,60.6,58.6,29.87,West,277,12.0,13.0,93,0.00,,---,0.00,VWS V14.01,2013-10-11 01:39:00,
2013-10-10 21:40:00,60.5,58.5,29.87,WNW,295,10.0,14.0,93,0.00,,---,0.00,VWS V14.01,2013-10-11 01:40:00,
2013-10-10 21:41:00,60.6,58.6,29.87,WNW,294,5.0,10.0,93,0.00,,---,0.00,VWS V14.01,2013-10-11 01:41:00,
2013-10-10 21:42:00,60.6,58.6,29.87,WNW,294,3.0,10.0,93,0.00,,---,0.00,VWS V14.01,2013-10-11 01:42:00,
2013-10-10 21:43:00,60.6,58.6,29.87,NW,306,6.0,10.0,93,0.00,,---,0.00,VWS V14.01,2013-10-11 01:43:00,
2013-10-10 21:44:00,60.6,58.6,29.87,WNW,298,7.0,10.0,93,0.00,,---,0.00,VWS V14.01,2013-10-11 01:44:00,
2013-10-10 21:45:00,60.6,58.6,29.87,NW,304,11.0,11.0,93,0.00,,---,0.00,VWS V14.01,2013-10-11 01:45:00,
2013-10-10 21:46:00,60.6,58.6,29.87,WNW,298,5.0,11.0,93,0.00,,---,0.00,VWS V14.01,2013-10-11 01:46:00,
2013-10-10 21:47:00,60.6,58.6,29.87,WNW,290,7.0,11.0,93,0.00,,---,0.00,VWS V14.01,2013-10-11 01:47:00,
2013-10-10 21:48:00,60.6,58.6,29.87,WNW,288,1.0,11.0,93,0.00,,---,0.00,VWS V14.01,2013-10-11 01:48:00,
2013-10-10 21:49:00,60.6,58.6,29.87,WNW,302,6.0,11.0,93,0.00,,---,0.00,VWS V14.01,2013-10-11 01:49:00,
2013-10-10 21:50:00,60.6,58.6,29.87,NW,305,9.0,11.0,93,0.00,,---,0.00,VWS V14.01,2013-10-11 01:50:00,
2013-10-10 21:51:00,60.6,58.6,29.87,WNW,290,6.0,9.0,93,0.00,,---,0.00,VWS V14.01,2013-10-11 01:51:00,
2013-10-10 21:52:00,60.6,58.6,29.87,WNW,292,5.0,12.0,93,0.00,,---,0.00,VWS V14.01,2013-10-11 01:52:00,
2013-10-10 21:53:00,60.6,58.6,29.87,WNW,282,11.0,12.0,93,0.00,,---,0.00,VWS V14.01,2013-10-11 01:53:00,
2013-10-10 21:54:00,60.6,58.6,29.87,WNW,292,10.0,12.0,93,0.00,,---,0.00,VWS V14.01,2013-10-11 01:54:00,
2013-10-10 21:55:00,60.5,58.8,29.87,WNW,286,11.0,12.0,94,0.00,,---,0.00,VWS V14.01,2013-10-11 01:55:00,
2013-10-10 21:56:00,60.5,58.5,29.87,WNW,296,8.0,11.0,93,0.00,,---,0.00,VWS V14.01,2013-10-11 01:56:00,
2013-10-10 21:57:00,60.5,58.8,29.87,NW,312,9.0,11.0,94,0.00,,---,0.00,VWS V14.01,2013-10-11 01:57:00,
2013-10-10 21:58:00,60.5,58.5,29.87,WNW,300,5.0,11.0,93,0.00,,---,0.00,VWS V14.01,2013-10-11 01:58:00,
2013-10-10 21:59:00,60.5,58.5,29.87,West,277,9.0,11.0,93,0.00,,---,0.00,VWS V14.01,2013-10-11 01:59:00,
2013-10-10 22:00:00,60.5,58.8,29.87,WNW,284,9.0,11.0,94,0.00,,---,0.00,VWS V14.01,2013-10-11 02:00:00,
2013-10-10 22:01:00,60.6,58.9,29.87,WNW,293,4.0,8.0,94,0.00,,---,0.00,VWS V14.01,2013-10-11 02:01:00,
2013-10-10 22:02:00,60.5,58.5,29.87,WNW,293,6.0,8.0,93,0.00,,---,0.00,VWS V14.01,2013-10-11 02:02:00,
2013-10-10 22:03:00,60.5,58.5,29.87,WNW,288,6.0,8.0,93,0.00,,---,0.00,VWS V14.01,2013-10-11 02:03:00,
2013-10-10 22:04:00,60.5,58.8,29.87,WNW,288,8.0,11.0,94,0.00,,---,0.00,VWS V14.01,2013-10-11 02:04:00,
2013-10-10 22:05:00,60.5,58.5,29.87,WNW,285,5.0,11.0,93,0.00,,---,0.00,VWS V14.01,2013-10-11 02:05:00,
2013-10-10 22:06:00,60.5,58.8,29.87,WNW,292,4.0,11.0,94,0.00,,---,0.00,VWS V14.01,2013-10-11 02:06:00,
2013-10-10 22:07:00,60.5,58.8,29.87,WNW,293,6.0,11.0,94,0.00,,---,0.00,VWS V14.01,2013-10-11 02:07:00,
2013-10-10 22:08:00,60.5,58.8,29.87,WNW,288,6.0,12.0,94,0.00,,---,0.00,VWS V14.01,2013-10-11 02:08:00,
2013-10-10 22:09:00,60.5,58.8,29.87,NW,304,9.0,12.0,94,0.00,,---,0.00,VWS V14.01,2013-10-11 02:09:00,
2013-10-10 22:10:00,60.5,58.8,29.87,WNW,294,7.0,12.0,94,0.00,,---,0.00,VWS V14.01,2013-10-11 02:10:00,
2013-10-10 22:11:00,60.5,58.8,29.87,West,281,10.0,11.0,94,0.00,,---,0.00,VWS V14.01,2013-10-11 02:11:00,
2013-10-10 22:12:00,60.4,58.7,29.87,WNW,300,10.0,12.0,94,0.00,,---,0.00,VWS V14.01,2013-10-11 02:12:00,
2013-10-10 22:13:00,60.5,58.8,29.87,WNW,293,10.0,12.0,94,0.00,,---,0.00,VWS V14.01,2013-10-11 02:13:00,
2013-10-10 22:14:00,60.5,58.8,29.87,NW,304,9.0,12.0,94,0.00,,---,0.00,VWS V14.01,2013-10-11 02:14:00,
2013-10-10 22:15:00,60.5,58.8,29.87,WNW,291,8.0,12.0,94,0.00,,---,0.00,VWS V14.01,2013-10-11 02:15:00,
2013-10-10 22:16:00,60.5,58.8,29.87,WNW,297,8.0,12.0,94,0.00,,---,0.00,VWS V14.01,2013-10-11 02:16:00,
2013-10-10 22:17:00,60.5,58.8,29.87,WNW,295,4.0,12.0,94,0.00,,---,0.00,VWS V14.01,2013-10-11 02:17:00,
2013-10-10 22:18:00,60.5,58.8,29.87,WNW,298,6.0,12.0,94,0.00,,---,0.00,VWS V14.01,2013-10-11 02:18:00,
2013-10-10 22:19:00,60.5,58.8,29.87,NW,309,7.0,12.0,94,0.00,,---,0.00,VWS V14.01,2013-10-11 02:19:00,
2013-10-10 22:20:00,60.5,58.8,29.87,WNW,289,10.0,12.0,94,0.00,,---,0.00,VWS V14.01,2013-10-11 02:20:00,
2013-10-10 22:21:00,60.5,58.8,29.87,WNW,289,10.0,10.0,94,0.00,,---,0.00,VWS V14.01,2013-10-11 02:21:00,
2013-10-10 22:22:00,60.4,58.7,29.87,WNW,294,7.0,10.0,94,0.00,,---,0.00,VWS V14.01,2013-10-11 02:22:00,
2013-10-10 22:23:00,60.5,58.8,29.87,WNW,290,11.0,11.0,94,0.00,,---,0.00,VWS V14.01,2013-10-11 02:23:00,
2013-10-10 22:24:00,60.5,58.8,29.87,WNW,300,9.0,11.0,94,0.00,,---,0.00,VWS V14.01,2013-10-11 02:24:00,
2013-10-10 22:25:00,60.5,58.8,29.87,WNW,289,11.0,11.0,94,0.00,,---,0.00,VWS V14.01,2013-10-11 02:25:00,
2013-10-10 22:26:00,60.4,58.7,29.87,WNW,289,9.0,11.0,94,0.00,,---,0.00,VWS V14.01,2013-10-11 02:26:00,
2013-10-10 22:27:00,60.4,58.7,29.87,WNW,289,11.0,13.0,94,0.00,,---,0.00,VWS V14.01,2013-10-11 02:27:00,
2013-10-10 22:28:00,60.4,58.7,29.87,West,279,9.0,13.0,94,0.00,,---,0.00,VWS V14.01,2013-10-11 02:28:00,
2013-10-10 22:29:00,60.4,58.7,29.87,WNW,294,9.0,13.0,94,0.00,,---,0.00,VWS V14.01,2013-10-11 02:29:00,
2013-10-10 22:30:00,60.4,58.7,29.87,West,278,7.0,13.0,94,0.00,,---,0.00,VWS V14.01,2013-10-11 02:30:00,
2013-10-10 22:31:00,60.4,58.7,29.87,WNW,290,10.0,10.0,94,0.00,,---,0.00,VWS V14.01,2013-10-11 02:31:00,
2013-10-10 22:32:00,60.4,58.7,29.87,WNW,290,7.0,12.0,94,0.00,,---,0.00,VWS V14.01,2013-10-11 02:32:00,
2013-10-10 22:33:00,60.4,58.7,29.87,WNW,292,6.0,12.0,94,0.00,,---,0.00,VWS V14.01,2013-10-11 02:33:00,
2013-10-10 22:34:00,60.4,58.7,29.87,WNW,286,6.0,12.0,94,0.00,,---,0.00,VWS V14.01,2013-10-11 02:34:00,
2013-10-10 22:35:00,60.4,58.7,29.87,WNW,297,9.0,13.0,94,0.00,,---,0.00,VWS V14.01,2013-10-11 02:35:00,
2013-10-10 22:36:00,60.4,58.7,29.87,WNW,303,11.0,12.0,94,0.00,,---,0.00,VWS V14.01,2013-10-11 02:36:00,
2013-10-10 22:37:00,60.3,58.6,29.87,WNW,293,10.0,12.0,94,0.00,,---,0.00,VWS V14.01,2013-10-11 02:37:00,
2013-10-10 22:38:00,60.3,58.6,29.87,WNW,296,10.0,13.0,94,0.00,,---,0.00,VWS V14.01,2013-10-11 02:38:00,
2013-10-10 22:39:00,60.3,58.6,29.87,WNW,296,6.0,13.0,94,0.00,,---,0.00,VWS V14.01,2013-10-11 02:39:00,
2013-10-10 22:40:00,60.3,58.6,29.87,WNW,295,10.0,13.0,94,0.00,,---,0.00,VWS V14.01,2013-10-11 02:40:00,
2013-10-10 22:41:00,60.3,58.6,29.87,WNW,294,9.0,13.0,94,0.00,,---,0.00,VWS V14.01,2013-10-11 02:41:00,
2013-10-10 22:42:00,60.3,58.6,29.87,WNW,288,11.0,13.0,94,0.00,,---,0.00,VWS V14.01,2013-10-11 02:42:00,
2013-10-10 22:43:00,60.3,58.6,29.87,WNW,288,9.0,13.0,94,0.00,,---,0.00,VWS V14.01,2013-10-11 02:43:00,
2013-10-10 22:44:00,60.3,58.6,29.87,WNW,287,11.0,13.0,94,0.00,,---,0.00,VWS V14.01,2013-10-11 02:44:00,
2013-10-10 22:45:00,60.3,58.6,29.87,WNW,299,6.0,13.0,94,0.00,,---,0.00,VWS V14.01,2013-10-11 02:45:00,
2013-10-10 22:46:00,60.3,58.6,29.87,WNW,284,5.0,10.0,94,0.00,,---,0.00,VWS V14.01,2013-10-11 02:46:00,
2013-10-10 22:47:00,60.3,58.6,29.87,WNW,282,9.0,10.0,94,0.00,,---,0.00,VWS V14.01,2013-10-11 02:47:00,
2013-10-10 22:48:00,60.3,58.6,29.87,West,278,11.0,12.0,94,0.00,,---,0.00,VWS V14.01,2013-10-11 02:48:00,
2013-10-10 22:49:00,60.3,58.6,29.87,WNW,298,4.0,13.0,94,0.00,,---,0.00,VWS V14.01,2013-10-11 02:49:00,
2013-10-10 22:50:00,60.3,58.6,29.87,WNW,288,13.0,13.0,94,0.00,,---,0.00,VWS V14.01,2013-10-11 02:50:00,
2013-10-10 22:51:00,60.3,58.6,29.87,WNW,298,7.0,14.0,94,0.00,,---,0.00,VWS V14.01,2013-10-11 02:51:00,
2013-10-10 22:52:00,60.2,58.5,29.87,WNW,291,12.0,14.0,94,0.00,,---,0.00,VWS V14.01,2013-10-11 02:52:00,
2013-10-10 22:53:00,60.2,58.5,29.87,WNW,286,10.0,14.0,94,0.00,,---,0.00,VWS V14.01,2013-10-11 02:53:00,
2013-10-10 22:54:00,60.2,58.5,29.87,WNW,302,15.0,15.0,94,0.00,,---,0.00,VWS V14.01,2013-10-11 02:54:00,
2013-10-10 22:55:00,60.2,58.5,29.87,WNW,291,11.0,15.0,94,0.00,,---,0.00,VWS V14.01,2013-10-11 02:55:00,
2013-10-10 22:56:00,60.2,58.5,29.87,WNW,287,9.0,12.0,94,0.00,,---,0.00,VWS V14.01,2013-10-11 02:56:00,
2013-10-10 22:57:00,60.2,58.5,29.87,WNW,287,9.0,12.0,94,0.00,,---,0.00,VWS V14.01,2013-10-11 02:57:00,
2013-10-10 22:58:00,60.3,58.6,29.87,WNW,301,5.0,12.0,94,0.00,,---,0.00,VWS V14.01,2013-10-11 02:58:00,
2013-10-10 22:59:00,60.3,58.6,29.87,WNW,296,9.0,12.0,94,0.00,,---,0.00,VWS V14.01,2013-10-11 02:59:00,
2013-10-10 23:00:00,60.3,58.6,29.86,WNW,292,8.0,12.0,94,0.00,,---,0.00,VWS V14.01,2013-10-11 03:00:00,
2013-10-10 23:01:00,60.3,58.6,29.86,NW,311,11.0,14.0,94,0.00,,---,0.00,VWS V14.01,2013-10-11 03:01:00,
2013-10-10 23:02:00,60.2,58.5,29.86,WNW,292,6.0,14.0,94,0.00,,---,0.00,VWS V14.01,2013-10-11 03:02:00,
2013-10-10 23:03:00,60.3,58.6,29.86,West,281,7.0,14.0,94,0.00,,---,0.00,VWS V14.01,2013-10-11 03:03:00,
2013-10-10 23:04:00,60.2,58.5,29.86,WNW,290,11.0,14.0,94,0.00,,---,0.00,VWS V14.01,2013-10-11 03:04:00,
2013-10-10 23:05:00,60.2,58.5,29.86,WNW,289,7.0,14.0,94,0.00,,---,0.00,VWS V14.01,2013-10-11 03:05:00,
2013-10-10 23:06:00,60.2,58.5,29.86,WNW,296,4.0,9.0,94,0.00,,---,0.00,VWS V14.01,2013-10-11 03:06:00,
2013-10-10 23:07:00,60.3,58.6,29.86,NW,312,10.0,10.0,94,0.00,,---,0.00,VWS V14.01,2013-10-11 03:07:00,
2013-10-10 23:08:00,60.3,58.6,29.86,WNW,296,6.0,13.0,94,0.00,,---,0.00,VWS V14.01,2013-10-11 03:08:00,
2013-10-10 23:09:00,60.3,58.6,29.86,NW,306,5.0,13.0,94,0.00,,---,0.00,VWS V14.01,2013-10-11 03:09:00,
2013-10-10 23:10:00,60.3,58.6,29.86,WNW,302,6.0,13.0,94,0.00,,---,0.00,VWS V14.01,2013-10-11 03:10:00,
2013-10-10 23:11:00,60.3,58.6,29.86,West,280,9.0,12.0,94,0.00,,---,0.00,VWS V14.01,2013-10-11 03:11:00,
2013-10-10 23:12:00,60.3,58.6,29.86,WNW,286,7.0,12.0,94,0.00,,---,0.00,VWS V14.01,2013-10-11 03:12:00,
2013-10-10 23:13:00,60.3,58.6,29.86,WNW,300,4.0,12.0,94,0.00,,---,0.00,VWS V14.01,2013-10-11 03:13:00,
2013-10-10 23:14:00,60.3,58.6,29.86,WNW,303,7.0,12.0,94,0.00,,---,0.00,VWS V14.01,2013-10-11 03:14:00,
2013-10-10 23:15:00,60.3,58.6,29.85,WNW,290,4.0,12.0,94,0.00,,---,0.00,VWS V14.01,2013-10-11 03:15:00,
2013-10-10 23:16:00,60.3,58.6,29.85,WNW,294,11.0,11.0,94,0.00,,---,0.00,VWS V14.01,2013-10-11 03:16:00,
2013-10-10 23:17:00,60.3,58.6,29.85,WNW,290,11.0,12.0,94,0.00,,---,0.00,VWS V14.01,2013-10-11 03:17:00,
2013-10-10 23:18:00,60.3,58.6,29.85,NW,306,10.0,12.0,94,0.00,,---,0.00,VWS V14.01,2013-10-11 03:18:00,
2013-10-10 23:19:00,60.3,58.6,29.85,WNW,299,9.0,12.0,94,0.00,,---,0.00,VWS V14.01,2013-10-11 03:19:00,
2013-10-10 23:20:00,60.3,58.6,29.85,NW,312,6.0,12.0,94,0.00,,---,0.00,VWS V14.01,2013-10-11 03:20:00,
2013-10-10 23:21:00,60.3,58.6,29.85,WNW,292,6.0,12.0,94,0.00,,---,0.00,VWS V14.01,2013-10-11 03:21:00,
2013-10-10 23:22:00,60.2,58.5,29.85,WNW,297,9.0,12.0,94,0.00,,---,0.00,VWS V14.01,2013-10-11 03:22:00,
2013-10-10 23:23:00,60.2,58.5,29.85,WNW,289,13.0,13.0,94,0.00,,---,0.00,VWS V14.01,2013-10-11 03:23:00,
2013-10-10 23:24:00,60.2,58.5,29.85,NW,306,11.0,15.0,94,0.00,,---,0.00,VWS V14.01,2013-10-11 03:24:00,
2013-10-10 23:25:00,60.2,58.5,29.85,WNW,300,6.0,15.0,94,0.00,,---,0.00,VWS V14.01,2013-10-11 03:25:00,
2013-10-10 23:26:00,60.2,58.8,29.85,WNW,298,5.0,10.0,95,0.00,,---,0.00,VWS V14.01,2013-10-11 03:26:00,
2013-10-10 23:27:00,60.3,58.9,29.85,WNW,295,5.0,10.0,95,0.00,,---,0.00,VWS V14.01,2013-10-11 03:27:00,
2013-10-10 23:28:00,60.3,58.9,29.85,WNW,292,7.0,10.0,95,0.00,,---,0.00,VWS V14.01,2013-10-11 03:28:00,
2013-10-10 23:29:00,60.3,58.9,29.85,WNW,298,8.0,11.0,95,0.00,,---,0.00,VWS V14.01,2013-10-11 03:29:00,
2013-10-10 23:30:00,60.3,58.9,29.85,WNW,291,9.0,11.0,95,0.00,,---,0.00,VWS V14.01,2013-10-11 03:30:00,
2013-10-10 23:31:00,60.3,58.9,29.85,WNW,303,7.0,11.0,95,0.00,,---,0.00,VWS V14.01,2013-10-11 03:31:00,
2013-10-10 23:32:00,60.3,58.9,29.85,NW,304,4.0,11.0,95,0.00,,---,0.00,VWS V14.01,2013-10-11 03:32:00,
2013-10-10 23:33:00,60.3,58.9,29.85,WNW,300,5.0,11.0,95,0.00,,---,0.00,VWS V14.01,2013-10-11 03:33:00,
2013-10-10 23:34:00,60.3,58.9,29.85,WNW,296,12.0,12.0,95,0.00,,---,0.00,VWS V14.01,2013-10-11 03:34:00,
2013-10-10 23:35:00,60.3,58.9,29.85,NW,316,9.0,12.0,95,0.00,,---,0.00,VWS V14.01,2013-10-11 03:35:00,
2013-10-10 23:36:00,60.3,58.9,29.85,WNW,295,7.0,9.0,95,0.00,,---,0.00,VWS V14.01,2013-10-11 03:36:00,
2013-10-10 23:37:00,60.3,58.9,29.85,WNW,302,9.0,9.0,95,0.00,,---,0.00,VWS V14.01,2013-10-11 03:37:00,
2013-10-10 23:38:00,60.3,58.9,29.85,WNW,303,5.0,9.0,95,0.00,,---,0.00,VWS V14.01,2013-10-11 03:38:00,
2013-10-10 23:39:00,60.3,58.9,29.85,WNW,291,10.0,10.0,95,0.00,,---,0.00,VWS V14.01,2013-10-11 03:39:00,
2013-10-10 23:40:00,60.3,58.9,29.85,NW,308,5.0,13.0,95,0.00,,---,0.00,VWS V14.01,2013-10-11 03:40:00,
2013-10-10 23:41:00,60.3,58.9,29.85,NW,306,6.0,6.0,95,0.00,,---,0.00,VWS V14.01,2013-10-11 03:41:00,
2013-10-10 23:42:00,60.3,58.9,29.85,WNW,292,10.0,13.0,95,0.00,,---,0.00,VWS V14.01,2013-10-11 03:42:00,
2013-10-10 23:43:00,60.3,58.6,29.85,NNW,330,10.0,13.0,94,0.00,,---,0.00,VWS V14.01,2013-10-11 03:43:00,
2013-10-10 23:44:00,60.2,58.5,29.85,NW,308,7.0,13.0,94,0.00,,---,0.00,VWS V14.01,2013-10-11 03:44:00,
2013-10-10 23:45:00,60.2,58.5,29.85,NW,307,9.0,13.0,94,0.00,,---,0.00,VWS V14.01,2013-10-11 03:45:00,
2013-10-10 23:46:00,60.2,58.8,29.85,NW,319,3.0,9.0,95,0.00,,---,0.00,VWS V14.01,2013-10-11 03:46:00,
2013-10-10 23:47:00,60.3,58.9,29.85,WNW,296,6.0,9.0,95,0.00,,---,0.00,VWS V14.01,2013-10-11 03:47:00,
2013-10-10 23:48:00,60.3,58.9,29.85,WNW,292,7.0,12.0,95,0.00,,---,0.00,VWS V14.01,2013-10-11 03:48:00,
2013-10-10 23:49:00,60.3,58.9,29.85,WNW,286,7.0,12.0,95,0.00,,---,0.00,VWS V14.01,2013-10-11 03:49:00,
2013-10-10 23:50:00,60.3,58.9,29.85,WNW,286,5.0,12.0,95,0.00,,---,0.00,VWS V14.01,2013-10-11 03:50:00,
2013-10-10 23:51:00,60.3,58.9,29.85,WNW,288,5.0,7.0,95,0.00,,---,0.00,VWS V14.01,2013-10-11 03:51:00,
2013-10-10 23:52:00,60.3,58.6,29.85,WNW,293,5.0,9.0,94,0.00,,---,0.00,VWS V14.01,2013-10-11 03:52:00,
2013-10-10 23:53:00,60.3,58.6,29.85,WNW,293,4.0,9.0,94,0.00,,---,0.00,VWS V14.01,2013-10-11 03:53:00,
2013-10-10 23:54:00,60.3,58.6,29.85,WNW,290,10.0,15.0,94,0.00,,---,0.00,VWS V14.01,2013-10-11 03:54:00,
2013-10-10 23:55:00,60.3,58.6,29.85,WNW,300,7.0,15.0,94,0.00,,---,0.00,VWS V14.01,2013-10-11 03:55:00,
2013-10-10 23:56:00,60.3,58.6,29.85,NW,314,6.0,10.0,94,0.00,,---,0.00,VWS V14.01,2013-10-11 03:56:00,
2013-10-10 23:57:00,60.3,58.6,29.85,NW,321,6.0,10.0,94,0.00,,---,0.00,VWS V14.01,2013-10-11 03:57:00,
2013-10-10 23:58:00,60.4,58.7,29.85,NW,309,5.0,10.0,94,0.00,,---,0.00,VWS V14.01,2013-10-11 03:58:00,
2013-10-10 23:59:00,60.4,58.7,29.85,WNW,297,4.0,11.0,94,0.00,,---,0.00,VWS V14.01,2013-10-11 03:59:00,